[[{"header":{"parameterUnit":"m.s-1","parameterCategory":1,"la1":30.6,"la2":29.2853,"lo1":-89.7004,"lo2":-87.6739,"dy":0.0162,"dx":0.0183,"nx":112,"ny":82,"refTime":"2026-04-07T00:00:00:Z","depth":0,"parameterNumber":2,"parameterNumberName":"U-component_of_WINDS"},"data":[0.0,0.0,0.0,0.0,0.0,0.0,0.0,0.0,0.0,0.0,0.0,0.0,0.0,0.0,0.0,0.0,0.0,0.0,0.0,0.0,0.0,0.0,0.0,0.0,0.0,0.0,0.0,0.0,0.0,0.0,0.0,0.0,0.0,0.0,0.0,0.0,0.0,0.0,0.0,0.0,0.0,0.0,0.0,0.0,0.0,0.0,0.0,0.0,0.0,0.0,0.0,0.0,0.0,0.0,0.0,0.0,0.0,0.0,0.0,0.0,0.0,0.0,0.0,0.0,0.0,0.0,0.0,0.0,0.0,0.0,0.0,0.0,0.0,0.0,0.0,0.0,0.0,0.0,0.0,0.0,0.0,0.0,0.0,0.0,0.0,0.0,0.0,0.0,0.0,0.0,0.0,3.5927,3.8241,3.9522,3.907,3.7499,3.5344,3.25,0.0,0.0,0.0,0.0,0.0,0.0,0.0,0.0,0.0,0.0,0.0,0.0,0.0,0.0,0.0,0.0,0.0,0.0,0.0,0.0,0.0,0.0,0.0,0.0,0.0,0.0,0.0,0.0,0.0,0.0,0.0,0.0,0.0,0.0,0.0,0.0,0.0,0.0,0.0,0.0,0.0,0.0,0.0,0.0,0.0,0.0,0.0,0.0,0.0,0.0,0.0,0.0,0.0,0.0,0.0,0.0,0.0,0.0,0.0,0.0,0.0,0.0,0.0,0.0,0.0,0.0,0.0,0.0,0.0,0.0,0.0,0.0,0.0,0.0,0.0,0.0,0.0,0.0,0.0,0.0,0.0,0.0,0.0,0.0,0.0,0.0,0.0,0.0,0.0,0.0,0.0,0.0,0.0,0.0,0.0,0.0,0.0,0.0,0.0,0.0,0.0,0.0,0.0,0.0,3.4704,3.8014,3.917,3.9672,3.9572,3.7037,3.4723,3.3071,0.0,0.0,0.0,0.0,0.0,0.0,0.0,0.0,0.0,0.0,0.0,0.0,0.0,0.0,0.0,0.0,0.0,0.0,0.0,0.0,0.0,0.0,0.0,0.0,0.0,0.0,0.0,0.0,0.0,0.0,0.0,0.0,0.0,0.0,0.0,0.0,0.0,0.0,0.0,0.0,0.0,0.0,0.0,0.0,0.0,0.0,0.0,0.0,0.0,0.0,0.0,0.0,0.0,0.0,0.0,0.0,0.0,0.0,0.0,0.0,0.0,0.0,0.0,0.0,0.0,0.0,0.0,0.0,0.0,0.0,0.0,0.0,0.0,0.0,0.0,0.0,0.0,0.0,0.0,0.0,0.0,0.0,0.0,0.0,0.0,0.0,0.0,0.0,0.0,0.0,0.0,0.0,0.0,0.0,0.0,0.0,0.0,0.0,0.0,0.0,0.0,0.0,0.0,3.3972,3.568,3.8969,3.9546,3.9388,3.8582,3.6081,3.3522,3.1133,3.004,0.0,0.0,0.0,0.0,0.0,0.0,0.0,0.0,0.0,0.0,0.0,0.0,0.0,0.0,0.0,0.0,0.0,0.0,0.0,0.0,0.0,0.0,0.0,0.0,0.0,0.0,0.0,0.0,0.0,0.0,0.0,0.0,0.0,0.0,0.0,0.0,0.0,0.0,0.0,0.0,0.0,0.0,0.0,0.0,0.0,0.0,0.0,0.0,0.0,0.0,0.0,0.0,0.0,0.0,0.0,0.0,0.0,0.0,0.0,0.0,0.0,0.0,0.0,0.0,0.0,0.0,0.0,0.0,0.0,0.0,0.0,0.0,0.0,0.0,0.0,0.0,0.0,0.0,0.0,0.0,0.0,0.0,0.0,0.0,0.0,0.0,0.0,0.0,0.0,0.0,0.0,0.0,0.0,0.0,0.0,0.0,0.0,0.0,0.0,0.0,0.0,0.0,3.6182,3.7162,3.9446,3.9697,3.9103,3.7636,3.5149,3.2409,2.9377,2.7633,0.0,0.0,0.0,0.0,0.0,0.0,0.0,0.0,0.0,0.0,0.0,0.0,0.0,0.0,0.0,0.0,0.0,0.0,0.0,0.0,0.0,0.0,0.0,0.0,0.0,0.0,0.0,0.0,0.0,0.0,0.0,0.0,0.0,0.0,0.0,0.0,0.0,0.0,0.0,0.0,0.0,0.0,0.0,0.0,0.0,0.0,0.0,0.0,0.0,0.0,0.0,0.0,0.0,0.0,0.0,0.0,0.0,0.0,0.0,0.0,0.0,0.0,0.0,0.0,0.0,0.0,0.0,0.0,0.0,0.0,0.0,0.0,0.0,0.0,0.0,0.0,0.0,0.0,0.0,0.0,0.0,0.0,0.0,0.0,0.0,0.0,0.0,0.0,0.0,0.0,0.0,0.0,0.0,0.0,0.0,0.0,0.0,0.0,0.0,0.0,0.0,0.0,3.7061,3.8944,3.9622,3.9697,3.9103,3.7636,3.4606,3.1748,2.9356,2.632,0.0,0.0,0.0,0.0,0.0,0.0,0.0,0.0,0.0,0.0,0.0,0.0,0.0,0.0,0.0,0.0,0.0,0.0,0.0,0.0,0.0,0.0,0.0,0.0,0.0,0.0,0.0,0.0,0.0,0.0,0.0,0.0,0.0,0.0,0.0,0.0,0.0,0.0,0.0,0.0,0.0,0.0,0.0,0.0,0.0,0.0,0.0,0.0,0.0,0.0,0.0,0.0,0.0,0.0,0.0,0.0,0.0,0.0,0.0,0.0,0.0,0.0,0.0,0.0,0.0,0.0,0.0,0.0,0.0,0.0,0.0,0.0,0.0,0.0,0.0,0.0,0.0,0.0,0.0,0.0,0.0,0.0,0.0,0.0,0.0,0.0,0.0,0.0,0.0,0.0,0.0,0.0,0.0,0.0,0.0,0.0,0.0,0.0,0.0,0.0,0.0,0.0,3.7061,3.8464,0.0,3.8832,3.7726,3.5008,3.3153,3.0929,2.8016,0.0,0.0,0.0,0.0,0.0,0.0,0.0,0.0,0.0,0.0,0.0,0.0,0.0,0.0,0.0,0.0,0.0,0.0,0.0,0.0,0.0,0.0,0.0,0.0,0.0,0.0,0.0,0.0,0.0,0.0,0.0,0.0,0.0,0.0,0.0,0.0,0.0,0.0,0.0,0.0,0.0,0.0,0.0,0.0,0.0,0.0,0.0,0.0,0.0,0.0,0.0,0.0,0.0,0.0,0.0,0.0,0.0,0.0,0.0,0.0,0.0,0.0,0.0,0.0,0.0,0.0,0.0,0.0,0.0,0.0,0.0,0.0,0.0,0.0,0.0,0.0,0.0,0.0,0.0,0.0,0.0,0.0,0.0,0.0,0.0,0.0,0.0,0.0,0.0,0.0,0.0,0.0,0.0,0.0,0.0,0.0,0.0,0.0,0.0,0.0,0.0,0.0,3.5132,3.7438,3.8755,0.0,3.8594,3.7197,3.398,3.2398,3.0329,2.7408,0.0,0.0,0.0,0.0,0.0,0.0,0.0,0.0,0.0,0.0,0.0,0.0,0.0,0.0,0.0,0.0,0.0,0.0,0.0,0.0,0.0,0.0,0.0,0.0,0.0,0.0,0.0,0.0,0.0,0.0,0.0,0.0,0.0,0.0,0.0,0.0,0.0,0.0,0.0,0.0,0.0,0.0,0.0,0.0,0.0,0.0,0.0,0.0,0.0,0.0,0.0,0.0,0.0,0.0,0.0,0.0,0.0,0.0,0.0,0.0,0.0,0.0,0.0,0.0,0.0,0.0,0.0,0.0,0.0,0.0,0.0,0.0,0.0,0.0,0.0,0.0,0.0,0.0,0.0,0.0,0.0,0.0,0.0,0.0,0.0,0.0,0.0,0.0,0.0,0.0,0.0,0.0,0.0,0.0,0.0,0.0,0.0,0.0,0.0,0.0,0.0,0.0,3.5284,3.8417,4.0259,3.9627,3.9136,3.7805,3.5203,3.2588,3.0116,0.0,0.0,0.0,0.0,0.0,0.0,0.0,0.0,0.0,0.0,0.0,0.0,0.0,0.0,0.0,0.0,0.0,0.0,0.0,0.0,0.0,0.0,0.0,0.0,0.0,0.0,0.0,0.0,0.0,0.0,0.0,0.0,0.0,0.0,0.0,0.0,0.0,0.0,0.0,0.0,0.0,0.0,0.0,0.0,0.0,0.0,0.0,0.0,0.0,0.0,0.0,0.0,0.0,0.0,0.0,0.0,0.0,0.0,0.0,0.0,0.0,0.0,0.0,0.0,0.0,0.0,0.0,0.0,0.0,0.0,0.0,0.0,0.0,0.0,0.0,0.0,0.0,0.0,0.0,0.0,0.0,0.0,0.0,0.0,0.0,0.0,0.0,0.0,0.0,0.0,0.0,0.0,0.0,0.0,0.0,0.0,0.0,0.0,0.0,0.0,0.0,0.0,0.0,3.4751,3.8139,3.9653,3.7626,3.6992,3.5836,3.3636,3.1607,2.9674,2.7806,0.0,0.0,0.0,0.0,0.0,0.0,0.0,0.0,0.0,0.0,0.0,0.0,0.0,0.0,0.0,0.0,0.0,0.0,0.0,0.0,0.0,0.0,0.0,0.0,0.0,0.0,0.0,0.0,0.0,0.0,0.0,0.0,0.0,0.0,0.0,0.0,0.0,0.0,0.0,0.0,0.0,0.0,0.0,0.0,0.0,0.0,0.0,0.0,0.0,0.0,0.0,0.0,0.0,0.0,0.0,0.0,0.0,0.0,0.0,0.0,0.0,0.0,0.0,0.0,0.0,0.0,0.0,0.0,0.0,0.0,0.0,0.0,0.0,0.0,0.0,0.0,0.0,0.0,0.0,0.0,0.0,0.0,0.0,0.0,0.0,0.0,0.0,0.0,0.0,0.0,0.0,0.0,0.0,0.0,0.0,0.0,0.0,0.0,0.0,0.0,0.0,0.0,3.4797,3.8099,3.9584,3.7477,3.6708,3.5551,3.3733,3.1973,3.0176,2.8308,0.0,0.0,0.0,0.0,0.0,0.0,0.0,0.0,0.0,0.0,0.0,0.0,0.0,0.0,0.0,0.0,0.0,0.0,0.0,0.0,0.0,0.0,0.0,0.0,0.0,0.0,0.0,0.0,0.0,0.0,0.0,0.0,0.0,0.0,0.0,0.0,0.0,0.0,0.0,0.0,0.0,0.0,0.0,0.0,0.0,0.0,0.0,0.0,0.0,0.0,0.0,0.0,0.0,0.0,0.0,0.0,0.0,0.0,0.0,0.0,0.0,0.0,0.0,0.0,0.0,0.0,0.0,0.0,0.0,0.0,0.0,0.0,0.0,0.0,0.0,0.0,0.0,0.0,0.0,0.0,0.0,0.0,0.0,0.0,0.0,0.0,0.0,0.0,0.0,0.0,0.0,0.0,0.0,0.0,0.0,0.0,0.0,0.0,0.0,0.0,0.0,0.0,3.5107,3.8162,3.9704,3.8373,3.7494,3.6395,3.4897,3.3234,3.1338,2.9152,0.0,0.0,0.0,0.0,0.0,0.0,0.0,0.0,0.0,0.0,0.0,0.0,0.0,0.0,0.0,0.0,0.0,0.0,0.0,0.0,0.0,0.0,0.0,0.0,0.0,0.0,0.0,0.0,0.0,0.0,0.0,0.0,0.0,0.0,0.0,0.0,0.0,0.0,0.0,0.0,0.0,0.0,0.0,0.0,0.0,0.0,0.0,0.0,0.0,0.0,0.0,0.0,0.0,0.0,0.0,0.0,0.0,0.0,0.0,0.0,3.381,3.246,0.0,0.0,0.0,0.0,0.0,0.0,0.0,0.0,0.0,0.0,0.0,0.0,0.0,0.0,0.0,0.0,0.0,0.0,0.0,0.0,0.0,0.0,0.0,0.0,0.0,0.0,0.0,0.0,0.0,0.0,0.0,0.0,0.0,0.0,0.0,0.0,0.0,0.0,0.0,0.0,3.4543,3.7084,3.8381,3.718,3.6578,3.5955,3.5307,3.3652,3.1875,3.0039,2.8022,0.0,0.0,0.0,0.0,0.0,0.0,0.0,0.0,0.0,0.0,0.0,0.0,0.0,0.0,0.0,0.0,0.0,0.0,0.0,0.0,0.0,0.0,0.0,0.0,0.0,0.0,0.0,0.0,0.0,0.0,0.0,0.0,0.0,0.0,0.0,0.0,0.0,0.0,0.0,0.0,0.0,0.0,0.0,0.0,0.0,0.0,0.0,0.0,0.0,0.0,0.0,0.0,0.0,0.0,0.0,0.0,0.0,0.0,0.0,3.4553,3.3524,0.0,0.0,0.0,0.0,0.0,0.0,0.0,0.0,0.0,0.0,0.0,0.0,0.0,0.0,0.0,0.0,0.0,0.0,0.0,0.0,0.0,0.0,0.0,0.0,0.0,0.0,0.0,0.0,0.0,0.0,0.0,0.0,0.0,0.0,0.0,0.0,0.0,0.0,0.0,0.0,3.4887,3.703,3.8117,3.7343,3.6894,3.6387,3.5742,3.4687,3.3203,3.1269,2.9121,0.0,0.0,0.0,0.0,0.0,0.0,0.0,0.0,0.0,0.0,0.0,0.0,0.0,0.0,0.0,0.0,0.0,0.0,0.0,0.0,0.0,0.0,0.0,0.0,0.0,0.0,0.0,0.0,0.0,0.0,0.0,0.0,0.0,0.0,0.0,0.0,0.0,0.0,0.0,0.0,0.0,0.0,0.0,0.0,0.0,0.0,0.0,0.0,0.0,0.0,0.0,0.0,0.0,3.6667,3.7344,3.7977,3.8239,3.833,3.8147,3.522,3.4841,3.6179,3.5163,0.0,0.0,0.0,0.0,0.0,0.0,0.0,0.0,0.0,0.0,0.0,0.0,0.0,0.0,0.0,0.0,0.0,0.0,0.0,0.0,0.0,0.0,3.4102,3.4106,3.4604,3.4268,3.1146,0.0,0.0,0.0,0.0,0.0,0.0,0.0,0.0,0.0,0.0,0.0,3.5396,3.7234,3.8194,3.7936,3.7617,3.709,3.6274,3.5781,3.4668,3.2765,3.0644,2.9151,0.0,0.0,0.0,0.0,0.0,0.0,0.0,0.0,0.0,0.0,0.0,0.0,0.0,0.0,0.0,0.0,0.0,0.0,0.0,0.0,0.0,0.0,0.0,0.0,0.0,0.0,0.0,0.0,0.0,0.0,0.0,0.0,2.6392,2.7252,0.0,0.0,0.0,0.0,0.0,0.0,0.0,0.0,0.0,0.0,0.0,0.0,0.0,3.5909,3.7448,3.9042,3.9784,3.9694,4.1695,4.2193,4.1419,4.0558,4.0087,3.9895,3.8064,0.0,3.6258,3.7844,0.0,0.0,0.0,0.0,0.0,0.0,0.0,0.0,0.0,0.0,0.0,0.0,0.0,0.0,0.0,0.0,0.0,0.0,0.0,0.0,0.0,0.0,3.716,3.6583,3.5581,3.4536,3.3692,3.2475,3.1318,3.0651,2.9667,0.0,0.0,0.0,0.0,0.0,0.0,0.0,3.5113,3.6911,3.7928,3.791,3.7835,3.7621,3.7168,3.6406,3.5488,3.4434,3.2746,3.1462,3.077,2.8075,0.0,0.0,0.0,0.0,0.0,0.0,0.0,0.0,0.0,0.0,0.0,0.0,0.0,0.0,0.0,0.0,0.0,0.0,0.0,0.0,0.0,0.0,0.0,0.0,0.0,0.0,0.0,0.0,0.0,2.6992,2.8398,2.8093,2.9402,3.0107,0.0,0.0,0.0,0.0,0.0,0.0,0.0,0.0,0.0,3.8267,3.8409,3.8868,3.9641,4.089,4.132,4.0864,4.206,4.2509,4.2237,4.1788,4.155,4.1436,4.0754,3.9867,3.8934,3.8646,3.7288,3.5472,0.0,0.0,0.0,0.0,3.9037,3.8838,4.114,4.1411,4.0544,3.9301,0.0,0.0,0.0,0.0,0.0,0.0,0.0,3.5714,3.5747,3.6306,3.6931,3.7373,3.6966,3.6465,3.6269,3.5104,3.369,3.2398,3.1861,3.1151,2.9648,0.0,0.0,0.0,0.0,3.3589,3.6171,3.7323,3.7991,3.8262,3.8281,3.8125,3.7676,3.709,3.6367,3.5508,3.4062,3.2804,3.1785,2.9841,2.8226,0.0,0.0,0.0,0.0,0.0,0.0,0.0,0.0,0.0,0.0,0.0,0.0,0.0,0.0,0.0,0.0,0.0,0.0,0.0,0.0,0.0,0.0,0.0,0.0,0.0,0.0,0.0,0.0,2.8809,3.0312,2.9238,3.1103,3.1862,0.0,0.0,0.0,0.0,0.0,0.0,3.8844,3.834,3.8732,4.0222,4.0877,4.1257,4.1343,4.2055,4.2104,4.1504,4.1816,4.2129,4.2382,4.2382,4.2382,4.2382,4.2382,4.207,4.1367,3.976,3.8662,3.8039,3.7906,3.7262,3.6798,3.9962,4.085,4.0859,4.365,4.397,4.2841,4.1087,4.0423,3.965,3.6232,0.0,0.0,0.0,0.0,3.55,3.6522,3.6787,3.7109,3.8184,3.8401,3.8401,3.8401,3.75,3.613,3.4245,3.3892,3.3293,3.1402,0.0,0.0,0.0,0.0,3.4369,3.6892,3.7734,3.8164,3.8379,3.8418,3.8242,3.7757,3.748,3.7031,3.6387,3.5234,3.4101,3.3078,3.1719,3.0234,2.8542,0.0,0.0,0.0,0.0,0.0,0.0,0.0,0.0,0.0,0.0,0.0,0.0,0.0,0.0,0.0,0.0,0.0,0.0,0.0,0.0,0.0,0.0,0.0,0.0,0.0,0.0,0.0,0.0,0.0,3.1406,3.2511,0.0,0.0,0.0,0.0,3.6399,3.7492,3.868,4.0228,4.0074,4.0651,4.2132,4.1552,4.1543,4.2346,4.2385,4.2404,4.2323,4.2343,4.2362,4.2382,4.2382,4.2382,4.2382,4.2382,4.2362,4.2346,4.2167,4.0451,3.8114,4.0167,3.9767,3.8331,4.0432,4.1164,4.1363,4.3013,4.2958,4.2482,4.4293,4.2926,4.0465,3.9866,3.8561,0.0,0.0,3.7277,3.8424,3.75,3.8141,3.916,3.9668,3.9805,3.9805,3.9805,3.9082,3.7946,3.6201,3.4903,3.3917,3.334,0.0,3.2858,3.3262,3.4453,3.5619,3.6622,3.7806,3.8398,3.7972,3.7933,3.7793,3.7363,3.7305,3.7285,3.7226,3.6406,3.5703,3.5254,3.3965,3.2461,3.0762,2.9453,0.0,0.0,0.0,0.0,0.0,0.0,0.0,0.0,0.0,0.0,0.0,0.0,0.0,0.0,0.0,0.0,0.0,0.0,0.0,0.0,0.0,0.0,0.0,0.0,0.0,0.0,0.0,0.0,3.3203,3.5531,0.0,3.5614,3.7094,3.8651,3.9936,4.0525,4.1305,4.2456,4.1664,4.1686,4.2781,4.2545,4.2812,4.3691,4.3691,4.3828,4.406,4.406,4.406,4.406,4.406,4.406,4.406,4.406,4.3728,4.3244,4.32,4.2111,4.0466,4.0996,4.0784,4.0409,4.2648,4.3452,4.3559,4.4427,4.4299,4.3739,4.3467,4.1707,3.9766,4.0184,3.9338,3.8132,3.7797,3.8392,3.9082,3.8994,3.9316,3.9687,3.9863,3.9902,3.9902,3.9902,3.9648,3.9238,3.8633,3.7226,3.5742,3.4473,3.4824,3.5092,3.4355,3.5605,3.6836,3.7402,3.8125,3.8552,3.8359,3.8086,3.7816,3.7715,3.7461,3.7187,3.6949,3.6601,3.6113,3.543,3.4941,3.3887,3.2148,3.1387,2.9901,0.0,0.0,0.0,0.0,0.0,0.0,0.0,0.0,0.0,0.0,0.0,0.0,0.0,0.0,0.0,0.0,0.0,0.0,0.0,0.0,0.0,0.0,0.0,0.0,0.0,3.3613,3.5625,3.5248,3.7868,3.9136,3.7685,3.9439,4.1003,4.182,4.2163,4.2729,4.3663,4.3042,4.293,4.3516,4.3652,4.4023,4.4609,4.4609,4.4746,4.4977,4.4977,4.4977,4.4977,4.4977,4.4977,4.4977,4.4977,4.4645,4.416,4.416,4.3652,4.2793,4.1933,4.1601,4.1778,4.3347,4.3917,4.3958,4.4285,4.4285,4.3937,4.2619,4.1221,4.0167,4.0614,4.0138,3.949,3.949,3.9648,3.998,4.043,4.0527,4.0586,4.0723,4.0742,4.0723,4.0566,4.043,4.0293,4.0137,3.9062,3.7812,3.6641,3.7051,3.7226,3.6348,3.709,3.7832,3.8105,3.8398,3.8552,3.8379,3.8105,3.7835,3.7734,3.7324,3.7031,3.6894,3.6519,3.6055,3.5625,3.5176,3.4336,3.3027,3.1905,3.0396,2.8564,0.0,0.0,0.0,0.0,0.0,0.0,0.0,0.0,0.0,0.0,0.0,0.0,0.0,0.0,0.0,0.0,0.0,0.0,0.0,0.0,0.0,0.0,0.0,3.291,3.584,3.7832,3.748,3.9316,4.0235,3.9434,3.9766,4.0547,4.1797,4.2266,4.2871,4.3711,4.418,4.4433,4.4453,4.4863,4.5035,4.5055,4.5055,4.5055,4.5055,4.5055,4.5055,4.5055,4.5098,4.5035,4.5035,4.5035,4.5016,4.4996,4.4996,4.4996,4.4821,4.3123,4.246,4.244,4.246,4.246,4.246,4.246,4.2754,4.2969,4.2109,4.1836,4.1738,4.1387,4.125,4.125,4.125,4.125,4.1348,4.1719,4.1816,4.1914,4.2284,4.2382,4.2265,4.1914,4.1504,4.1074,4.0644,4.0234,3.9941,3.9902,3.9512,3.9219,3.9219,3.8887,0.0,3.863,3.863,3.8418,3.7952,3.7894,3.7718,3.7344,3.6934,3.689,3.7226,3.6094,3.5586,3.5996,3.4785,3.3906,3.3445,3.0937,2.9246,2.8413,0.0,0.0,0.0,0.0,0.0,0.0,0.0,0.0,0.0,0.0,0.0,0.0,0.0,0.0,0.0,0.0,0.0,0.0,0.0,0.0,0.0,3.4316,3.5957,3.5678,3.748,3.9277,4.043,4.1641,4.2402,4.2461,4.2891,4.3301,4.3652,4.4082,4.4372,4.4648,4.4743,4.5137,4.5762,4.5898,4.625,4.6875,4.6875,4.6875,4.6875,4.6875,4.6875,4.6855,4.6543,4.6362,4.6343,4.6094,4.5781,4.5508,4.5508,4.5312,4.4938,4.445,4.4121,4.3887,4.4199,4.4316,4.4235,4.3965,4.3711,4.3437,4.291,4.2519,4.2187,4.2109,4.209,4.209,4.209,4.209,4.2109,4.2226,4.2266,4.2245,4.2362,4.2382,4.2362,4.2285,4.2168,4.1953,4.1523,4.1348,4.0976,4.0059,3.9785,3.9707,3.9707,3.9609,0.0,3.9062,3.9023,3.8867,3.8437,3.8105,3.7835,3.7718,3.7363,3.6914,3.6406,3.6035,3.5762,3.5566,3.5215,3.4824,3.4355,3.2129,3.1088,0.0,0.0,0.0,0.0,0.0,0.0,0.0,0.0,0.0,0.0,0.0,0.0,0.0,0.0,0.0,0.0,0.0,0.0,0.0,0.0,0.0,0.0,3.6914,3.8809,3.9334,4.0215,4.1269,4.2461,4.3359,4.3984,4.4238,4.4512,4.4746,4.4922,4.5312,4.5644,4.5777,4.5996,4.6328,4.6816,4.6836,4.707,4.7623,4.7578,4.7578,4.7578,4.7578,4.7578,4.7578,4.7324,4.7207,4.7187,4.6758,4.6426,4.6191,4.6016,4.5781,4.5527,0.0,0.0,0.0,0.0,4.4977,4.4957,4.4746,4.4473,4.4219,4.3965,4.3711,4.3435,4.3301,4.3242,4.3203,4.3027,4.2832,4.2734,4.291,4.2832,4.2754,4.291,4.2969,4.291,4.2734,4.2695,4.2578,4.2148,4.207,0.0,4.0859,4.0391,4.0156,4.0156,4.0019,3.9805,3.9531,3.9492,3.9394,3.916,3.8906,3.8672,3.8476,3.791,0.0,0.0,0.0,3.5488,3.4863,3.4877,0.0,0.0,0.0,0.0,0.0,0.0,0.0,0.0,3.3883,3.4704,0.0,0.0,0.0,0.0,0.0,0.0,0.0,0.0,0.0,0.0,0.0,0.0,0.0,0.0,0.0,0.0,3.9375,4.1367,4.3008,4.3342,4.3516,4.3887,4.4629,4.5094,4.5192,4.5192,4.543,4.5859,4.623,4.6601,4.6948,4.7363,0.0,0.0,0.0,4.7676,4.7779,4.7779,4.7779,4.7779,4.7779,4.7779,4.7715,4.7676,4.7656,4.7617,4.7187,4.6992,4.6973,4.6601,4.6445,4.6348,4.5449,4.5113,4.5192,4.5094,4.5137,4.5113,4.5074,0.0,0.0,4.4996,4.4977,4.4918,4.459,4.4473,4.4394,4.3965,4.3594,4.3379,4.375,4.3574,4.3398,4.3769,4.3848,4.373,4.332,4.3263,4.3086,4.2598,4.25,4.2363,4.1953,4.1211,4.0606,4.0605,4.0273,4.0019,3.9961,3.9961,3.9941,3.9902,3.9902,0.0,3.9316,3.8496,3.7812,3.7402,3.6211,3.5176,3.4427,3.4446,3.4446,3.4407,3.4446,3.4837,3.5547,3.5644,3.6094,3.6866,3.5759,3.6337,0.0,0.0,0.0,0.0,0.0,0.0,0.0,0.0,0.0,0.0,0.0,0.0,0.0,0.0,0.0,3.8574,4.0937,4.2949,4.4004,4.4746,4.5238,4.5293,4.5449,4.582,4.646,4.6518,4.6738,4.7187,4.7285,4.7363,4.7441,4.7539,4.7734,4.8066,4.8086,4.8262,4.8659,4.8659,4.8659,4.8659,4.8659,0.0,4.864,4.8242,4.8086,4.8066,4.7637,4.7461,4.7441,4.7363,4.7324,4.7207,4.6016,4.5957,4.644,4.5801,4.5762,4.6016,4.5664,4.5547,4.5488,4.5137,4.4977,4.5,4.4922,4.486,0.0,4.4743,4.4707,4.4668,4.4746,4.4707,4.4668,4.4746,4.4723,4.4648,4.4238,4.4141,4.3906,4.3105,4.2949,4.2812,4.2383,4.1894,4.1445,4.1094,4.0976,4.0801,4.0449,4.0372,4.0273,3.9922,3.9902,3.9863,3.9766,3.8965,3.8262,3.7832,3.6934,3.6382,3.6206,3.6484,3.6523,3.6206,3.6538,3.6582,3.646,3.7109,3.7695,3.822,3.7282,3.726,0.0,0.0,0.0,0.0,0.0,0.0,0.0,0.0,0.0,0.0,0.0,3.5331,3.5349,0.0,3.916,4.0859,4.2773,4.4355,4.5234,4.5898,4.623,4.6016,4.6172,4.6562,4.7187,4.7246,4.7344,4.7558,4.7773,4.7891,4.7891,4.8105,4.8366,4.8535,4.8535,4.8633,4.8913,4.8913,4.8913,4.8913,4.8913,4.8913,4.8894,4.8679,4.8535,4.8516,4.8086,4.7891,4.7871,4.7656,4.7715,4.7812,4.6953,4.6894,4.7207,4.6777,4.6758,4.6914,4.6699,4.6621,4.6562,4.6113,4.5933,4.5898,4.5469,4.5351,4.5312,4.5078,4.4977,4.4977,4.4977,4.4977,4.4977,4.4977,4.4977,4.4918,4.4766,4.4551,4.4258,4.3828,4.3555,4.3262,4.2832,4.2578,4.2226,4.1582,4.1484,4.1328,4.0898,4.084,4.0762,4.0566,4.0527,4.0449,4.0234,3.9394,3.8789,3.8574,3.7969,3.7653,3.7653,3.7832,3.793,3.793,3.8144,3.8262,3.8281,3.8926,3.9453,3.9901,3.9648,3.9434,0.0,0.0,0.0,0.0,0.0,0.0,0.0,0.0,3.3963,3.3914,3.5741,3.7557,3.8383,3.9629,4.1133,4.3027,4.4433,4.5547,4.6308,4.6797,4.6953,4.6699,4.6894,4.7226,4.7656,4.7695,4.7734,4.7877,4.8144,4.834,4.834,4.8718,4.8913,4.8913,4.8913,4.8913,4.8913,4.8913,4.8913,4.8913,4.8913,4.8913,4.8913,4.8913,4.8913,4.8894,4.8476,4.834,4.8301,4.7969,4.8027,4.8301,4.7969,4.7832,4.7858,4.7637,4.7578,4.7578,4.7578,4.7578,4.7519,4.7168,4.7051,4.6933,4.625,4.6098,4.5976,4.5625,4.5527,4.5508,4.5367,4.5348,4.5328,4.525,4.5231,4.5211,4.5176,4.4883,4.4629,4.4531,4.4141,4.373,4.3398,4.3262,4.291,4.2051,4.1914,4.1797,4.1465,4.1348,4.1328,4.1328,4.1269,4.0996,4.0566,3.9863,3.9434,3.9336,3.9023,3.8828,3.8828,3.8828,3.9023,3.9453,3.9551,3.9805,4.0273,4.0684,4.1074,4.1426,4.1933,4.1719,2.8555,2.8144,2.8594,3.0165,3.0879,3.1903,0.0,0.0,3.6127,3.7633,3.8798,3.9796,4.0663,4.1895,4.3066,4.4082,4.5332,4.6328,4.6753,4.7226,4.7637,4.7949,4.7715,4.7676,4.8105,4.8144,4.8301,4.8737,4.8796,4.8835,4.8835,4.8874,4.8913,4.8913,4.8913,4.8913,4.8913,4.8913,4.8913,4.8913,4.8913,4.8913,4.8913,4.8913,4.8913,4.8913,4.8855,4.8835,4.8835,4.8776,4.8796,4.8835,4.8776,4.8757,4.8679,4.7897,4.7578,4.7578,4.7578,4.7578,4.7578,4.7519,4.75,4.75,4.7402,4.7408,4.7408,4.7305,4.7305,4.7207,4.6816,4.6674,4.6577,4.625,4.6152,4.6055,4.5683,4.5609,4.541,4.5019,4.4609,4.4316,4.4258,4.3906,4.334,4.244,4.2323,4.2304,4.2245,4.1953,4.1738,4.1738,4.1387,4.0996,4.0566,4.0391,4.0215,3.9844,3.9766,3.9746,3.9746,3.9746,3.9941,4.0371,4.0762,4.1172,4.1582,4.2012,4.2187,4.2305,4.3105,4.3027,3.0849,3.0898,3.1445,3.2187,3.3457,3.4902,3.6426,3.7344,3.8223,3.9453,4.0605,4.1562,4.2168,4.3596,4.4785,0.0,4.6367,4.7187,4.7617,4.7832,4.8008,4.8183,4.8281,4.8444,4.8574,4.864,4.8769,4.9219,4.9258,4.9355,4.9656,4.9676,4.9676,4.9676,4.9375,4.9258,4.9258,4.9031,4.8913,4.8913,4.8913,4.8913,4.8913,4.8913,4.8913,4.8913,4.8913,4.8913,4.8913,4.8913,4.8913,4.8913,4.8913,4.8913,4.8855,4.8503,4.8366,4.8366,4.8366,4.8366,4.8327,4.8027,4.7949,4.7891,4.7656,4.7578,4.7578,4.7578,4.7578,4.7539,4.7363,4.7305,4.7207,4.6777,4.666,4.6562,4.6133,4.584,4.5625,4.5449,4.5058,4.4766,4.4766,4.4394,4.3984,4.3633,4.3125,4.2715,4.2421,4.2226,4.2168,4.2168,4.2012,4.1836,4.1601,4.1601,4.1523,4.1387,4.1367,4.1367,4.1367,4.1367,4.1406,4.1582,4.1816,4.2109,4.2539,4.2969,4.3301,4.3594,4.4199,4.4235,3.2359,3.2871,3.3691,3.4011,3.5762,3.7555,3.8066,3.9082,4.0195,4.1191,4.2129,4.2988,4.3672,4.4922,4.5976,4.6406,4.7187,4.7851,4.8164,4.8203,4.8164,4.8047,4.8203,4.8424,4.8542,4.8874,4.918,4.9465,4.9648,4.9844,5.0156,5.0176,5.0117,5.0,4.9687,4.9473,4.9336,4.907,4.8913,4.8913,4.8913,4.8913,4.8913,4.8913,4.8913,4.8913,4.8913,4.8913,4.8913,4.8913,4.8913,4.8913,4.8913,4.8913,4.8913,4.8913,4.8913,4.8913,4.8913,4.8913,4.8855,4.8496,4.8379,4.832,4.8073,4.7975,4.7975,4.7975,4.7975,4.7955,4.7793,4.7754,4.7637,4.7207,4.7109,4.6992,4.6562,4.623,4.5996,4.5879,4.5508,4.5195,4.5195,4.4844,4.457,4.457,4.4023,4.3418,4.2851,4.2676,4.2518,4.2401,4.2382,4.2382,4.2382,4.2382,4.2382,4.2382,4.2382,4.2382,4.2382,4.2382,4.2499,4.2733,4.2733,4.3047,4.3613,4.3926,4.4238,4.459,4.5,4.5273,3.2454,3.3117,3.4388,3.5625,3.7539,3.9355,4.0234,4.1094,4.209,4.334,4.3633,4.4062,4.5394,4.5976,4.6426,4.6792,4.7617,4.8183,4.8203,4.8203,4.8047,4.7656,4.7246,4.7148,4.7578,4.8769,4.9512,4.9484,4.9922,5.0156,5.0176,5.0176,4.998,4.9523,4.9484,4.9316,4.8933,4.8913,4.8913,4.8913,4.8913,4.8913,4.8913,4.8913,4.8913,4.8913,4.8913,4.8913,4.8913,4.8913,4.8913,4.8913,4.8913,4.8913,4.8913,4.8913,4.8913,4.8913,4.8913,4.8913,4.8913,4.8894,4.8894,4.8874,4.8874,4.8855,4.8855,4.8855,4.8855,4.8776,4.8301,4.8183,4.8086,4.7656,4.7558,4.7441,4.6967,4.685,4.6777,4.6367,4.5937,4.5707,4.5707,4.5293,4.4957,4.4957,4.4938,4.4648,4.3769,4.3301,4.2891,4.244,4.2382,4.2382,4.2382,4.2382,4.2382,4.2382,4.2382,4.2382,4.2382,4.2382,4.2812,4.3652,4.3672,4.4101,4.4918,4.4938,4.4957,4.4977,4.5449,4.5879,3.3811,3.5215,3.6875,3.7871,3.9551,4.1074,4.1621,4.2226,4.2851,4.3555,4.3711,4.3848,4.4277,4.5195,4.6016,4.6445,4.7461,4.8301,4.8594,4.8633,4.8262,4.7266,4.7519,0.0,0.0,4.7637,4.8594,4.9426,4.9922,5.0293,5.0586,5.0859,5.082,5.0391,5.0098,4.9746,4.9297,4.9004,4.8913,4.8913,4.8913,4.8913,4.8913,4.8913,4.8913,4.8913,4.8913,4.8913,4.8913,4.8913,4.8913,4.8913,4.8913,4.8913,4.8913,4.8913,4.8913,4.8913,4.8913,4.8913,4.8913,4.8913,4.8913,4.8913,4.8913,4.8913,4.8913,4.8913,4.8913,4.8874,4.8718,4.8633,4.8535,4.8105,4.7988,4.7871,4.7461,4.7363,4.7226,4.6797,4.6601,4.6426,4.6133,4.5742,4.5351,4.5058,4.4977,4.4879,4.4609,4.4219,4.3906,4.375,4.373,4.373,4.373,4.3984,4.4118,4.4118,4.4118,4.4118,4.4118,4.4118,4.4235,4.457,4.4548,4.4863,4.5449,4.5449,4.5742,4.6245,4.6445,4.6738,3.5793,3.7207,3.8652,3.9844,4.1211,4.2324,4.2598,4.2988,4.3379,4.3652,4.3594,4.3476,4.3476,4.4043,4.4863,4.5918,4.6894,4.7832,4.8776,4.8776,4.8203,4.7026,4.7285,4.7266,0.0,0.0,4.7891,4.9199,4.9844,5.0371,5.0781,5.1211,5.123,5.082,5.0391,4.9961,4.9484,4.9082,4.8913,4.8913,4.8913,4.8913,4.8913,4.8913,4.8913,4.8913,4.8913,4.8913,4.8913,4.8913,4.8913,4.8913,4.8913,4.8913,4.8913,4.8913,4.8913,4.8913,4.8913,4.8913,4.8913,4.8913,4.8913,4.8913,4.8913,4.8913,4.8913,4.8913,4.8913,4.8913,4.8913,4.8913,4.8835,4.8516,4.8437,4.832,4.7891,4.7793,4.7676,4.7246,4.7168,4.7031,4.6601,4.6172,4.5801,4.5527,4.5445,4.5328,4.5016,4.4785,4.4629,4.4629,4.4629,4.4629,4.4629,4.4863,4.4977,4.4977,4.4977,4.4977,4.4977,4.4977,4.5098,4.5254,4.541,4.5683,4.6133,4.6289,4.6641,4.7168,4.7168,4.7402,3.826,3.9004,3.9766,4.1445,4.25,4.3105,4.3105,4.3398,4.3672,4.3652,4.3262,4.2951,0.0,0.0,4.3066,4.5238,4.5996,4.6914,4.8659,4.8496,4.793,0.0,0.0,0.0,0.0,0.0,0.0,4.8776,4.9695,5.0332,5.0742,5.1172,5.1162,5.0781,5.0371,4.9941,4.9445,4.9062,4.8913,4.8913,4.8913,4.8913,4.8913,4.8913,4.8913,4.8913,4.8913,4.8913,4.8913,4.8913,4.8913,4.8913,4.8913,4.8913,4.8913,4.8913,4.8913,4.8913,4.8913,4.8913,4.8913,4.8913,4.8913,4.8913,4.8913,4.8913,4.8913,4.8913,4.8913,4.8913,4.8913,4.8913,4.8913,4.8913,4.8913,4.8796,4.832,4.8242,4.8125,4.7695,4.7598,4.7441,4.6987,4.6641,4.6367,4.6367,4.6367,4.6055,4.5195,4.5035,4.5058,4.5058,4.5058,4.5058,4.5058,4.5035,4.5098,4.5074,4.5074,4.5094,4.5113,4.5113,4.5351,4.5805,4.6172,4.6562,4.6928,4.7383,4.7598,4.7617,4.7637,4.7871,3.9193,4.0566,4.1797,4.2558,4.3144,4.3555,4.3555,4.3379,4.3144,4.2812,4.166,4.0605,4.0254,4.0898,4.1992,4.3537,4.5449,0.0,4.8698,4.8815,0.0,4.7519,0.0,4.7519,4.6928,4.7226,0.0,4.832,4.9199,4.9883,5.0312,5.0742,5.0781,5.0351,4.9922,4.9473,4.907,4.8952,4.8913,4.8913,4.8913,4.8913,4.8913,4.8913,4.8913,4.8913,4.8913,4.8913,4.8913,4.8913,4.8913,4.8913,4.8913,4.8913,4.8913,4.8913,4.8913,4.8913,4.8913,4.8913,4.8913,4.8913,4.8913,4.8913,4.8913,4.8913,4.8913,4.8913,4.8913,4.8913,4.8913,4.8913,4.8913,4.8913,4.8913,4.8874,4.8757,4.8737,4.86,4.8125,4.7793,4.7539,4.7441,4.7324,4.7246,4.7246,4.7246,4.6953,4.6094,4.5703,4.5508,4.5508,4.5508,4.5508,4.5508,4.5801,4.6113,4.6382,4.6401,4.6582,4.6914,4.6933,4.6973,4.709,4.7207,4.7305,4.7422,4.7519,4.7734,4.8047,4.8424,4.8769,4.1055,4.2266,4.3144,4.3769,4.3965,4.3848,4.3281,4.2812,4.2129,4.0742,3.9551,3.8555,3.793,3.8711,4.0195,4.2422,4.4648,4.6738,4.864,4.8913,4.8659,0.0,4.8223,0.0,4.7558,4.7891,4.8242,4.8476,4.8945,4.9433,4.9863,5.0293,5.0508,5.0449,4.9844,4.9316,4.8913,4.8913,4.8913,4.8913,4.8913,4.8913,4.8913,4.8913,4.8913,4.8913,4.8913,4.8913,4.8913,4.8913,4.8913,4.8913,4.8913,4.8913,4.8913,4.8913,4.8913,4.8913,4.8913,4.8913,4.8913,4.8913,4.8913,4.8913,4.8913,4.8913,4.8913,4.8913,4.8913,4.8913,4.8913,4.8913,4.8913,4.8913,4.8913,4.8913,4.8913,4.8913,4.8835,4.8535,4.8144,4.7851,4.7851,4.7695,4.7578,4.7578,4.7578,4.7402,4.6914,4.666,4.6426,4.625,4.6406,4.6504,4.6504,4.6738,4.6973,4.7207,4.7207,4.7324,4.7578,4.7578,4.7578,4.7578,4.7754,4.7851,4.7851,4.8242,4.8555,4.8789,4.9238,4.957,4.3086,4.3789,4.4062,4.4801,4.4668,4.3984,4.2674,4.1914,4.0762,3.8304,3.7324,3.666,3.5976,3.6641,3.8398,4.1757,4.3906,4.6016,4.864,4.8991,4.8828,4.8516,4.8808,4.8933,4.8496,4.8808,4.9089,4.9089,4.9089,4.918,4.9465,4.9883,5.0234,5.0527,4.9824,4.9258,4.8913,4.8913,4.8913,4.8913,4.8913,4.8913,4.8913,4.8913,4.8913,4.8913,4.8913,4.8913,4.8913,4.8913,4.8913,4.8913,4.8913,4.8913,4.8913,4.8913,4.8913,4.8913,4.8972,4.8952,4.8913,4.8913,4.8913,4.8913,4.8913,4.8913,4.8913,4.8913,4.8913,4.8913,4.8913,4.8913,4.8913,4.8913,4.8913,4.8913,4.8913,4.8913,4.8913,4.8913,4.8555,4.8301,4.8301,4.7988,4.7754,4.7754,4.7754,4.7734,4.7676,4.7617,4.7441,4.7051,4.7363,4.7578,4.7578,4.7578,4.7598,4.7656,4.7656,4.7695,4.7754,4.7754,4.7773,4.7832,4.8203,4.8398,4.8476,4.9238,4.9562,4.9629,5.0058,5.0293,4.3496,4.4238,4.4801,4.4938,4.4414,4.3574,4.2596,4.0996,0.0,3.7715,3.5918,3.472,3.4883,3.623,3.8301,4.1406,4.3965,4.6465,4.9043,4.9414,4.9512,0.0,4.9902,4.9922,4.9844,4.9902,4.9941,4.9941,4.9941,4.9824,4.9504,4.959,4.9492,4.9246,4.9089,4.8991,4.8913,4.8913,4.8913,4.8913,4.8913,4.8913,4.8913,4.8913,4.8913,4.8913,4.8913,4.8913,4.8913,4.8913,4.8913,4.8913,4.8913,4.8913,4.8913,4.8913,4.8913,4.8952,4.9277,4.918,4.8913,4.8913,4.8913,4.8913,4.8913,4.8913,4.8913,4.8913,4.8913,4.8913,4.8913,4.8913,4.8913,4.8913,4.8913,4.8913,4.8913,4.8913,4.8913,4.8913,4.8835,4.8796,4.8796,4.8737,4.8679,4.8679,4.8679,4.8542,4.8144,4.7793,4.7558,4.748,4.7539,4.7578,4.7578,4.7578,4.7734,4.8066,4.8105,4.8262,4.8659,4.8679,4.8808,4.918,4.9211,4.9473,4.9844,5.0,5.0058,5.0078,5.0508,5.0879,4.4492,4.5039,4.541,4.5625,4.4863,4.3555,4.1562,3.9766,0.0,3.5176,3.384,3.3098,3.3047,3.4629,3.6719,3.9082,4.1445,4.4062,4.709,4.7715,4.834,4.9687,5.0234,5.041,5.0195,5.0371,5.041,5.0195,5.0176,5.0098,4.9883,4.9863,4.9668,4.9219,4.9199,4.9199,4.9199,4.9011,4.8913,4.8913,4.8913,4.8913,4.8913,4.8913,4.8913,4.8913,4.8913,4.8913,4.8913,4.8913,4.8913,4.8913,4.8913,4.8913,4.8933,4.9121,4.9199,4.9258,4.9707,4.9726,4.9558,4.9277,4.9043,4.8913,4.8913,4.8913,4.8913,4.8913,4.8913,4.8913,4.8913,4.8913,4.8913,4.8913,4.8913,4.8913,4.8913,4.8913,4.8913,4.8913,4.8913,4.8913,4.8913,4.8913,4.8913,4.8913,4.8913,4.8835,4.8574,4.8424,4.8164,4.793,4.8105,4.8288,4.8288,4.8457,4.8672,4.8887,4.9101,4.9336,4.9578,4.9597,4.9648,4.9863,4.9863,4.998,5.0176,5.0625,5.082,5.084,5.1484,5.1914,4.5234,4.5664,4.5859,4.6113,4.5195,4.3457,4.043,3.8594,3.6504,3.2941,3.2061,3.1885,3.168,3.3164,3.5078,3.7109,3.916,4.1758,4.5312,4.6328,4.748,4.9551,5.0469,0.0,5.0488,5.0664,5.0664,5.0332,5.0312,5.0234,5.0039,5.0039,4.9844,4.9394,4.9375,4.9375,4.9375,4.9089,4.8913,4.8913,4.8913,4.8913,4.8913,4.8913,4.8913,4.8913,4.8913,4.8913,4.8913,4.8913,4.8913,4.8913,4.9011,4.905,4.9109,4.9492,4.9668,4.9726,5.0156,5.0254,5.0137,4.9883,4.9433,4.9031,4.8933,4.8913,4.8913,4.8913,4.8913,4.8913,4.8913,4.8913,4.8913,4.8913,4.8913,4.8913,4.8913,4.8913,4.8913,4.8913,4.8913,4.8913,4.8913,4.8913,4.8913,4.8913,4.8913,4.8913,4.8913,4.8913,4.8815,4.8516,4.8789,4.905,4.905,4.9414,4.9668,4.9668,5.0,5.0176,5.0176,5.0176,5.0273,5.0449,5.0449,5.0547,5.0723,5.1387,5.165,5.1719,5.2402,5.2715,4.4941,4.5644,4.6152,4.582,4.4746,4.2969,3.9961,3.7676,3.543,3.2765,3.1573,3.126,3.2003,3.2891,3.446,3.7367,3.9318,4.1816,4.5703,4.7285,4.8691,5.0469,0.0,0.0,5.126,5.0996,5.0781,5.0742,5.0742,5.041,4.9629,4.9543,4.9394,4.8991,4.8972,4.8972,4.8972,4.8933,4.8913,4.8913,4.8913,4.8913,4.8913,4.8913,4.8913,4.8913,4.8913,4.8913,4.8913,4.8913,4.8913,4.8952,4.9297,4.9426,4.9512,4.9961,5.0117,5.0176,5.0605,5.0508,5.0234,5.0586,5.0137,4.9394,4.9031,4.8913,4.8913,4.8913,4.8913,4.8913,4.8913,4.8913,4.8913,4.8913,4.8913,4.8913,4.8913,4.8913,4.8913,4.8913,4.8913,4.8913,4.8913,4.8913,4.8913,4.8913,4.8913,4.8913,4.8913,4.8913,4.905,4.9375,4.9433,4.9426,4.9426,4.9863,5.0117,5.0117,5.0156,5.0176,5.0176,5.0176,5.0527,5.1308,5.126,5.1699,5.248,5.2558,5.2598,5.2598,5.2676,5.2715,4.5078,4.584,4.6269,4.6094,4.4863,4.2851,3.957,3.7363,3.5137,3.2031,3.1133,3.0996,3.1328,3.1875,3.2801,3.4551,3.5625,3.7562,4.1484,4.293,4.4902,4.8437,4.9473,5.0293,5.128,5.1289,5.1172,5.1172,5.1172,5.0918,5.0332,5.0058,4.9844,4.9695,4.9187,4.9031,4.9258,4.9031,4.8913,4.8913,4.8913,4.8088,4.6542,4.6755,4.5998,4.4601,4.6444,4.7192,4.7316,4.8682,4.9258,4.9258,4.916,4.9121,4.9219,4.9922,5.0176,5.0273,5.0957,5.1074,5.0918,5.084,5.0566,5.0215,4.9785,4.9695,4.9695,4.9695,4.9453,4.9258,4.9258,4.9062,4.8913,4.8913,4.8913,4.8913,4.8913,4.8913,4.8913,4.8913,4.8913,4.8913,4.8913,4.8913,4.8913,4.8913,4.8913,4.8913,4.8913,4.8913,4.9023,4.9473,4.9484,4.9629,4.9902,5.0312,5.0547,5.0547,5.0801,5.0937,5.0937,5.0937,5.1211,5.1816,5.1816,5.2109,5.2715,5.2969,5.3105,5.3105,5.3379,5.3496,4.498,4.5879,4.625,4.5996,4.4609,4.2422,3.8984,3.6875,3.4726,3.1543,3.0898,3.0898,3.0898,3.1133,3.166,3.2637,3.3476,3.5273,3.8906,4.0371,4.2519,4.6367,4.7525,4.8594,5.0312,5.0175,5.0026,5.0026,5.0026,5.0309,5.0948,5.0586,4.996,4.9043,4.8385,4.7837,4.7295,4.6997,4.684,4.6728,4.6793,4.5859,4.4025,4.4333,4.388,4.3054,4.5196,4.6549,4.7417,4.905,4.9726,4.9707,4.9512,4.948,4.9558,5.0137,5.0371,5.0449,5.1035,5.125,5.123,5.1035,5.0996,5.0937,5.0644,5.0371,5.0176,5.0176,4.9863,4.9484,4.9484,4.9199,4.8913,4.8913,4.8913,4.8913,4.8913,4.8913,4.8952,4.9023,4.9109,4.9148,4.9265,4.9285,4.9285,4.9285,4.9187,4.9109,4.9109,4.9109,4.9238,4.9668,4.9824,5.0039,5.0332,5.0742,5.0996,5.0996,5.1221,5.1436,5.1621,5.1621,5.1894,5.2441,5.2461,5.2676,5.3105,5.3418,5.3555,5.3574,5.3887,5.3836,4.4453,4.5644,4.6094,4.5211,4.3689,4.1543,3.8086,3.5957,3.3984,3.1426,3.0898,3.0898,3.0898,3.0898,3.1309,3.2578,3.4238,3.6426,3.9473,4.1348,4.3026,4.4801,4.543,4.6387,4.8066,4.7322,4.6739,4.6739,4.6739,4.8115,5.126,5.1035,4.9348,4.6259,4.6144,4.4797,4.208,4.208,4.1949,4.1668,4.1965,4.19,4.1619,4.1932,4.3526,4.6048,4.6096,4.7646,5.0176,5.0176,5.0176,5.0215,5.0625,5.0781,5.0781,5.0801,5.0801,5.0801,5.0801,5.082,5.0879,5.1289,5.1377,5.1377,5.1377,5.084,5.0176,5.0176,4.9863,4.9484,4.9484,4.9199,4.8913,4.8913,4.8913,4.8913,4.8913,4.8913,4.9031,4.9433,4.9465,4.9648,5.0098,5.0176,5.0176,5.0176,4.9785,4.9465,4.9465,4.9465,4.9687,5.0117,5.0547,5.0801,5.0801,5.1172,5.1377,5.1377,5.1377,5.1621,5.2051,5.207,5.248,5.339,5.339,5.3574,5.3972,5.3972,5.3972,5.3972,5.3972,5.3555,4.1172,4.2558,4.3338,4.2187,4.1308,3.9941,3.707,3.5527,3.3965,3.1426,3.0898,3.0898,3.0898,3.0898,3.1504,3.3359,3.4153,3.5449,3.8164,4.0039,4.1952,4.4316,4.7305,4.9512,5.0332,5.0108,4.991,4.991,4.991,5.0327,5.1328,4.9527,4.7858,4.6559,4.624,4.4766,4.2047,4.1998,4.1932,4.1883,4.1949,4.1057,3.9286,3.9574,3.9221,3.8591,4.2521,4.469,4.5734,4.9173,5.0605,5.0586,5.043,5.0371,5.041,5.0703,5.0801,5.084,5.1133,5.123,5.1211,5.1055,5.1191,5.1338,5.1094,5.1016,5.0976,5.0683,5.0293,4.9902,4.9562,4.9414,4.9238,4.8972,4.9101,4.9316,4.9316,4.9551,4.9852,4.9941,4.998,5.0019,5.0156,5.0176,5.0176,5.0176,5.0058,4.998,4.998,4.998,5.0137,5.0566,5.0723,5.0918,5.1211,5.1319,5.1562,5.1855,5.1875,5.207,5.25,5.2519,5.2773,5.339,5.341,5.3574,5.3972,5.3972,5.3972,5.3972,5.3972,5.3711,3.9082,4.0644,4.1484,4.0684,3.9824,3.8555,3.6309,3.4844,3.3398,3.1328,3.0898,3.0898,3.0898,3.0898,3.1387,3.2871,3.3684,3.4896,3.7129,3.9082,4.1308,4.4062,4.7461,4.9031,4.7513,4.7974,4.8324,4.8324,4.8324,4.8786,4.9856,4.8293,4.6346,4.3991,4.3672,4.2208,3.9455,3.9455,3.9884,4.0814,4.0941,4.064,3.9977,4.0268,4.0066,3.9739,4.332,4.5452,0.0,4.9736,5.1035,5.1016,5.0762,5.0644,5.0664,5.0762,5.0801,5.084,5.1113,5.1094,5.0937,5.084,5.0976,5.1172,5.1074,5.1182,5.1319,5.1113,5.0742,5.0351,5.0078,4.9883,4.9707,4.948,4.957,4.9766,4.9766,4.998,5.0215,5.0391,5.041,5.0469,5.0625,5.0644,5.0644,5.0644,5.0508,5.041,5.041,5.041,5.0508,5.0781,5.0957,5.1211,5.1641,5.1475,5.1494,5.1816,5.1992,5.2266,5.2695,5.2871,5.3164,5.3613,5.3613,5.375,5.3972,5.3972,5.3972,5.3972,5.3972,5.3789,0.0,3.9394,4.0078,3.9962,3.8752,3.7168,3.5527,3.3906,0.0,3.1152,3.0898,3.0898,3.0937,3.0918,3.1074,3.1621,3.3086,3.4733,3.6292,3.8547,4.1172,4.4394,4.6386,4.5833,4.1607,4.246,4.3318,4.3318,4.3318,4.443,4.6968,4.6918,4.448,3.9477,3.9115,3.7794,3.5191,3.5177,3.6402,3.8777,3.9061,4.0501,4.2857,4.312,4.4647,4.7081,4.7316,4.8786,5.1134,5.1328,5.1377,5.1377,5.1377,5.1377,5.1338,5.0996,5.0859,5.084,5.082,5.0547,5.0293,5.0683,5.0781,5.084,5.124,5.1358,5.1338,5.1377,5.1133,5.0801,5.0801,5.0508,5.0215,5.0243,5.0195,5.0215,5.0215,5.0254,5.0391,5.0781,5.0859,5.0976,5.1319,5.1377,5.1377,5.1377,5.1094,5.0859,5.0859,5.0859,5.0859,5.0859,5.1191,5.1601,5.2051,5.1719,5.1504,5.1514,5.1953,5.2363,5.2793,5.3183,5.3613,5.3972,5.3972,5.3972,5.3972,5.3972,5.3972,5.3972,5.3972,5.3808,3.3476,0.0,3.584,3.4844,3.4551,3.4167,0.0,3.2648,3.2081,3.1094,3.0898,3.0996,3.1309,3.1113,3.1465,3.3215,3.4375,3.5042,3.4818,3.8361,4.28,4.7729,4.7479,4.6622,4.5917,4.4277,4.3318,4.3318,4.3318,4.3571,4.4228,4.2318,4.0646,3.9322,3.7235,3.5862,3.5204,3.4977,3.6142,3.8674,3.851,3.9775,4.2229,4.264,4.3223,4.394,4.6328,4.778,4.849,5.0559,5.1377,5.1377,5.1377,5.1377,5.1377,5.128,5.1289,5.1182,5.0918,5.0742,5.0664,5.0781,5.0586,5.0469,5.1162,5.1211,5.1016,5.1299,5.1133,5.0801,5.0801,5.0723,5.0586,5.0254,5.043,5.0664,5.0664,5.0898,5.1172,5.1221,5.1289,5.126,5.1358,5.1377,5.1377,5.1377,5.1299,5.1289,5.1289,5.1289,5.1289,5.1289,5.1319,5.1601,5.2051,5.1992,5.2207,5.2921,5.3058,5.3262,5.3711,5.3828,5.3926,5.3972,5.3972,5.3972,5.3972,5.3972,5.3972,5.3972,5.3972,5.3965,3.1523,3.2812,3.4043,3.375,3.3535,3.3301,3.2851,3.2285,3.168,3.1035,3.0898,3.0957,3.1191,3.1211,3.1621,3.3019,3.3492,3.4376,3.6299,3.8494,4.2308,4.8722,4.6755,4.5036,4.5468,4.3065,4.1451,4.1451,4.1451,4.1451,4.1451,4.008,3.8715,3.7444,3.5967,3.5137,3.5004,3.4895,3.6055,3.8502,3.9771,4.1746,4.4291,4.5925,4.6695,4.6762,4.8497,4.9248,4.9346,5.0822,5.1377,5.1377,5.1377,5.1377,5.1377,5.1377,5.1377,5.1319,5.0957,5.0683,5.0527,5.0527,5.0488,5.0586,5.1182,5.1269,5.1133,5.1319,5.1221,5.1094,5.1094,5.1094,5.1035,5.0801,5.0918,5.1094,5.1094,5.1269,5.1377,5.1377,5.1377,5.1377,5.1377,5.1377,5.1377,5.1377,5.1377,5.1504,5.1699,5.1514,5.1533,5.1923,5.1855,5.1992,5.2617,5.2725,5.2843,5.3047,5.3292,5.3527,5.3711,5.3926,5.3972,5.3972,5.3972,5.3972,5.3972,5.3972,5.3972,5.3972,5.3972,5.3972,3.1133,3.2285,3.3535,3.4004,3.3613,3.3074,3.3016,3.2177,3.1328,3.0957,3.0898,3.0937,3.1055,3.1426,3.1894,3.2492,3.2151,3.3785,3.9465,3.894,4.0737,4.8109,4.4958,4.2333,4.2677,4.0235,3.8663,3.8663,3.9063,3.9115,3.8715,3.9477,3.8663,3.5914,3.6216,3.6325,3.6021,3.5218,3.6023,3.8399,4.1361,4.42,4.6893,4.9931,5.128,5.1299,5.1358,5.1377,5.1377,5.1377,5.1377,5.1377,5.1377,5.1377,5.1377,5.1377,5.1377,5.1319,5.0957,5.0488,5.0098,5.0234,5.0508,5.0879,5.126,5.1377,5.1377,5.1377,5.1377,5.1377,5.1377,5.1377,5.1377,5.1377,5.1377,5.1377,5.1377,5.1377,5.1377,5.1377,5.1436,5.1455,5.1397,5.1494,5.1553,5.1543,5.1582,5.1758,5.2129,5.1855,5.1894,5.2637,5.2383,5.25,5.3331,5.341,5.3292,5.293,5.3262,5.3507,5.3507,5.3828,5.3972,5.3972,5.3972,5.3972,5.3972,5.3972,5.3972,5.3972,5.3972,5.4011,3.2207,3.2949,3.3074,3.1797,3.1641,3.1719,3.1367,3.1133,3.0976,3.0898,3.0898,3.1143,3.1866,3.2324,3.2969,3.4121,3.3251,3.5111,4.3044,3.9722,3.9016,4.582,4.2606,3.988,3.9926,3.7444,3.5809,3.5809,3.8002,3.8248,3.5967,4.0183,4.1451,3.8767,4.0887,4.1938,4.1636,3.7077,3.5971,3.8248,4.102,4.366,4.6301,4.9444,5.0898,5.0918,5.1221,5.1377,5.1377,5.1377,5.1377,5.1377,5.1377,5.1377,5.1377,5.1377,5.1377,5.1319,5.0957,5.0293,4.9746,5.0469,5.0762,5.0879,5.126,5.1377,5.1377,5.1377,5.1377,5.1377,5.1377,5.1377,5.1377,5.1377,5.1377,5.1377,5.1377,5.1377,5.1377,5.1377,5.1719,5.1855,5.1455,5.2031,5.2383,5.2031,5.2285,5.2539,5.2598,5.2558,5.2558,5.2695,5.2656,5.2812,5.3371,5.341,5.3496,5.3758,5.3887,5.3926,5.3926,5.3984,5.3972,5.3972,5.3972,5.3972,5.3972,5.3972,5.3972,5.3972,5.3972,5.4219,3.1601,3.207,3.2333,3.2285,3.2754,3.3125,3.2715,3.2246,3.1914,3.1914,3.1738,3.1866,3.2695,3.3594,3.4649,3.5997,3.6326,3.8153,4.3023,3.9582,3.8925,4.5318,4.0771,3.7652,3.9166,3.6831,3.5191,3.5191,3.6373,3.7183,3.7391,3.9771,4.1246,4.1451,4.2659,4.3187,4.289,4.056,3.9745,4.0508,4.3384,4.5358,4.6633,4.974,5.1133,5.1152,5.1299,5.1377,5.1377,5.1377,5.1377,5.1377,5.1377,5.1377,5.1377,5.1377,5.124,5.1074,5.0879,5.0547,5.0273,5.0683,5.0957,5.1172,5.1319,5.1377,5.1377,5.1377,5.1377,5.1377,5.1377,5.1377,5.1377,5.1377,5.1377,5.1455,5.1738,5.1601,5.1514,5.2031,5.2109,5.209,5.2109,5.2441,5.2637,5.2461,5.2578,5.2793,5.3027,5.2851,5.2891,5.3379,5.3203,5.3242,5.3691,5.373,5.3808,5.3972,5.3972,5.3972,5.3972,5.3972,5.3972,5.3972,5.3972,5.3972,5.3972,5.3972,5.4141,5.4375,5.4375,5.4609,3.1406,3.1641,3.209,3.3281,3.3848,3.418,3.4473,3.3789,3.3184,3.3496,3.3223,3.3176,3.3887,3.5351,3.6945,3.8559,3.9153,4.0215,4.2508,3.9015,3.8225,4.3619,3.9479,3.6726,3.821,3.76,3.6831,3.6216,3.7339,3.8715,4.0183,4.1451,4.2811,4.4228,4.4883,4.5096,4.487,4.5096,4.4308,4.2575,4.5586,4.7013,4.7129,5.0064,5.1377,5.1377,5.1377,5.1377,5.1377,5.1377,5.1377,5.1377,5.1377,5.1377,5.1377,5.1377,5.1172,5.082,5.0918,5.0879,5.082,5.0918,5.1172,5.1377,5.1377,5.1377,5.1377,5.1377,5.1377,5.1377,5.1377,5.1377,5.1377,5.1377,5.1455,5.168,5.2012,5.1894,5.1933,5.2578,5.2539,5.2461,5.2676,5.2891,5.2988,5.2871,5.2949,5.3144,5.3476,5.3223,5.3281,5.3914,5.373,5.3652,5.3953,5.3972,5.3972,5.3972,5.3972,5.3972,5.3972,5.3972,5.3972,5.3972,5.4141,5.418,5.418,5.4277,5.4512,5.4824,5.4824,5.5058,3.2879,3.2969,3.291,3.384,3.3215,3.3,3.5332,3.4902,0.0,3.5547,0.0,3.5293,3.5708,3.7891,4.0255,4.2359,4.0175,3.9492,4.3095,3.8144,3.5276,3.8404,3.8917,3.8106,3.5704,3.9874,4.169,3.9166,4.3673,4.5502,4.3115,4.778,4.9493,4.7167,4.9512,5.0803,5.0784,5.0803,4.8122,4.2907,4.5942,4.7379,4.7428,5.0149,5.1377,5.1377,5.1377,5.1377,5.1377,5.1377,5.1377,5.1377,5.1377,5.1377,5.1377,5.1377,5.1172,5.0859,5.125,5.1133,5.0859,5.1269,5.1358,5.1377,5.1377,5.1377,5.1377,5.1377,5.1377,5.1377,5.1377,5.1377,5.1377,5.1377,5.1738,5.2051,5.207,5.2363,5.2637,5.2695,5.3008,5.3195,5.2773,5.3398,5.3789,5.3429,5.3672,5.3945,5.3933,5.3914,5.3914,5.3972,5.3953,5.3953,5.3972,5.3972,5.3972,5.3972,5.3972,5.3972,5.3972,5.3972,5.3972,5.3972,5.4433,5.4629,5.4629,5.5019,5.5234,5.5254,5.5254,5.5488,3.2079,3.2324,3.2843,3.4473,3.4564,0.0,0.0,3.6695,3.7203,3.8223,3.8066,0.0,3.834,4.0098,4.1456,4.1463,4.154,4.1608,4.1723,4.0173,3.8836,3.8283,4.033,4.0733,3.8002,4.1144,4.2862,4.1844,4.3673,4.5151,4.5803,4.778,4.9199,4.9856,5.0871,5.1377,5.1377,5.1377,5.0336,4.8201,4.932,4.9904,4.9904,5.092,5.1377,5.1377,5.1377,5.1377,5.1377,5.1377,5.1377,5.1377,5.1377,5.1377,5.1377,5.1377,5.128,5.1162,5.1319,5.128,5.123,5.1338,5.1377,5.1377,5.1377,5.1377,5.1377,5.1377,5.1377,5.1377,5.1377,5.1377,5.1455,5.1777,5.1973,5.2226,5.2804,5.2793,5.2871,5.3418,5.3437,5.3398,5.3516,5.3758,5.3965,5.3808,5.3926,5.3972,5.3972,5.3972,5.3972,5.3972,5.3972,5.3972,5.3972,5.3972,5.3972,5.3972,5.3972,5.3972,5.3972,5.3972,5.416,5.4433,5.459,5.4805,5.5058,5.5234,5.5449,5.5703,5.5703,5.5937,3.1562,3.1641,3.2257,3.4101,3.4883,0.0,3.7144,3.7795,3.8612,4.051,4.043,3.9927,3.951,4.0555,4.1047,3.9849,4.0593,4.0889,3.9643,3.9612,3.9023,3.72,3.9974,4.099,3.8262,4.1152,4.2849,4.2099,4.3406,4.5142,4.7316,4.8066,4.938,5.1328,5.1377,5.1377,5.1377,5.1377,5.1377,5.1377,5.1377,5.1377,5.1377,5.1377,5.1377,5.1377,5.1377,5.1377,5.1377,5.1377,5.1377,5.1377,5.1377,5.1377,5.1377,5.1377,5.1377,5.1377,5.1377,5.1377,5.1377,5.1377,5.1377,5.1377,5.1377,5.1377,5.1377,5.1377,5.1377,5.1416,5.1601,5.1641,5.1738,5.2168,5.2383,5.2637,5.3292,5.3242,5.3301,5.3855,5.3789,5.3672,5.3933,5.3972,5.3972,5.3972,5.3972,5.3972,5.3972,5.3972,5.3972,5.3972,5.3972,5.3972,5.3972,5.3972,5.3972,5.3972,5.416,5.418,5.3992,5.416,5.4375,5.4668,5.4941,5.5215,5.5508,5.5644,5.5859,5.6133,5.6133,5.6308,3.1641,3.123,3.1211,3.25,3.3789,3.5527,3.8535,3.8062,3.8104,4.2289,4.2422,4.1163,3.8952,3.9017,3.9074,3.8091,3.6977,3.6438,3.7143,3.5565,3.4322,3.4322,3.7266,3.8248,3.5493,3.9877,4.1932,3.9483,4.3653,4.6633,4.7379,4.9574,5.0996,5.1358,5.1377,5.1377,5.1377,5.1377,5.1377,5.1377,5.1377,5.1377,5.1377,5.1377,5.1377,5.1377,5.1377,5.1377,5.1377,5.1377,5.1377,5.1377,5.1377,5.1377,5.1377,5.1377,5.1377,5.1377,5.1377,5.1377,5.1377,5.1377,5.1377,5.1377,5.1377,5.1377,5.1377,5.1377,5.1397,5.1494,5.1973,5.209,5.2207,5.2617,5.3047,5.341,5.341,5.3711,5.3972,5.3972,5.3972,5.3972,5.3972,5.3972,5.3972,5.3972,5.3972,5.3972,5.3972,5.3972,5.3972,5.3972,5.3972,5.3972,5.3972,5.3972,5.3972,5.3992,5.4433,5.4492,5.4062,5.4453,5.4687,5.4687,5.5508,5.5885,5.5885,5.6367,5.6582,5.6582,5.6582,5.6582,3.1641,3.1875,3.2617,3.4219,3.6035,3.8144,4.0859,4.1089,4.1558,4.4346,4.4453,4.366,4.2384,4.1331,4.0043,3.8184,3.7086,3.6027,3.4764,3.6055,3.6453,3.4514,3.8917,4.0947,3.8031,4.0892,4.2524,4.1527,4.4448,4.6525,4.7031,4.9185,5.0547,5.0976,5.0703,5.0683,5.0996,5.0996,5.1133,5.1377,5.1377,5.1377,5.1377,5.1377,5.1377,5.1377,5.1377,5.1377,5.1377,5.1377,5.1377,5.1377,5.1377,5.1377,5.1377,5.1377,5.1377,5.1377,5.1377,5.1377,5.1377,5.1377,5.1377,5.1377,5.1377,5.1377,5.1377,5.1377,5.166,5.1992,5.2402,5.2754,5.3058,5.3144,5.3312,5.3507,5.3769,5.3945,5.3972,5.3972,5.3972,5.3972,5.3972,5.3972,5.3972,5.3972,5.3972,5.3972,5.3972,5.3972,5.3972,5.3972,5.3972,5.3972,5.3972,5.3972,5.416,5.4473,5.4609,5.4629,5.4492,5.4902,5.5254,5.5566,5.5748,5.6041,5.6387,5.6523,5.6582,5.6582,5.6582,5.6582,3.2012,3.2656,3.3711,3.5469,3.7383,3.9366,4.1439,4.2159,4.29,4.4618,4.4441,4.3571,4.2168,4.0982,3.9228,3.6083,3.5353,3.4752,3.356,3.5266,3.5978,3.434,3.7462,3.8996,3.7198,3.8412,3.9361,3.9372,4.259,4.4717,4.5209,4.8418,5.0293,5.0547,5.0312,5.0293,5.0547,5.0723,5.0937,5.1143,5.1299,5.1377,5.1377,5.1377,5.1377,5.1377,5.1377,5.1377,5.1377,5.1377,5.1377,5.1377,5.1377,5.1377,5.1377,5.1377,5.1377,5.1377,5.1377,5.1377,5.1377,5.1377,5.1377,5.1377,5.1377,5.1377,5.1377,5.1377,5.1738,5.2187,5.2598,5.3027,5.3449,5.3574,5.3633,5.3691,5.3965,5.3972,5.3972,5.3972,5.3972,5.3972,5.3972,5.3972,5.3972,5.3972,5.3972,5.3972,5.3972,5.3972,5.3972,5.3972,5.3972,5.3972,5.3972,5.3972,5.4219,5.4648,5.4844,5.5,5.5176,5.543,5.5631,5.5885,5.6113,5.6328,5.6582,5.6582,5.6582,5.6582,5.6582,5.6582,3.2637,3.3516,3.4662,3.6538,3.8398,4.0048,4.1129,4.2003,4.2847,4.3713,4.3361,4.2317,4.0322,3.9611,3.7905,3.3591,3.3176,3.3404,3.3424,3.3681,3.3881,3.3881,3.4148,3.4309,3.4282,3.4042,3.4197,3.4952,3.9174,4.2112,4.2957,4.7498,5.0125,5.0117,5.0078,5.0078,5.0117,5.0488,5.0559,5.0406,5.0988,5.1182,5.1027,5.126,5.1377,5.1377,5.1377,5.1377,5.1377,5.1377,5.1377,5.1377,5.1377,5.1377,5.1377,5.1377,5.1377,5.1377,5.1377,5.1377,5.1377,5.1377,5.1377,5.1377,5.1377,5.1377,5.1397,5.1436,5.1797,5.2246,5.2656,5.3086,5.3566,5.3926,5.3972,5.3972,5.3972,5.3972,5.3972,5.3972,5.3972,5.3972,5.3972,5.3972,5.3972,5.3972,5.3972,5.3972,5.3972,5.3972,5.3972,5.3972,5.3972,5.3992,5.4082,5.4031,5.4297,5.4765,5.5156,5.5547,5.5924,5.5943,5.5943,5.5943,5.6387,5.6582,5.6582,5.6582,5.6582,5.6582,5.6582,5.6582,3.3113,3.418,3.5762,3.8516,4.1758,4.4014,4.295,4.336,4.3928,4.3784,4.5469,4.6708,4.5958,4.438,4.2219,3.9163,3.7393,3.5662,3.3687,3.3681,3.3881,3.3881,3.4148,3.4229,3.4002,3.3921,3.4725,3.6647,3.9605,4.2437,4.4917,4.7677,4.9297,4.9648,4.9316,4.9316,4.9668,4.9766,4.8928,4.7275,4.9445,4.956,4.7962,5.0308,5.1377,5.1377,5.1377,5.1377,5.1377,5.1377,5.1377,5.1377,5.1377,5.1377,5.1377,5.1377,5.1377,5.1377,5.1377,5.1377,5.1377,5.1377,5.1377,5.1377,5.1377,5.1377,5.1504,5.1855,5.2246,5.2676,5.3105,5.3555,5.3906,5.3953,5.3972,5.3972,5.3972,5.3972,5.3972,5.3972,5.3972,5.3972,5.3972,5.3972,5.3972,5.3972,5.3972,5.3972,5.3972,5.3972,5.3972,5.3972,5.3972,5.416,5.4512,5.4531,5.4863,5.5625,5.5689,5.5996,5.6426,5.6445,5.6445,5.6445,5.6543,5.6582,5.6582,5.6582,5.6582,5.6582,5.6582,5.6582,3.3965,3.5469,3.748,4.1133,4.4023,4.5516,4.3796,4.3928,4.4389,4.4325,4.5575,4.6613,4.6406,4.4458,4.2002,3.9371,3.6981,3.4969,3.36,3.3547,3.3654,3.3654,3.3788,3.3828,3.3668,3.4784,3.6091,3.7387,4.1129,4.4027,4.552,4.8092,4.9461,4.9219,4.918,4.918,4.9199,4.9414,4.8952,4.7844,4.9423,4.9703,4.8842,5.0581,5.1377,5.1377,5.1377,5.1377,5.1377,5.1377,5.1377,5.1377,5.1377,5.1377,5.1377,5.1377,5.1377,5.1377,5.1377,5.1377,5.1377,5.1377,5.1377,5.1377,5.1377,5.1582,5.1797,5.2012,5.2539,5.3066,5.3351,5.3691,5.3972,5.3972,5.3972,5.3972,5.3972,5.3972,5.3972,5.3972,5.3972,5.3972,5.3972,5.3972,5.3972,5.3972,5.3972,5.3972,5.3972,5.4219,5.4336,5.4336,5.4512,5.4726,5.4961,5.498,5.5254,5.5845,5.5885,5.6133,5.6562,5.6582,5.6582,5.6582,5.6582,5.6582,5.6582,5.6582,5.6582,5.6582,5.6582,5.6582,3.4531,3.6836,3.9531,4.3418,4.5469,4.6017,4.4124,4.4126,4.4587,4.4912,4.4984,4.5126,4.5614,4.3594,4.0995,3.8392,3.5783,3.39,3.3464,3.3414,3.3414,3.3414,3.3414,3.355,3.4037,3.603,3.7746,3.8858,4.3073,4.5716,4.6049,4.8576,4.9656,4.8933,4.9219,4.9238,4.8913,4.9219,4.9161,4.872,4.9211,4.9854,5.0605,5.1094,5.1319,5.1377,5.1377,5.1377,5.1377,5.1377,5.1377,5.1377,5.1377,5.1377,5.1377,5.1377,5.1377,5.1377,5.1377,5.1377,5.1377,5.1377,5.1377,5.1377,5.1377,5.1738,5.209,5.2168,5.2804,5.3429,5.3507,5.375,5.3972,5.3972,5.3972,5.3972,5.3972,5.3972,5.3972,5.3972,5.3972,5.3972,5.3972,5.3972,5.3972,5.3972,5.4101,5.4141,5.4141,5.4512,5.4785,5.4785,5.5098,5.5332,5.541,5.541,5.5586,5.5963,5.6055,5.6211,5.6562,5.6582,5.6582,5.6582,5.6582,5.6582,5.6582,5.6582,5.6582,5.6582,5.6582,5.6582,3.388,3.7695,4.1777,4.3887,4.5918,4.6774,4.4252,4.4325,4.4912,4.4966,4.4984,4.5708,4.7976,4.6242,4.3642,4.1091,3.849,3.5981,3.37,3.3414,3.3414,3.3414,3.3414,3.4286,3.6559,3.7085,3.9188,4.3712,4.4678,4.6082,4.8324,4.8865,4.9031,4.8913,4.8952,4.8972,4.8913,4.8972,4.7821,4.5611,4.6079,4.7496,4.9679,5.0527,5.1094,5.1377,5.1377,5.1377,5.1377,5.1377,5.1377,5.1377,5.1377,5.1377,5.1377,5.1377,5.1377,5.1377,5.1377,5.1377,5.1377,5.1377,5.1377,5.1377,5.1377,5.1738,5.2148,5.2519,5.2988,5.3507,5.3848,5.3984,5.3972,5.3972,5.3972,5.3972,5.3972,5.3972,5.3972,5.3972,5.3972,5.3972,5.3972,5.3972,5.3972,5.3972,5.4355,5.459,5.459,5.4961,5.5215,5.5215,5.5273,5.5449,5.5767,5.5787,5.6035,5.6465,5.6504,5.6523,5.6582,5.6582,5.6582,5.6582,5.6582,5.6582,5.6582,5.6582,5.6582,5.6582,5.6582,5.6582,3.5698,3.9316,4.2637,4.4629,4.5255,4.5493,4.583,4.3175,4.1907,4.6289,4.489,4.4116,4.8134,4.6775,4.4163,4.162,3.9026,3.6411,3.375,3.3414,3.3414,3.3414,3.467,3.603,3.7183,3.9932,4.2577,4.4843,4.6383,4.7698,4.8848,4.9101,4.9121,4.8913,4.9101,4.9121,4.8913,4.8913,4.832,4.7214,4.7403,4.8211,4.9504,5.0176,5.0683,5.1094,5.128,5.1377,5.1377,5.1377,5.1377,5.1377,5.1377,5.1377,5.1377,5.1377,5.1377,5.1377,5.1377,5.1377,5.1377,5.1377,5.1377,5.1377,5.1377,5.1894,5.2461,5.2656,5.3203,5.3789,5.3933,5.3972,5.3972,5.3972,5.3972,5.3972,5.3972,5.3972,5.3972,5.3972,5.3972,5.3972,5.3972,5.4238,5.4394,5.4394,5.4765,5.5039,5.5039,5.539,5.5664,5.5664,5.5879,5.6094,5.6289,5.6308,5.6387,5.6582,5.6582,5.6582,5.6582,5.6582,5.6582,5.6582,5.6582,5.6582,5.6582,5.6582,5.6582,5.6582,5.6582,5.6582,3.6113,3.916,4.166,4.3965,4.4277,4.4636,4.6921,4.3082,4.0976,4.752,4.5332,4.3547,4.8088,4.6775,4.4163,4.162,3.9026,3.6376,3.375,3.3414,3.3414,3.3414,3.5684,3.7576,3.8246,4.2338,4.5267,4.5943,4.7791,4.8913,4.8913,4.918,4.9199,4.8913,4.918,4.9199,4.8913,4.8913,4.8913,4.8913,4.8913,4.907,4.9375,4.9824,5.0234,5.0683,5.1211,5.1377,5.1377,5.1377,5.1377,5.1377,5.1377,5.1377,5.1377,5.1377,5.1377,5.1377,5.1377,5.1377,5.1377,5.1377,5.1377,5.1397,5.1562,5.2109,5.2734,5.2851,5.3437,5.3972,5.3972,5.3972,5.3972,5.3972,5.3972,5.3972,5.3972,5.3972,5.3972,5.3972,5.3972,5.4011,5.418,5.4473,5.4707,5.4824,5.5195,5.5469,5.5469,5.584,5.6094,5.6094,5.6387,5.6582,5.6582,5.6582,5.6582,5.6582,5.6582,5.6582,5.6582,5.6582,5.6582,5.6582,5.6582,5.6582,5.6582,5.6582,5.6582,5.6582,5.6582,5.6582,3.3184,3.5586,3.8184,4.08,4.3219,4.5297,4.6635,4.5413,4.4971,4.8242,4.6728,4.5661,4.8366,4.6775,4.4163,4.162,3.8993,3.6391,3.375,3.3414,3.3414,3.3414,3.5684,3.8246,4.0754,4.3404,4.6055,4.8524,4.8801,4.8913,4.8913,4.8933,4.8933,4.8913,4.8933,4.8933,4.8913,4.8913,4.8913,4.8913,4.8913,4.8913,4.8952,4.9355,4.9805,5.0254,5.1074,5.1377,5.1377,5.1377,5.1377,5.1377,5.1377,5.1377,5.1377,5.1377,5.1377,5.1377,5.1377,5.1377,5.1377,5.1377,5.1377,5.1455,5.1914,5.2363,5.2793,5.3253,5.3672,5.3972,5.3972,5.3972,5.3972,5.3972,5.3972,5.3972,5.3972,5.3972,5.3972,5.3972,5.3972,5.416,5.457,5.4668,5.4824,5.5215,5.5625,5.5845,5.5845,5.6289,5.6543,5.6543,5.6582,5.6582,5.6582,5.6582,5.6582,5.6582,5.6582,5.6582,5.6582,5.6582,5.6582,5.6582,5.6582,5.6582,5.6582,5.6582,5.6582,5.6582,5.6582,5.6582,3.3379,3.5332,3.7519,4.0117,4.1024,4.2054,4.5004,4.3514,4.2819,4.7496,4.6634,4.5802,4.8412,4.8134,4.6635,4.4069,4.1476,3.888,3.6263,3.4471,3.4,3.5713,3.8212,4.0802,4.3387,4.599,4.7883,4.8801,4.8913,4.8913,4.8913,4.8913,4.8913,4.8913,4.8913,4.8913,4.8913,4.8913,4.8913,4.8913,4.8913,4.8913,4.8913,4.9316,4.9766,5.0215,5.0781,5.1172,5.1377,5.1377,5.1377,5.1377,5.1377,5.1377,5.1377,5.1377,5.1377,5.1377,5.1377,5.1377,5.1436,5.1758,5.1855,5.1933,5.2363,5.2793,5.3164,5.3371,5.3691,5.3972,5.3972,5.3972,5.3972,5.3972,5.3972,5.3972,5.3972,5.3972,5.3972,5.3972,5.4258,5.4492,5.4648,5.5137,5.5449,5.5332,5.5898,5.625,5.5924,5.6308,5.6582,5.6582,5.6582,5.6582,5.6582,5.6582,5.6582,5.6582,5.6582,5.6582,5.6582,5.6582,5.6582,5.6582,5.6582,5.6582,5.6582,5.6582,5.6582,5.6582,5.6582,5.6582,3.2276,3.3958,3.6035,3.8769,3.8974,3.973,4.421,4.3158,4.2496,4.723,4.7094,4.6653,4.8532,4.8913,4.8023,4.5408,4.2863,4.0271,3.7674,3.5054,3.405,3.5798,3.831,4.0561,4.2243,4.4796,4.6682,4.7512,4.7605,4.7976,4.8848,4.8913,4.8913,4.8913,4.8913,4.8913,4.8913,4.8913,4.8913,4.8913,4.8913,4.8913,4.8913,4.9316,4.9766,5.0195,5.0625,5.1035,5.1377,5.1377,5.1377,5.1377,5.1377,5.1377,5.1377,5.1377,5.1377,5.1377,5.1377,5.1377,5.1504,5.1933,5.209,5.2187,5.2754,5.3125,5.3449,5.3535,5.3808,5.3972,5.3972,5.3972,5.3972,5.3972,5.3972,5.3972,5.3972,5.3972,5.4082,5.4219,5.4473,5.4765,5.5058,5.5566,5.5845,5.5762,5.6211,5.6484,5.6191,5.6406,5.6582,5.6582,5.6582,5.6582,5.6582,5.6582,5.6582,5.6582,5.6582,5.6582,5.6582,5.6582,5.6582,5.6582,5.6582,5.6582,5.6582,5.6582,5.6582,5.6582,5.6582,5.6582,0.0,0.0,0.0,3.6426,3.7187,3.8672,4.4199,4.4473,4.4433,4.7461,4.806,4.817,4.875,4.8848,4.7976,4.552,4.2959,4.0416,3.7772,3.5153,3.3514,3.3514,3.5734,3.7331,3.7429,3.969,4.226,4.4832,4.5002,4.6149,4.8755,4.8913,4.8913,4.8913,4.8913,4.8913,4.8913,4.8913,4.8913,4.8913,4.8913,4.8913,4.8933,4.9336,4.9766,5.0215,5.0625,5.1035,5.1377,5.1377,5.1377,5.1377,5.1377,5.1377,5.1377,5.1377,5.1377,5.1377,5.1377,5.1397,5.1523,5.1953,5.2109,5.2285,5.3175,5.3429,5.3527,5.3906,5.3972,5.3972,5.3972,5.3972,5.3992,5.3992,5.3992,5.3992,5.4011,5.4011,5.418,5.4609,5.4707,5.498,5.5801,5.5885,5.6094,5.6504,5.6562,5.6562,5.6562,5.6562,5.6562,5.6582,5.6582,5.6582,5.6582,5.6582,5.6582,5.6582,5.6582,5.6601,5.6601,5.6601,5.6601,5.6601,5.6601,5.6601,5.6582,5.6582,5.6582,5.6582,5.6582,5.6601,2.9598,0.0,0.0,0.0,0.0,0.0,3.9355,4.0254,4.1406,4.4766,4.4195,4.4212,4.7748,4.7145,4.6476,4.7651,4.5661,4.3054,4.0464,3.787,3.6214,3.6214,3.6839,3.805,3.9932,4.0754,4.2243,4.4796,4.4984,4.6149,4.8755,4.8913,4.8913,4.8913,4.8913,4.8913,4.8913,4.8913,4.8913,4.8913,4.8913,4.907,4.9355,4.9473,4.9922,5.0644,5.0762,5.1035,5.1377,5.1377,5.1377,5.1377,5.1377,5.1377,5.1377,5.1377,5.1377,5.1377,5.1377,5.1641,5.1973,5.2402,5.2754,5.3155,5.3672,5.3848,5.3867,5.3953,5.3972,5.3972,5.3972,5.3972,5.4101,5.4433,5.4512,5.459,5.4883,5.4961,5.4902,5.4707,5.5176,5.5664,5.5845,5.6191,5.6348,5.6152,5.6113,5.6113,5.6113,5.6113,5.623,5.6543,5.6582,5.6582,5.6582,5.6582,5.6582,5.6582,5.6582,5.6719,5.7031,5.7031,5.7031,5.7031,5.7031,5.6894,5.6582,5.6582,5.6582,5.6582,5.6582,5.6758,0.0,0.0,0.0,0.0,0.0,0.0,3.8144,3.8984,4.0078,4.4101,4.3771,4.3815,4.7308,4.6614,4.6207,4.8267,4.7338,4.5507,4.3132,4.0561,3.8929,3.8929,3.8929,3.9545,4.1043,4.1187,4.2243,4.4796,4.4984,4.6149,4.8755,4.8913,4.8913,4.8913,4.8913,4.8913,4.8913,4.8913,4.8913,4.8913,4.9043,4.9277,4.9484,4.9902,5.0332,5.082,5.0996,5.1211,5.1377,5.1377,5.1377,5.1377,5.1377,5.1377,5.1377,5.1377,5.1377,5.1377,5.1377,5.1719,5.2148,5.2578,5.3008,5.3488,5.3887,5.3972,5.3972,5.3972,5.3972,5.3972,5.3972,5.3972,5.4101,5.4355,5.4551,5.4746,5.5,5.5312,5.5488,5.5254,5.5605,5.5943,5.6172,5.6426,5.6504,5.625,5.6211,5.6211,5.6211,5.6211,5.6308,5.6562,5.6582,5.6582,5.6582,5.6582,5.666,5.6836,5.6855,5.7031,5.7461,5.748,5.748,5.748,5.7305,5.7012,5.6582,5.6582,5.6582,5.6582,5.6758,5.6973,3.0293,0.0,0.0,0.0,3.2832,0.0,3.8418,3.8887,3.951,4.3889,4.4301,4.4504,4.6635,4.6226,4.6041,4.7416,4.7871,4.7244,4.4912,4.2863,4.1428,4.085,4.1043,4.1187,4.1187,4.1187,4.2243,4.4796,4.5267,4.6429,4.8755,4.8913,4.8913,4.8913,4.8913,4.8913,4.8913,4.8913,4.8913,4.8913,4.9316,4.9551,4.9629,5.043,5.082,5.0898,5.1221,5.1377,5.1377,5.1377,5.1377,5.1377,5.1377,5.1377,5.1377,5.1377,5.1377,5.1397,5.1436,5.1797,5.2226,5.2637,5.3086,5.3516,5.3906,5.3972,5.3972,5.3972,5.3972,5.3972,5.3972,5.3972,5.3992,5.4082,5.4433,5.4765,5.4805,5.5449,5.6015,5.6015,5.6015,5.6133,5.6523,5.6582,5.6582,5.6582,5.6543,5.6523,5.6582,5.6543,5.6523,5.6582,5.6582,5.6582,5.6582,5.6582,5.6738,5.7129,5.7187,5.7402,5.7851,5.791,5.7984,5.7984,5.75,5.7109,5.6719,5.668,5.666,5.666,5.709,5.7305,3.084,3.1562,3.2363,3.209,0.0,0.0,3.388,3.4941,3.6562,3.8535,3.7765,3.8076,4.2603,4.2166,4.1791,4.379,4.582,4.5921,4.2362,4.3262,4.272,3.8539,3.9932,4.1187,4.1187,4.1187,4.2243,4.4796,4.6962,4.8366,4.8848,4.8913,4.8913,4.8913,4.8913,4.8913,4.8913,4.8913,4.8913,4.8913,4.9316,4.9707,5.0078,5.0566,5.0996,5.1308,5.1358,5.1377,5.1377,5.1377,5.1377,5.1377,5.1377,5.1377,5.1377,5.1377,5.1377,5.1436,5.1836,5.2226,5.2656,5.3086,5.3535,5.3926,5.4004,5.3972,5.3972,5.3972,5.3972,5.3972,5.3972,5.3972,5.4121,5.4473,5.4883,5.5273,5.5625,5.6094,5.6465,5.6465,5.6465,5.6484,5.6562,5.6582,5.6582,5.6582,5.6289,5.6191,5.6543,5.6269,5.6191,5.6543,5.6582,5.6582,5.6582,5.6582,5.6621,5.6699,5.7031,5.7402,5.7851,5.8203,5.8363,5.8363,5.7969,5.775,5.7671,5.7265,5.709,5.709,5.7539,5.791,3.1367,3.168,3.2266,3.2676,0.0,0.0,0.0,3.4434,3.5351,3.75,3.6749,3.6826,4.0492,3.9928,3.9668,4.2046,4.4258,4.4667,4.1872,4.3402,4.4303,4.2919,4.2825,4.3362,4.4555,4.4923,4.5567,4.6868,4.8181,4.8913,4.8913,4.8913,4.8913,4.8913,4.8913,4.8913,4.8913,4.8913,4.8913,4.8913,4.9531,4.9961,5.0195,5.082,5.123,5.1377,5.1377,5.1377,5.1377,5.1377,5.1562,5.1738,5.1475,5.1377,5.1377,5.1377,5.1377,5.1455,5.1933,5.2363,5.2773,5.3273,5.3652,5.3972,5.3972,5.3972,5.3972,5.3972,5.3972,5.3972,5.3972,5.3972,5.4141,5.457,5.5,5.543,5.5787,5.6269,5.6582,5.6582,5.6582,5.6582,5.6582,5.6582,5.6582,5.6582,5.6406,5.6328,5.6562,5.6387,5.6348,5.6562,5.6582,5.6582,5.6582,5.6582,5.6758,5.7187,5.7422,5.7851,5.8496,5.873,5.8769,5.848,5.8301,5.8086,5.7926,5.7851,5.7734,5.7539,5.7969,5.832,0.0,0.0,0.0,0.0,0.0,3.3047,0.0,0.0,0.0,3.6949,3.6695,3.6601,3.8437,3.7969,3.7952,4.0098,4.2168,4.3026,4.1647,4.2609,4.4379,4.6784,4.5951,4.5915,4.7787,4.8203,4.8522,4.8757,4.862,4.86,4.8776,4.8855,4.8913,4.8913,4.8913,4.8913,4.8913,4.8913,4.8952,4.905,4.9805,5.0215,5.0332,5.1094,5.1377,5.1377,5.1377,5.1436,5.1514,5.1514,5.1816,5.2148,5.1641,5.1436,5.1514,5.1514,5.1514,5.1641,5.2148,5.2539,5.291,5.334,5.373,5.3972,5.3972,5.3972,5.3972,5.3972,5.3972,5.3972,5.3972,5.3972,5.4121,5.4473,5.4941,5.539,5.5689,5.6211,5.6582,5.6582,5.6582,5.6582,5.6582,5.6582,5.6582,5.6582,5.6582,5.6582,5.6582,5.6582,5.6582,5.6582,5.6582,5.6582,5.6582,5.666,5.7012,5.775,5.791,5.832,5.9023,5.9121,5.9004,5.8652,5.8652,5.8476,5.816,5.8476,5.8418,5.8027,5.8437,5.8652,0.0,0.0,0.0,0.0,3.5371,0.0,0.0,0.0,3.4297,3.3176,0.0,3.3984,3.4642,0.0,0.0,3.5449,3.8262,4.0353,4.0144,3.9736,4.033,4.2764,4.5543,4.7211,4.7065,4.6777,4.7051,4.8203,4.7578,4.748,4.8242,4.8698,4.8913,4.8913,4.8913,4.8913,4.8913,4.8913,4.9062,4.9453,4.9941,5.0371,5.0742,5.123,5.1377,5.1377,5.1377,5.166,5.2012,5.2012,5.2266,5.2558,5.1689,5.166,5.2012,5.2012,5.2012,5.2129,5.298,5.3292,5.341,5.3808,5.3933,5.3972,5.3972,5.3972,5.3972,5.3972,5.3972,5.3972,5.3972,5.3972,5.3992,5.4101,5.4726,5.5312,5.5371,5.6015,5.6582,5.6582,5.6582,5.6582,5.6582,5.6582,5.6582,5.6582,5.6582,5.6582,5.6582,5.6582,5.6582,5.6582,5.6582,5.6582,5.6582,5.6933,5.7187,5.7285,5.8027,5.8476,5.8594,5.9004,5.918,5.9121,5.9121,5.9062,5.9079,5.9062,5.8887,5.8421,5.8887,5.9121,0.0,0.0,0.0,0.0,0.0,0.0,3.2891,0.0,3.2422,0.0,0.0,0.0,0.0,0.0,0.0,0.0,3.625,3.8105,3.8359,3.9204,4.0554,4.257,4.2162,4.2593,4.4853,4.5586,4.6269,4.7051,4.6777,4.6933,4.7793,4.8242,4.8594,4.8894,4.8913,4.8913,4.8913,4.9121,4.9336,4.9484,5.0215,5.0644,5.082,5.123,5.1377,5.1377,5.1377,5.1494,5.1719,5.1973,5.2324,5.2676,5.2324,5.2285,5.2441,5.2441,5.2441,5.2539,5.3195,5.341,5.3488,5.3887,5.3972,5.3972,5.3972,5.3972,5.3972,5.3972,5.3972,5.3972,5.3972,5.3972,5.4109,5.4648,5.5039,5.5449,5.5937,5.6328,5.6582,5.6582,5.6582,5.6582,5.6582,5.6582,5.6582,5.6582,5.6582,5.6582,5.6582,5.6582,5.6582,5.6582,5.6582,5.668,5.6933,5.7109,5.7422,5.7894,5.8555,5.8887,5.8887,5.9062,5.918,5.918,5.918,5.918,5.918,5.918,5.9062,5.8887,5.9121,5.918,3.7578,0.0,0.0,0.0,0.0,0.0,0.0,0.0,0.0,0.0,0.0,0.0,0.0,0.0,0.0,0.0,0.0,3.6387,3.6562,3.7832,3.9531,4.1641,3.9873,3.989,4.337,4.4258,4.498,4.5879,4.5625,4.5957,4.7168,4.7734,4.8242,4.8718,4.8835,4.8913,4.8913,4.9297,4.9543,4.9707,5.0449,5.0859,5.0976,5.124,5.1377,5.1377,5.1377,5.1514,5.1797,5.2129,5.2578,5.3066,5.3066,5.3066,5.3047,5.293,5.2891,5.2949,5.3398,5.3535,5.3594,5.3926,5.3972,5.3972,5.3972,5.3972,5.3972,5.3972,5.3972,5.3972,5.3972,5.3972,5.4167,5.4961,5.5215,5.5508,5.625,5.6504,5.6582,5.6582,5.6582,5.6582,5.6582,5.6582,5.6582,5.6582,5.6582,5.6582,5.6582,5.6582,5.6582,5.6582,5.668,5.6875,5.7187,5.7441,5.791,5.8652,5.9004,5.918,5.918,5.918,5.918,5.918,5.918,5.918,5.918,5.918,5.918,5.918,5.918,5.918,0.0,0.0,0.0,3.6938,0.0,0.0,0.0,0.0,3.3308,0.0,0.0,0.0,0.0,0.0,0.0,0.0,0.0,0.0,0.0,3.4525,3.5424,3.8396,4.0138,4.1757,4.3535,4.2617,4.2793,4.486,4.3906,4.4101,4.623,4.7148,4.7793,4.8223,4.8633,4.8913,4.8913,4.9297,4.9746,5.0156,5.0605,5.1016,5.1358,5.1377,5.1377,5.1377,5.1377,5.1894,5.2676,5.2676,5.3203,5.3933,5.3933,5.3933,5.3926,5.3496,5.339,5.3449,5.3848,5.3953,5.3953,5.3972,5.3972,5.3972,5.3972,5.3972,5.3972,5.3972,5.3972,5.3972,5.3972,5.3972,5.4141,5.459,5.5019,5.543,5.5806,5.6289,5.6582,5.6582,5.6582,5.6582,5.6582,5.6582,5.6582,5.6582,5.6582,5.6582,5.6582,5.6582,5.6582,5.6582,5.6953,5.7187,5.7207,5.7953,5.8655,5.9121,5.918,5.918,5.918,5.918,5.918,5.918,5.918,5.918,5.918,5.918,5.918,5.918,5.918,5.918,4.2363,4.2734,4.2402,3.965,3.8089,3.6411,0.0,0.0,0.0,0.0,0.0,0.0,0.0,0.0,0.0,0.0,0.0,0.0,0.0,3.3117,3.3645,3.5762,3.7793,3.9141,3.9434,4.0879,4.1992,4.2441,4.2578,4.3476,4.5351,4.6269,4.7187,4.8183,4.8679,4.905,4.9297,4.9746,5.0176,5.0605,5.1016,5.124,5.1377,5.1377,5.1377,5.1397,5.1738,5.2031,5.2344,5.291,5.332,5.3613,5.3906,5.3972,5.3953,5.3867,5.3808,5.3828,5.3933,5.3972,5.3972,5.3972,5.3972,5.3972,5.3972,5.3972,5.3972,5.3972,5.3972,5.3972,5.3972,5.3972,5.4219,5.4922,5.5195,5.5508,5.6211,5.6484,5.6582,5.6582,5.6582,5.6582,5.6582,5.6582,5.6582,5.6582,5.6582,5.6582,5.6582,5.6582,5.6699,5.6973,5.7129,5.7441,5.8027,5.8613,5.9004,5.918,5.918,5.918,5.918,5.918,5.918,5.918,5.918,5.918,5.918,5.918,5.918,5.918,5.918,5.918,4.3516,4.4082,4.4082,4.1738,4.0313,3.8733,3.5918,0.0,3.6597,0.0,0.0,0.0,0.0,0.0,0.0,0.0,0.0,0.0,0.0,3.2363,3.2883,3.4101,3.5898,3.7344,3.8144,3.9277,4.0371,4.1328,4.1191,4.2012,4.4219,4.5449,4.6523,4.75,4.8444,4.9082,4.9531,4.9961,5.0391,5.0801,5.123,5.1377,5.1377,5.1377,5.1475,5.168,5.1953,5.2266,5.2628,5.3175,5.3507,5.3633,5.3926,5.3972,5.3972,5.3972,5.3972,5.3972,5.3972,5.3972,5.3972,5.3972,5.3972,5.3972,5.3972,5.3972,5.3972,5.3972,5.3972,5.3972,5.3972,5.4141,5.4433,5.5137,5.543,5.5723,5.6426,5.6582,5.6582,5.6582,5.6582,5.6582,5.6582,5.6582,5.6582,5.6582,5.6582,5.664,5.6797,5.6797,5.6973,5.7402,5.7598,5.7969,5.8711,5.9004,5.918,5.918,5.918,5.918,5.918,5.918,5.918,5.918,5.918,5.918,5.918,5.918,5.918,5.918,5.918,5.918]},{"header":{"parameterUnit":"m.s-1","parameterCategory":1,"la1":30.6,"la2":29.2853,"lo1":-89.7004,"lo2":-87.6739,"dy":0.0162,"dx":0.0183,"nx":112,"ny":82,"refTime":"2026-04-07T00:00:00:Z","depth":0,"parameterNumber":3,"parameterNumberName":"V-component_of_WINDS"},"data":[0.0,0.0,0.0,0.0,0.0,0.0,0.0,0.0,0.0,0.0,0.0,0.0,0.0,0.0,0.0,0.0,0.0,0.0,0.0,0.0,0.0,0.0,0.0,0.0,0.0,0.0,0.0,0.0,0.0,0.0,0.0,0.0,0.0,0.0,0.0,0.0,0.0,0.0,0.0,0.0,0.0,0.0,0.0,0.0,0.0,0.0,0.0,0.0,0.0,0.0,0.0,0.0,0.0,0.0,0.0,0.0,0.0,0.0,0.0,0.0,0.0,0.0,0.0,0.0,0.0,0.0,0.0,0.0,0.0,0.0,0.0,0.0,0.0,0.0,0.0,0.0,0.0,0.0,0.0,0.0,0.0,0.0,0.0,0.0,0.0,0.0,0.0,0.0,0.0,0.0,0.0,4.2722,4.5574,4.7048,4.651,4.7038,4.575,4.1974,0.0,0.0,0.0,0.0,0.0,0.0,0.0,0.0,0.0,0.0,0.0,0.0,0.0,0.0,0.0,0.0,0.0,0.0,0.0,0.0,0.0,0.0,0.0,0.0,0.0,0.0,0.0,0.0,0.0,0.0,0.0,0.0,0.0,0.0,0.0,0.0,0.0,0.0,0.0,0.0,0.0,0.0,0.0,0.0,0.0,0.0,0.0,0.0,0.0,0.0,0.0,0.0,0.0,0.0,0.0,0.0,0.0,0.0,0.0,0.0,0.0,0.0,0.0,0.0,0.0,0.0,0.0,0.0,0.0,0.0,0.0,0.0,0.0,0.0,0.0,0.0,0.0,0.0,0.0,0.0,0.0,0.0,0.0,0.0,0.0,0.0,0.0,0.0,0.0,0.0,0.0,0.0,0.0,0.0,0.0,0.0,0.0,0.0,0.0,0.0,0.0,0.0,0.0,0.0,4.0994,4.5254,4.6681,4.7279,4.716,4.6457,4.4946,4.252,0.0,0.0,0.0,0.0,0.0,0.0,0.0,0.0,0.0,0.0,0.0,0.0,0.0,0.0,0.0,0.0,0.0,0.0,0.0,0.0,0.0,0.0,0.0,0.0,0.0,0.0,0.0,0.0,0.0,0.0,0.0,0.0,0.0,0.0,0.0,0.0,0.0,0.0,0.0,0.0,0.0,0.0,0.0,0.0,0.0,0.0,0.0,0.0,0.0,0.0,0.0,0.0,0.0,0.0,0.0,0.0,0.0,0.0,0.0,0.0,0.0,0.0,0.0,0.0,0.0,0.0,0.0,0.0,0.0,0.0,0.0,0.0,0.0,0.0,0.0,0.0,0.0,0.0,0.0,0.0,0.0,0.0,0.0,0.0,0.0,0.0,0.0,0.0,0.0,0.0,0.0,0.0,0.0,0.0,0.0,0.0,0.0,0.0,0.0,0.0,0.0,0.0,0.0,4.0487,4.2521,4.6441,4.713,4.7516,4.8072,4.7449,4.6139,4.4103,4.3151,0.0,0.0,0.0,0.0,0.0,0.0,0.0,0.0,0.0,0.0,0.0,0.0,0.0,0.0,0.0,0.0,0.0,0.0,0.0,0.0,0.0,0.0,0.0,0.0,0.0,0.0,0.0,0.0,0.0,0.0,0.0,0.0,0.0,0.0,0.0,0.0,0.0,0.0,0.0,0.0,0.0,0.0,0.0,0.0,0.0,0.0,0.0,0.0,0.0,0.0,0.0,0.0,0.0,0.0,0.0,0.0,0.0,0.0,0.0,0.0,0.0,0.0,0.0,0.0,0.0,0.0,0.0,0.0,0.0,0.0,0.0,0.0,0.0,0.0,0.0,0.0,0.0,0.0,0.0,0.0,0.0,0.0,0.0,0.0,0.0,0.0,0.0,0.0,0.0,0.0,0.0,0.0,0.0,0.0,0.0,0.0,0.0,0.0,0.0,0.0,0.0,0.0,4.312,4.4337,4.701,4.7309,4.77,4.8718,4.8047,4.688,4.5291,4.3902,0.0,0.0,0.0,0.0,0.0,0.0,0.0,0.0,0.0,0.0,0.0,0.0,0.0,0.0,0.0,0.0,0.0,0.0,0.0,0.0,0.0,0.0,0.0,0.0,0.0,0.0,0.0,0.0,0.0,0.0,0.0,0.0,0.0,0.0,0.0,0.0,0.0,0.0,0.0,0.0,0.0,0.0,0.0,0.0,0.0,0.0,0.0,0.0,0.0,0.0,0.0,0.0,0.0,0.0,0.0,0.0,0.0,0.0,0.0,0.0,0.0,0.0,0.0,0.0,0.0,0.0,0.0,0.0,0.0,0.0,0.0,0.0,0.0,0.0,0.0,0.0,0.0,0.0,0.0,0.0,0.0,0.0,0.0,0.0,0.0,0.0,0.0,0.0,0.0,0.0,0.0,0.0,0.0,0.0,0.0,0.0,0.0,0.0,0.0,0.0,0.0,0.0,4.4167,4.636,4.7219,4.7309,4.77,4.8718,4.7089,4.5818,4.5258,4.3428,0.0,0.0,0.0,0.0,0.0,0.0,0.0,0.0,0.0,0.0,0.0,0.0,0.0,0.0,0.0,0.0,0.0,0.0,0.0,0.0,0.0,0.0,0.0,0.0,0.0,0.0,0.0,0.0,0.0,0.0,0.0,0.0,0.0,0.0,0.0,0.0,0.0,0.0,0.0,0.0,0.0,0.0,0.0,0.0,0.0,0.0,0.0,0.0,0.0,0.0,0.0,0.0,0.0,0.0,0.0,0.0,0.0,0.0,0.0,0.0,0.0,0.0,0.0,0.0,0.0,0.0,0.0,0.0,0.0,0.0,0.0,0.0,0.0,0.0,0.0,0.0,0.0,0.0,0.0,0.0,0.0,0.0,0.0,0.0,0.0,0.0,0.0,0.0,0.0,0.0,0.0,0.0,0.0,0.0,0.0,0.0,0.0,0.0,0.0,0.0,0.0,0.0,4.4167,4.6506,0.0,4.8873,4.9388,5.064,4.921,4.7683,4.6283,0.0,0.0,0.0,0.0,0.0,0.0,0.0,0.0,0.0,0.0,0.0,0.0,0.0,0.0,0.0,0.0,0.0,0.0,0.0,0.0,0.0,0.0,0.0,0.0,0.0,0.0,0.0,0.0,0.0,0.0,0.0,0.0,0.0,0.0,0.0,0.0,0.0,0.0,0.0,0.0,0.0,0.0,0.0,0.0,0.0,0.0,0.0,0.0,0.0,0.0,0.0,0.0,0.0,0.0,0.0,0.0,0.0,0.0,0.0,0.0,0.0,0.0,0.0,0.0,0.0,0.0,0.0,0.0,0.0,0.0,0.0,0.0,0.0,0.0,0.0,0.0,0.0,0.0,0.0,0.0,0.0,0.0,0.0,0.0,0.0,0.0,0.0,0.0,0.0,0.0,0.0,0.0,0.0,0.0,0.0,0.0,0.0,0.0,0.0,0.0,0.0,0.0,4.1961,4.4666,4.7329,0.0,5.0297,5.0905,5.2828,5.0733,4.8713,4.7233,0.0,0.0,0.0,0.0,0.0,0.0,0.0,0.0,0.0,0.0,0.0,0.0,0.0,0.0,0.0,0.0,0.0,0.0,0.0,0.0,0.0,0.0,0.0,0.0,0.0,0.0,0.0,0.0,0.0,0.0,0.0,0.0,0.0,0.0,0.0,0.0,0.0,0.0,0.0,0.0,0.0,0.0,0.0,0.0,0.0,0.0,0.0,0.0,0.0,0.0,0.0,0.0,0.0,0.0,0.0,0.0,0.0,0.0,0.0,0.0,0.0,0.0,0.0,0.0,0.0,0.0,0.0,0.0,0.0,0.0,0.0,0.0,0.0,0.0,0.0,0.0,0.0,0.0,0.0,0.0,0.0,0.0,0.0,0.0,0.0,0.0,0.0,0.0,0.0,0.0,0.0,0.0,0.0,0.0,0.0,0.0,0.0,0.0,0.0,0.0,0.0,0.0,4.219,4.5885,4.9329,5.1819,5.1408,5.2153,5.5059,5.1214,4.8431,0.0,0.0,0.0,0.0,0.0,0.0,0.0,0.0,0.0,0.0,0.0,0.0,0.0,0.0,0.0,0.0,0.0,0.0,0.0,0.0,0.0,0.0,0.0,0.0,0.0,0.0,0.0,0.0,0.0,0.0,0.0,0.0,0.0,0.0,0.0,0.0,0.0,0.0,0.0,0.0,0.0,0.0,0.0,0.0,0.0,0.0,0.0,0.0,0.0,0.0,0.0,0.0,0.0,0.0,0.0,0.0,0.0,0.0,0.0,0.0,0.0,0.0,0.0,0.0,0.0,0.0,0.0,0.0,0.0,0.0,0.0,0.0,0.0,0.0,0.0,0.0,0.0,0.0,0.0,0.0,0.0,0.0,0.0,0.0,0.0,0.0,0.0,0.0,0.0,0.0,0.0,0.0,0.0,0.0,0.0,0.0,0.0,0.0,0.0,0.0,0.0,0.0,0.0,4.4579,4.8871,5.2682,5.5522,5.5102,5.5116,5.6258,5.3193,5.0252,4.8041,0.0,0.0,0.0,0.0,0.0,0.0,0.0,0.0,0.0,0.0,0.0,0.0,0.0,0.0,0.0,0.0,0.0,0.0,0.0,0.0,0.0,0.0,0.0,0.0,0.0,0.0,0.0,0.0,0.0,0.0,0.0,0.0,0.0,0.0,0.0,0.0,0.0,0.0,0.0,0.0,0.0,0.0,0.0,0.0,0.0,0.0,0.0,0.0,0.0,0.0,0.0,0.0,0.0,0.0,0.0,0.0,0.0,0.0,0.0,0.0,0.0,0.0,0.0,0.0,0.0,0.0,0.0,0.0,0.0,0.0,0.0,0.0,0.0,0.0,0.0,0.0,0.0,0.0,0.0,0.0,0.0,0.0,0.0,0.0,0.0,0.0,0.0,0.0,0.0,0.0,0.0,0.0,0.0,0.0,0.0,0.0,0.0,0.0,0.0,0.0,0.0,0.0,4.6021,5.0331,5.4482,5.8335,5.776,5.7379,5.806,5.5378,5.2266,4.8969,0.0,0.0,0.0,0.0,0.0,0.0,0.0,0.0,0.0,0.0,0.0,0.0,0.0,0.0,0.0,0.0,0.0,0.0,0.0,0.0,0.0,0.0,0.0,0.0,0.0,0.0,0.0,0.0,0.0,0.0,0.0,0.0,0.0,0.0,0.0,0.0,0.0,0.0,0.0,0.0,0.0,0.0,0.0,0.0,0.0,0.0,0.0,0.0,0.0,0.0,0.0,0.0,0.0,0.0,0.0,0.0,0.0,0.0,0.0,0.0,0.0,0.0,0.0,0.0,0.0,0.0,0.0,0.0,0.0,0.0,0.0,0.0,0.0,0.0,0.0,0.0,0.0,0.0,0.0,0.0,0.0,0.0,0.0,0.0,0.0,0.0,0.0,0.0,0.0,0.0,0.0,0.0,0.0,0.0,0.0,0.0,0.0,0.0,0.0,0.0,0.0,0.0,4.6961,5.1163,5.5599,6.0451,5.9712,5.9245,6.014,5.7491,5.4211,5.0556,0.0,0.0,0.0,0.0,0.0,0.0,0.0,0.0,0.0,0.0,0.0,0.0,0.0,0.0,0.0,0.0,0.0,0.0,0.0,0.0,0.0,0.0,0.0,0.0,0.0,0.0,0.0,0.0,0.0,0.0,0.0,0.0,0.0,0.0,0.0,0.0,0.0,0.0,0.0,0.0,0.0,0.0,0.0,0.0,0.0,0.0,0.0,0.0,0.0,0.0,0.0,0.0,0.0,0.0,0.0,0.0,0.0,0.0,0.0,0.0,4.1382,3.9862,0.0,0.0,0.0,0.0,0.0,0.0,0.0,0.0,0.0,0.0,0.0,0.0,0.0,0.0,0.0,0.0,0.0,0.0,0.0,0.0,0.0,0.0,0.0,0.0,0.0,0.0,0.0,0.0,0.0,0.0,0.0,0.0,0.0,0.0,0.0,0.0,0.0,0.0,0.0,0.0,4.9678,5.5369,6.0029,6.265,6.2098,6.1422,6.1076,5.8287,5.5209,5.2029,4.8051,0.0,0.0,0.0,0.0,0.0,0.0,0.0,0.0,0.0,0.0,0.0,0.0,0.0,0.0,0.0,0.0,0.0,0.0,0.0,0.0,0.0,0.0,0.0,0.0,0.0,0.0,0.0,0.0,0.0,0.0,0.0,0.0,0.0,0.0,0.0,0.0,0.0,0.0,0.0,0.0,0.0,0.0,0.0,0.0,0.0,0.0,0.0,0.0,0.0,0.0,0.0,0.0,0.0,0.0,0.0,0.0,0.0,0.0,0.0,4.6642,4.4387,0.0,0.0,0.0,0.0,0.0,0.0,0.0,0.0,0.0,0.0,0.0,0.0,0.0,0.0,0.0,0.0,0.0,0.0,0.0,0.0,0.0,0.0,0.0,0.0,0.0,0.0,0.0,0.0,0.0,0.0,0.0,0.0,0.0,0.0,0.0,0.0,0.0,0.0,0.0,0.0,5.148,5.7089,6.1671,6.4275,6.3903,6.3024,6.1907,6.008,5.7509,5.416,5.0439,0.0,0.0,0.0,0.0,0.0,0.0,0.0,0.0,0.0,0.0,0.0,0.0,0.0,0.0,0.0,0.0,0.0,0.0,0.0,0.0,0.0,0.0,0.0,0.0,0.0,0.0,0.0,0.0,0.0,0.0,0.0,0.0,0.0,0.0,0.0,0.0,0.0,0.0,0.0,0.0,0.0,0.0,0.0,0.0,0.0,0.0,0.0,0.0,0.0,0.0,0.0,0.0,0.0,5.4425,5.543,5.6369,5.7228,5.7637,5.743,5.3465,5.0991,4.9568,4.7357,0.0,0.0,0.0,0.0,0.0,0.0,0.0,0.0,0.0,0.0,0.0,0.0,0.0,0.0,0.0,0.0,0.0,0.0,0.0,0.0,0.0,0.0,5.0737,5.1345,5.2468,5.2081,4.7168,0.0,0.0,0.0,0.0,0.0,0.0,0.0,0.0,0.0,0.0,0.0,5.3161,5.8305,6.2632,6.5377,6.5155,6.4241,6.2908,6.1975,6.0047,5.668,5.3078,4.9427,0.0,0.0,0.0,0.0,0.0,0.0,0.0,0.0,0.0,0.0,0.0,0.0,0.0,0.0,0.0,0.0,0.0,0.0,0.0,0.0,0.0,0.0,0.0,0.0,0.0,0.0,0.0,0.0,0.0,0.0,0.0,0.0,4.5655,4.7143,0.0,0.0,0.0,0.0,0.0,0.0,0.0,0.0,0.0,0.0,0.0,0.0,0.0,5.2248,5.4935,5.6873,5.8022,5.8367,6.0738,6.1391,6.0548,6.2157,6.2925,6.3001,6.335,0.0,5.61,5.2751,0.0,0.0,0.0,0.0,0.0,0.0,0.0,0.0,0.0,0.0,0.0,0.0,0.0,0.0,0.0,0.0,0.0,0.0,0.0,0.0,0.0,0.0,5.7981,5.7562,5.8278,5.8631,5.7269,5.147,4.6159,4.4912,4.3267,0.0,0.0,0.0,0.0,0.0,0.0,0.0,5.5718,6.1354,6.52,6.5662,6.5615,6.5243,6.4377,6.3057,6.1467,5.9641,5.6646,5.3279,4.9542,4.7249,0.0,0.0,0.0,0.0,0.0,0.0,0.0,0.0,0.0,0.0,0.0,0.0,0.0,0.0,0.0,0.0,0.0,0.0,0.0,0.0,0.0,0.0,0.0,0.0,0.0,0.0,0.0,0.0,0.0,4.6752,4.9187,4.8597,4.8274,4.7144,0.0,0.0,0.0,0.0,0.0,0.0,0.0,0.0,0.0,5.4272,5.5886,5.817,6.1262,6.2966,6.4548,6.6035,6.7637,6.8278,6.8171,6.895,6.9322,6.939,6.9883,6.8275,6.4878,5.9439,5.5937,5.372,0.0,0.0,0.0,0.0,4.9408,4.9266,5.2127,5.2411,5.1603,5.2213,0.0,0.0,0.0,0.0,0.0,0.0,0.0,5.2948,5.4848,5.8243,6.1388,6.2353,6.2912,6.3159,6.2821,5.8931,5.4442,5.0733,4.9593,4.7912,4.38,0.0,0.0,0.0,0.0,5.5694,5.8097,6.2656,6.5886,6.6271,6.6305,6.6034,6.5256,6.4241,6.299,6.1501,5.8998,5.625,5.336,5.1105,4.8339,0.0,0.0,0.0,0.0,0.0,0.0,0.0,0.0,0.0,0.0,0.0,0.0,0.0,0.0,0.0,0.0,0.0,0.0,0.0,0.0,0.0,0.0,0.0,0.0,0.0,0.0,0.0,0.0,4.9898,5.2503,5.0642,5.1765,5.1301,0.0,0.0,0.0,0.0,0.0,0.0,5.3281,5.5981,5.8448,6.0554,6.2274,6.4449,6.73,6.8375,6.99,7.1887,7.2428,7.2969,7.35,7.35,7.35,7.35,7.35,7.2868,7.1379,6.52,6.1054,5.8436,5.6464,5.5438,5.5137,5.551,5.5395,5.5534,5.9057,5.9355,5.8294,5.9021,5.7197,5.4386,5.2595,0.0,0.0,0.0,0.0,5.6951,5.9671,6.2065,6.4275,6.6136,6.6596,6.6596,6.6596,6.4952,6.1953,5.6713,5.5647,5.3999,4.882,0.0,0.0,0.0,0.0,5.8639,6.0498,6.382,6.6102,6.6474,6.6542,6.6237,6.548,6.4918,6.414,6.3024,6.1028,5.9066,5.7221,5.4938,5.2367,4.9375,0.0,0.0,0.0,0.0,0.0,0.0,0.0,0.0,0.0,0.0,0.0,0.0,0.0,0.0,0.0,0.0,0.0,0.0,0.0,0.0,0.0,0.0,0.0,0.0,0.0,0.0,0.0,0.0,0.0,5.4397,5.624,0.0,0.0,0.0,0.0,5.3522,5.4999,5.6742,5.8807,6.2005,6.4741,6.6855,6.9411,7.1503,7.3069,7.3137,7.3261,7.3398,7.3432,7.3466,7.35,7.35,7.35,7.35,7.35,7.3466,7.3069,6.8811,6.6334,6.4866,6.1339,6.0153,6.0385,6.0084,5.9965,6.0254,6.2438,6.2286,6.1524,6.4071,6.2167,5.8739,5.7871,5.6303,0.0,0.0,5.9295,6.1941,6.3822,6.598,6.7827,6.8707,6.8944,6.8944,6.8944,6.7692,6.5641,6.2544,6.0226,5.845,5.7385,0.0,5.6626,5.725,5.9449,6.1617,6.3113,6.5317,6.6508,6.5852,6.5784,6.5459,6.4715,6.4613,6.458,6.4478,6.3057,6.1839,6.1061,5.8829,5.6224,5.3281,5.1014,0.0,0.0,0.0,0.0,0.0,0.0,0.0,0.0,0.0,0.0,0.0,0.0,0.0,0.0,0.0,0.0,0.0,0.0,0.0,0.0,0.0,0.0,0.0,0.0,0.0,0.0,0.0,0.0,5.7509,5.9722,0.0,5.7064,5.7187,5.7845,5.8722,6.1664,6.4139,6.5768,6.8157,7.0241,7.1998,7.2953,7.4153,7.5676,7.5676,7.5912,7.641,7.641,7.641,7.641,7.641,7.641,7.641,7.641,7.5835,7.4806,7.3339,7.1669,6.9825,6.806,6.7458,6.7501,6.6944,6.6751,6.6915,6.8168,6.7971,6.7031,6.6695,6.5783,6.4418,6.2399,6.2197,6.2762,6.3373,6.4611,6.6018,6.7201,6.8098,6.8741,6.9045,6.9113,6.9113,6.9113,6.8673,6.7963,6.6914,6.4478,6.1907,5.9708,6.0317,6.0704,5.9505,6.167,6.3802,6.4783,6.6034,6.669,6.644,6.5967,6.5581,6.5324,6.4884,6.441,6.3917,6.3396,6.255,6.1366,6.052,5.8693,5.5683,5.4363,5.0889,0.0,0.0,0.0,0.0,0.0,0.0,0.0,0.0,0.0,0.0,0.0,0.0,0.0,0.0,0.0,0.0,0.0,0.0,0.0,0.0,0.0,0.0,0.0,0.0,0.0,5.822,6.1704,6.0975,6.365,6.4574,6.2027,6.2734,6.3823,6.5016,6.7803,7.007,7.1513,7.307,7.4356,7.5371,7.5608,7.6251,7.7266,7.7266,7.7502,7.8,7.8,7.8,7.8,7.8,7.8,7.8,7.8,7.7425,7.6487,7.6487,7.5608,7.4119,7.2631,7.2056,7.1999,7.1522,7.1403,7.147,7.2002,7.2002,7.1437,6.9633,6.92,6.9049,6.7012,6.7299,6.8313,6.8313,6.8673,6.9248,7.0026,7.0195,7.0297,7.0534,7.0567,7.0534,7.0263,7.0026,6.9789,6.9519,6.7658,6.5493,6.3463,6.4174,6.4478,6.2956,6.4241,6.5527,6.6,6.6508,6.669,6.6474,6.6,6.5615,6.5358,6.4647,6.414,6.3903,6.3173,6.2448,6.1704,6.0926,5.9471,5.7205,5.5192,5.1731,4.6726,0.0,0.0,0.0,0.0,0.0,0.0,0.0,0.0,0.0,0.0,0.0,0.0,0.0,0.0,0.0,0.0,0.0,0.0,0.0,0.0,0.0,0.0,0.0,5.7002,6.2076,6.5527,6.4918,6.8098,6.9777,6.8301,6.8876,7.0229,7.2394,7.3206,7.4255,7.5709,7.6521,7.6961,7.6995,7.7705,7.8102,7.8136,7.8136,7.8136,7.8136,7.8136,7.8136,7.8136,7.8111,7.8102,7.8102,7.8102,7.8068,7.8034,7.8034,7.8034,7.773,7.4786,7.3635,7.3601,7.3635,7.3635,7.3635,7.3635,7.4052,7.4424,7.2935,7.2462,7.2293,7.1594,7.1357,7.1357,7.1357,7.1357,7.1526,7.2259,7.2428,7.2597,7.3331,7.35,7.3297,7.2597,7.1887,7.1142,7.0398,6.9688,6.918,6.9113,6.8436,6.7929,6.7929,6.7354,0.0,6.6825,6.6825,6.6542,6.5818,6.5717,6.5412,6.4681,6.3971,6.3815,6.4478,6.2516,6.1637,6.2347,6.025,5.8727,5.8001,5.3585,5.0592,4.9089,0.0,0.0,0.0,0.0,0.0,0.0,0.0,0.0,0.0,0.0,0.0,0.0,0.0,0.0,0.0,0.0,0.0,0.0,0.0,0.0,0.0,5.9438,6.2279,6.1719,6.4918,6.803,7.0026,7.2124,7.3443,7.3544,7.4289,7.4999,7.5608,7.6352,7.6951,7.7333,7.7594,7.8179,7.9261,7.9498,8.0107,8.119,8.119,8.119,8.119,8.119,8.119,8.1156,8.0615,8.0403,8.0369,7.9837,7.9295,7.8822,7.8822,7.8483,7.7933,7.7087,7.642,7.6014,7.6555,7.6758,7.6715,7.6149,7.5709,7.5236,7.4322,7.3646,7.3161,7.2935,7.2902,7.2902,7.2902,7.2902,7.2935,7.3138,7.3206,7.3263,7.3466,7.35,7.3466,7.324,7.3037,7.2665,7.1921,7.1616,7.0973,6.9383,6.891,6.8774,6.8774,6.8605,0.0,6.7658,6.759,6.732,6.6576,6.6,6.5615,6.5412,6.4715,6.3937,6.3057,6.2415,6.1941,6.1603,6.0994,6.0317,5.9505,5.5649,5.291,0.0,0.0,0.0,0.0,0.0,0.0,0.0,0.0,0.0,0.0,0.0,0.0,0.0,0.0,0.0,0.0,0.0,0.0,0.0,0.0,0.0,0.0,6.3937,6.7218,6.8043,6.9654,7.1481,7.3544,7.51,7.6183,7.6623,7.7096,7.7502,7.7807,7.8483,7.9058,7.9388,7.9667,8.0242,8.1088,8.1122,8.1528,8.2382,8.2408,8.2408,8.2408,8.2408,8.2408,8.2408,8.1968,8.1765,8.1731,8.0987,8.0412,8.0006,7.9701,7.9295,7.8855,0.0,0.0,0.0,0.0,7.8,7.7967,7.7502,7.7029,7.6589,7.6149,7.5709,7.5327,7.4999,7.4897,7.483,7.4525,7.4187,7.4018,7.4322,7.4187,7.4052,7.4322,7.4424,7.4322,7.4018,7.395,7.3747,7.3003,7.2868,0.0,7.077,6.9958,6.9553,6.9553,6.9316,6.8944,6.847,6.8402,6.8233,6.7827,6.7387,6.6981,6.6643,6.5662,0.0,0.0,0.0,6.1467,6.0385,6.0332,0.0,0.0,0.0,0.0,0.0,0.0,0.0,0.0,5.3122,5.2308,0.0,0.0,0.0,0.0,0.0,0.0,0.0,0.0,0.0,0.0,0.0,0.0,0.0,0.0,0.0,0.0,6.8199,7.165,7.4492,7.4975,7.5371,7.6014,7.7299,7.8204,7.8373,7.8373,7.8686,7.9431,8.0073,8.0716,8.1418,8.2035,0.0,0.0,0.0,8.2577,8.2652,8.2652,8.2652,8.2652,8.2652,8.2652,8.2644,8.2577,8.2543,8.2475,8.1731,8.1393,8.1359,8.0716,8.0445,8.0276,7.872,7.8237,7.8373,7.8204,7.8179,7.8237,7.817,0.0,0.0,7.8034,7.8,7.7899,7.7232,7.7029,7.6893,7.6149,7.5506,7.5134,7.5777,7.5473,7.5168,7.5811,7.5946,7.5743,7.5033,7.484,7.4627,7.3781,7.3612,7.3375,7.2665,7.1379,7.042,7.0331,6.9755,6.9316,6.9214,6.9214,6.918,6.9113,6.9113,0.0,6.8098,6.6677,6.5493,6.4783,6.2719,6.0926,5.9554,5.9588,5.9588,5.952,5.9588,6.0264,6.1569,6.1738,6.2516,6.3694,5.6743,5.4834,0.0,0.0,0.0,0.0,0.0,0.0,0.0,0.0,0.0,0.0,0.0,0.0,0.0,0.0,0.0,6.6812,7.0906,7.439,7.6217,7.7502,7.8256,7.845,7.872,7.9363,8.0572,8.0674,8.0953,8.1731,8.19,8.2035,8.2171,8.234,8.2678,8.3253,8.3287,8.3592,8.4174,8.4174,8.4174,8.4174,8.4174,0.0,8.414,8.3558,8.3287,8.3253,8.2509,8.2205,8.2171,8.2035,8.1968,8.1765,7.9701,7.96,8.0538,7.9329,7.9261,7.9701,7.9092,7.8889,7.8788,7.8179,7.8,7.7942,7.7807,7.7797,0.0,7.7594,7.7435,7.7367,7.7502,7.7435,7.7367,7.7502,7.7561,7.7333,7.6623,7.6454,7.6048,7.4661,7.439,7.4153,7.3409,7.2563,7.1785,7.1176,7.0973,7.0669,7.006,7.0014,6.9755,6.9147,6.9113,6.9045,6.8876,6.7489,6.6271,6.5527,6.3971,6.2936,6.2632,6.3193,6.326,6.2632,6.3207,6.3362,6.3071,6.4275,6.529,6.6115,6.3451,6.2784,0.0,0.0,0.0,0.0,0.0,0.0,0.0,0.0,0.0,0.0,0.0,5.7515,6.069,0.0,6.7827,7.077,7.4086,7.6826,7.8348,7.9498,8.0073,7.9701,7.9972,8.0648,8.1731,8.1832,8.2002,8.2374,8.2746,8.2949,8.2949,8.3321,8.3667,8.4065,8.4065,8.4234,8.4614,8.4614,8.4614,8.4614,8.4614,8.4614,8.458,8.4208,8.4065,8.4031,8.3287,8.2949,8.2915,8.2543,8.2644,8.2813,8.1325,8.1224,8.1765,8.1021,8.0987,8.1257,8.0885,8.075,8.0648,7.987,7.9659,7.9498,7.8754,7.8551,7.8483,7.8077,7.8,7.8,7.8,7.8,7.8,7.8,7.8,7.7899,7.7536,7.7164,7.6657,7.5912,7.5439,7.4931,7.4187,7.3747,7.3138,7.2022,7.1853,7.1582,7.0838,7.0737,7.0601,7.0263,7.0195,7.006,6.9688,6.8233,6.7184,6.6812,6.5764,6.5134,6.5134,6.5527,6.5696,6.5696,6.6068,6.6271,6.6305,6.7421,6.8335,6.9023,6.8673,6.8301,0.0,0.0,0.0,0.0,0.0,0.0,0.0,0.0,5.5696,5.8226,5.9778,6.1968,6.6065,6.8639,7.1244,7.4525,7.6961,7.8889,8.0209,8.1054,8.1325,8.0885,8.1224,8.1799,8.2543,8.2611,8.2678,8.2821,8.3389,8.3727,8.3727,8.4275,8.4614,8.4614,8.4614,8.4614,8.4614,8.4614,8.4614,8.4614,8.4614,8.4614,8.4614,8.4614,8.4614,8.458,8.3964,8.3727,8.3659,8.3084,8.3186,8.3659,8.3084,8.2847,8.2787,8.2509,8.2408,8.2408,8.2408,8.2408,8.2306,8.1697,8.1494,8.1291,8.0107,7.9744,7.9634,7.9025,7.8855,7.8822,7.8677,7.8643,7.861,7.8474,7.844,7.8407,7.8247,7.7739,7.7299,7.713,7.6454,7.5743,7.5168,7.4931,7.4322,7.2834,7.2597,7.2394,7.1819,7.1616,7.1492,7.1492,7.1391,7.1007,7.0263,6.9045,6.8301,6.8132,6.759,6.7252,6.7252,6.7252,6.759,6.8335,6.8504,6.8944,6.9755,7.0466,7.1142,7.1751,7.2631,7.2259,4.9458,4.8748,4.9526,5.2182,5.3484,5.5328,0.0,0.0,6.2181,6.51,6.6863,6.8497,7.0342,7.2473,7.4593,7.6352,7.8517,8.0242,8.108,8.1799,8.2509,8.305,8.2644,8.2577,8.3321,8.3389,8.3659,8.4309,8.4411,8.4478,8.4478,8.4546,8.4614,8.4614,8.4614,8.4614,8.4614,8.4614,8.4614,8.4614,8.4614,8.4614,8.4614,8.4614,8.4614,8.4614,8.4512,8.4478,8.4478,8.4377,8.4411,8.4478,8.4377,8.4343,8.4208,8.2855,8.2408,8.2408,8.2408,8.2408,8.2408,8.2306,8.2272,8.2272,8.2103,8.201,8.201,8.1934,8.1934,8.1765,8.1088,8.0945,8.0775,8.0107,7.9938,7.9769,7.9126,7.8898,7.8653,7.7976,7.7266,7.6758,7.6657,7.6048,7.5067,7.3601,7.3398,7.3364,7.3263,7.2665,7.2293,7.2293,7.1684,7.1007,7.0263,7.0048,6.9654,6.9011,6.8876,6.8842,6.8842,6.8842,6.918,6.9925,7.0601,7.1312,7.2022,7.2766,7.3161,7.3274,7.4661,7.4525,5.3365,5.3518,5.4465,5.575,5.7949,6.0452,6.3091,6.4681,6.6203,6.8335,7.0331,7.1988,7.3037,7.5415,7.757,0.0,8.031,8.1731,8.2475,8.2847,8.3152,8.3456,8.3625,8.3802,8.4133,8.414,8.4471,8.5249,8.5317,8.5486,8.5899,8.5933,8.5933,8.5933,8.552,8.5317,8.5317,8.4817,8.4614,8.4614,8.4614,8.4614,8.4614,8.4614,8.4614,8.4614,8.4614,8.4614,8.4614,8.4614,8.4614,8.4614,8.4614,8.4614,8.4512,8.3903,8.3667,8.3667,8.3667,8.3667,8.3599,8.3186,8.305,8.2949,8.2543,8.2408,8.2408,8.2408,8.2408,8.234,8.2035,8.1934,8.1765,8.1021,8.0818,8.0648,7.9904,7.9397,7.9025,7.872,7.8044,7.7536,7.7536,7.6893,7.6183,7.5574,7.4695,7.3984,7.3567,7.3229,7.3037,7.3037,7.2766,7.2462,7.2146,7.2146,7.2011,7.1684,7.165,7.165,7.165,7.165,7.1808,7.2112,7.2428,7.2935,7.368,7.4424,7.4999,7.5506,7.6555,7.6715,5.5696,5.6934,5.8355,5.8983,6.1941,6.4965,6.5933,6.7692,6.962,7.1345,7.2969,7.4458,7.5642,7.7807,7.9634,8.0378,8.1731,8.2881,8.3422,8.349,8.3422,8.3219,8.349,8.3768,8.3971,8.4546,8.5182,8.5784,8.5993,8.6332,8.6873,8.6907,8.6805,8.6602,8.6061,8.5689,8.5452,8.4884,8.4614,8.4614,8.4614,8.4614,8.4614,8.4614,8.4614,8.4614,8.4614,8.4614,8.4614,8.4614,8.4614,8.4614,8.4614,8.4614,8.4614,8.4614,8.4614,8.4614,8.4614,8.4614,8.4512,8.3998,8.3795,8.3693,8.3159,8.299,8.299,8.299,8.299,8.2956,8.278,8.2712,8.2509,8.1765,8.1596,8.1393,8.0648,8.0073,7.9667,7.9464,7.8822,7.828,7.828,7.7671,7.7198,7.7198,7.6251,7.5202,7.4221,7.3916,7.3737,7.3534,7.35,7.35,7.35,7.35,7.35,7.35,7.35,7.35,7.35,7.35,7.3703,7.4109,7.4109,7.4559,7.554,7.6082,7.6623,7.7232,7.7942,7.8416,5.5233,5.7288,5.9487,6.1704,6.5019,6.8166,6.9688,7.1176,7.2902,7.5067,7.5574,7.6318,7.8526,7.9634,8.0412,8.1148,8.2475,8.3456,8.349,8.349,8.3219,8.2543,8.1832,8.1663,8.2408,8.4471,8.5757,8.5817,8.6467,8.6873,8.6907,8.6907,8.6569,8.5885,8.5817,8.5418,8.4647,8.4614,8.4614,8.4614,8.4614,8.4614,8.4614,8.4614,8.4614,8.4614,8.4614,8.4614,8.4614,8.4614,8.4614,8.4614,8.4614,8.4614,8.4614,8.4614,8.4614,8.4614,8.4614,8.4614,8.4614,8.458,8.458,8.4546,8.4546,8.4512,8.4512,8.4512,8.4512,8.4377,8.3659,8.3456,8.3287,8.2543,8.2374,8.2171,8.1452,8.1249,8.1021,8.031,7.9566,7.9067,7.9067,7.845,7.7967,7.7967,7.7933,7.7333,7.5811,7.4999,7.4289,7.3601,7.35,7.35,7.35,7.35,7.35,7.35,7.35,7.35,7.35,7.35,7.4153,7.5608,7.5642,7.6386,7.7899,7.7933,7.7967,7.8,7.872,7.9464,5.8195,6.0994,6.3869,6.5595,6.8504,7.1142,7.218,7.3138,7.4221,7.5439,7.5709,7.5946,7.669,7.828,7.9701,8.0445,8.2205,8.3659,8.4167,8.4234,8.3592,8.1866,8.2306,0.0,0.0,8.2509,8.4167,8.5716,8.6467,8.711,8.7617,8.8091,8.8023,8.7279,8.6771,8.6163,8.5384,8.4877,8.4614,8.4614,8.4614,8.4614,8.4614,8.4614,8.4614,8.4614,8.4614,8.4614,8.4614,8.4614,8.4614,8.4614,8.4614,8.4614,8.4614,8.4614,8.4614,8.4614,8.4614,8.4614,8.4614,8.4614,8.4614,8.4614,8.4614,8.4614,8.4614,8.4614,8.4614,8.4546,8.4275,8.4234,8.4065,8.3321,8.3118,8.2915,8.2205,8.2035,8.1799,8.1054,8.0716,8.0412,7.9904,7.9228,7.8551,7.8044,7.8,7.7831,7.7266,7.6589,7.6048,7.5777,7.5743,7.5743,7.5743,7.6183,7.6512,7.6512,7.6512,7.6512,7.6512,7.6512,7.6715,7.7198,7.7256,7.7705,7.872,7.872,7.9228,8.02,8.0445,8.0953,6.1607,6.4444,6.6948,6.9011,7.1379,7.3308,7.3781,7.4458,7.5134,7.5608,7.5506,7.5303,7.5303,7.6284,7.7705,7.9532,8.1224,8.2847,8.4377,8.4377,8.349,8.1554,8.19,8.1866,0.0,0.0,8.2949,8.5215,8.6332,8.7245,8.7955,8.87,8.8734,8.8023,8.7279,8.6535,8.5817,8.5012,8.4614,8.4614,8.4614,8.4614,8.4614,8.4614,8.4614,8.4614,8.4614,8.4614,8.4614,8.4614,8.4614,8.4614,8.4614,8.4614,8.4614,8.4614,8.4614,8.4614,8.4614,8.4614,8.4614,8.4614,8.4614,8.4614,8.4614,8.4614,8.4614,8.4614,8.4614,8.4614,8.4614,8.4614,8.4478,8.4031,8.3896,8.3693,8.2949,8.278,8.2577,8.1832,8.1697,8.146,8.0716,7.9972,7.9329,7.8855,7.8813,7.861,7.8068,7.757,7.7299,7.7299,7.7299,7.7299,7.7299,7.7705,7.8,7.8,7.8,7.8,7.8,7.8,7.8111,7.8382,7.8653,7.9126,7.9904,8.0175,8.0784,8.1697,8.1697,8.2103,6.5278,6.7557,6.8876,7.1785,7.3612,7.4661,7.4661,7.5168,7.5642,7.5608,7.4931,7.4299,0.0,0.0,7.4593,7.8256,7.9667,8.1257,8.4174,8.3998,8.3016,0.0,0.0,0.0,0.0,0.0,0.0,8.4377,8.5966,8.7177,8.7888,8.8632,8.8728,8.7955,8.7245,8.6501,8.575,8.4979,8.4614,8.4614,8.4614,8.4614,8.4614,8.4614,8.4614,8.4614,8.4614,8.4614,8.4614,8.4614,8.4614,8.4614,8.4614,8.4614,8.4614,8.4614,8.4614,8.4614,8.4614,8.4614,8.4614,8.4614,8.4614,8.4614,8.4614,8.4614,8.4614,8.4614,8.4614,8.4614,8.4614,8.4614,8.4614,8.4614,8.4614,8.4411,8.3693,8.3558,8.3355,8.2611,8.2441,8.2171,8.1486,8.0784,8.031,8.031,8.031,7.9769,7.828,7.8102,7.8044,7.8044,7.8044,7.8044,7.8044,7.8102,7.8111,7.817,7.817,7.8204,7.8237,7.8237,7.8551,7.9236,7.9972,8.0648,8.1384,8.2069,8.2441,8.2475,8.2509,8.2915,6.7628,7.0263,7.2394,7.3713,7.4728,7.5439,7.5439,7.5134,7.4728,7.4153,7.2157,7.0331,6.9722,7.0838,7.2732,7.5314,7.872,0.0,8.4242,8.4444,0.0,8.2306,0.0,8.2306,8.1384,8.1799,0.0,8.3693,8.5215,8.6399,8.7144,8.7888,8.7955,8.7211,8.6467,8.5689,8.4884,8.4681,8.4614,8.4614,8.4614,8.4614,8.4614,8.4614,8.4614,8.4614,8.4614,8.4614,8.4614,8.4614,8.4614,8.4614,8.4614,8.4614,8.4614,8.4614,8.4614,8.4614,8.4614,8.4614,8.4614,8.4614,8.4614,8.4614,8.4614,8.4614,8.4614,8.4614,8.4614,8.4614,8.4614,8.4614,8.4614,8.4614,8.4614,8.4546,8.4343,8.4309,8.4072,8.3355,8.278,8.234,8.2171,8.1968,8.1832,8.1832,8.1832,8.1325,7.9837,7.916,7.8822,7.8822,7.8822,7.8822,7.8822,7.9329,7.987,8.0437,8.0471,8.0682,8.1257,8.1291,8.1359,8.1562,8.1765,8.1934,8.2137,8.2306,8.2678,8.3219,8.3768,8.4471,7.1109,7.3206,7.4728,7.5811,7.6149,7.5946,7.4965,7.4153,7.2969,7.0567,6.8504,6.6779,6.5696,6.7049,6.962,7.3477,7.7333,8.0953,8.414,8.4614,8.4174,0.0,8.3524,0.0,8.2374,8.2949,8.3558,8.3964,8.4776,8.5621,8.6366,8.711,8.7482,8.738,8.6332,8.5418,8.4614,8.4614,8.4614,8.4614,8.4614,8.4614,8.4614,8.4614,8.4614,8.4614,8.4614,8.4614,8.4614,8.4614,8.4614,8.4614,8.4614,8.4614,8.4614,8.4614,8.4614,8.4614,8.4614,8.4614,8.4614,8.4614,8.4614,8.4614,8.4614,8.4614,8.4614,8.4614,8.4614,8.4614,8.4614,8.4614,8.4614,8.4614,8.4614,8.4614,8.4614,8.4614,8.4478,8.4065,8.3389,8.2881,8.2881,8.2611,8.2408,8.2408,8.2408,8.2103,8.1257,8.0818,8.0412,8.0107,8.0378,8.0547,8.0547,8.0953,8.1359,8.1765,8.1765,8.1968,8.2408,8.2408,8.2408,8.2408,8.2712,8.2881,8.2881,8.3558,8.4099,8.4505,8.5283,8.5858,7.4627,7.5845,7.6318,7.7696,7.7367,7.6183,7.4007,7.2597,7.0601,6.6427,6.4647,6.3497,6.2313,6.3463,6.6508,7.2417,7.6048,7.9701,8.414,8.4749,8.4573,8.4031,8.4539,8.4647,8.3998,8.4539,8.4918,8.4918,8.4918,8.5182,8.5784,8.6399,8.7008,8.7516,8.6298,8.5317,8.4614,8.4614,8.4614,8.4614,8.4614,8.4614,8.4614,8.4614,8.4614,8.4614,8.4614,8.4614,8.4614,8.4614,8.4614,8.4614,8.4614,8.4614,8.4614,8.4614,8.4614,8.4614,8.4715,8.4681,8.4614,8.4614,8.4614,8.4614,8.4614,8.4614,8.4614,8.4614,8.4614,8.4614,8.4614,8.4614,8.4614,8.4614,8.4614,8.4614,8.4614,8.4614,8.4614,8.4614,8.4099,8.3659,8.3659,8.3118,8.2712,8.2712,8.2712,8.2678,8.2577,8.2475,8.2171,8.1494,8.2035,8.2408,8.2408,8.2408,8.2441,8.2543,8.2543,8.2611,8.2712,8.2712,8.2746,8.2847,8.349,8.3828,8.3964,8.5283,8.5953,8.596,8.6704,8.711,7.5337,7.6623,7.7696,7.7933,7.6927,7.5473,7.3872,7.1007,0.0,6.5324,6.2212,6.0061,6.0419,6.2753,6.6339,7.1718,7.6149,8.0479,8.4945,8.5587,8.5757,0.0,8.6433,8.6467,8.6332,8.6433,8.6501,8.6501,8.6501,8.6298,8.5851,8.5892,8.5723,8.5189,8.4918,8.4749,8.4614,8.4614,8.4614,8.4614,8.4614,8.4614,8.4614,8.4614,8.4614,8.4614,8.4614,8.4614,8.4614,8.4614,8.4614,8.4614,8.4614,8.4614,8.4614,8.4614,8.4614,8.4681,8.5351,8.5182,8.4614,8.4614,8.4614,8.4614,8.4614,8.4614,8.4614,8.4614,8.4614,8.4614,8.4614,8.4614,8.4614,8.4614,8.4614,8.4614,8.4614,8.4614,8.4614,8.4614,8.4478,8.4411,8.4411,8.4309,8.4208,8.4208,8.4208,8.3971,8.3389,8.278,8.2374,8.2238,8.234,8.2408,8.2408,8.2408,8.2678,8.3253,8.3321,8.3592,8.4174,8.4208,8.4539,8.5182,8.5344,8.5689,8.6332,8.6602,8.6704,8.6738,8.7482,8.8125,7.7063,7.801,7.8653,7.9025,7.7705,7.5439,7.1988,6.8876,0.0,6.0926,5.854,5.7255,5.7239,5.9979,6.3599,6.7692,7.1785,7.6318,8.1562,8.2644,8.3727,8.6061,8.7008,8.7313,8.6941,8.7245,8.7313,8.6941,8.6907,8.6771,8.6399,8.6366,8.6027,8.5249,8.5215,8.5215,8.5215,8.4783,8.4614,8.4614,8.4614,8.4614,8.4614,8.4614,8.4614,8.4614,8.4614,8.4614,8.4614,8.4614,8.4614,8.4614,8.4614,8.4614,8.4647,8.508,8.5215,8.5317,8.6095,8.6129,8.573,8.5351,8.4945,8.4614,8.4614,8.4614,8.4614,8.4614,8.4614,8.4614,8.4614,8.4614,8.4614,8.4614,8.4614,8.4614,8.4614,8.4614,8.4614,8.4614,8.4614,8.4614,8.4614,8.4614,8.4614,8.4614,8.4614,8.4478,8.4133,8.3768,8.3422,8.3016,8.3321,8.3531,8.3531,8.393,8.4302,8.4674,8.5046,8.5452,8.5763,8.5797,8.5993,8.6366,8.6366,8.6569,8.6907,8.7685,8.8023,8.8057,8.9173,8.9918,7.8348,7.9092,7.9431,7.987,7.828,7.527,7.0026,6.6846,6.3226,5.6984,5.5462,5.5158,5.4871,5.7442,6.0757,6.4275,6.7827,7.2326,7.8483,8.0242,8.2238,8.5824,8.7414,0.0,8.7448,8.7753,8.7753,8.7177,8.7144,8.7008,8.667,8.667,8.6332,8.5554,8.552,8.552,8.552,8.4918,8.4614,8.4614,8.4614,8.4614,8.4614,8.4614,8.4614,8.4614,8.4614,8.4614,8.4614,8.4614,8.4614,8.4614,8.4783,8.485,8.4952,8.5723,8.6027,8.6129,8.6873,8.7042,8.6839,8.6399,8.5621,8.4817,8.4647,8.4614,8.4614,8.4614,8.4614,8.4614,8.4614,8.4614,8.4614,8.4614,8.4614,8.4614,8.4614,8.4614,8.4614,8.4614,8.4614,8.4614,8.4614,8.4614,8.4614,8.4614,8.4614,8.4614,8.4614,8.4614,8.4444,8.4031,8.4505,8.485,8.485,8.5587,8.6027,8.6027,8.6602,8.6907,8.6907,8.6907,8.7076,8.738,8.738,8.755,8.7854,8.9004,8.9574,8.9579,9.0763,9.1305,7.7841,7.9058,7.9938,7.9363,7.7502,7.4424,6.9214,6.5256,6.1366,5.668,5.4617,5.4076,5.5361,5.6968,5.9761,6.4803,6.8187,7.2518,7.916,8.19,8.4336,8.7414,0.0,0.0,8.8897,8.8328,8.7955,8.7888,8.7888,8.7313,8.596,8.5919,8.5554,8.4749,8.4715,8.4715,8.4715,8.4647,8.4614,8.4614,8.4614,8.4614,8.4614,8.4614,8.4614,8.4614,8.4614,8.4614,8.4614,8.4614,8.4614,8.4681,8.5384,8.5716,8.5757,8.6535,8.6805,8.6907,8.7651,8.7482,8.7008,8.7617,8.6839,8.5554,8.4817,8.4614,8.4614,8.4614,8.4614,8.4614,8.4614,8.4614,8.4614,8.4614,8.4614,8.4614,8.4614,8.4614,8.4614,8.4614,8.4614,8.4614,8.4614,8.4614,8.4614,8.4614,8.4614,8.4614,8.4614,8.4614,8.485,8.552,8.5621,8.5716,8.5716,8.6366,8.6805,8.6805,8.6873,8.6907,8.6907,8.6907,8.7516,8.8869,8.8897,8.9545,9.0899,9.1034,9.1102,9.1102,9.1237,9.1305,7.8077,7.9397,8.0141,7.9837,7.7705,7.4221,6.8538,6.4715,6.0858,5.548,5.3923,5.3687,5.4262,5.5209,5.6885,5.9844,6.1704,6.5141,7.1853,7.4356,7.7773,8.3896,8.5689,8.711,8.8931,8.8835,8.8632,8.8632,8.8632,8.8192,8.7177,8.6704,8.6332,8.5966,8.5087,8.4817,8.5317,8.4817,8.4614,8.4614,8.4614,8.4995,8.5719,8.6225,8.6852,8.7534,8.7235,8.7143,8.7032,8.5826,8.5317,8.5317,8.5148,8.508,8.5249,8.6467,8.6907,8.7076,8.826,8.8463,8.8192,8.8057,8.7583,8.6974,8.623,8.5966,8.5966,8.5966,8.5655,8.5317,8.5317,8.4979,8.4614,8.4614,8.4614,8.4614,8.4614,8.4614,8.4614,8.4614,8.4614,8.4614,8.4614,8.4614,8.4614,8.4614,8.4614,8.4614,8.4614,8.4614,8.4911,8.5689,8.5817,8.596,8.6433,8.7144,8.755,8.755,8.7989,8.8226,8.8226,8.8226,8.87,8.9748,8.9748,9.0256,9.1305,9.1744,9.1981,9.1981,9.2455,9.2658,7.7908,7.9464,8.0107,7.9667,7.7266,7.3477,6.7523,6.3869,6.0148,5.4634,5.3518,5.3518,5.3518,5.3923,5.4837,5.6528,5.7983,6.1095,6.7387,6.9925,7.3646,8.031,8.2212,8.4167,8.7144,8.8572,8.9328,8.9328,8.9328,8.9035,8.8355,8.7617,8.7301,8.7461,8.6397,8.63,8.7221,8.6671,8.6268,8.6062,8.6294,8.6705,8.7344,8.8195,8.8857,8.926,8.8941,8.8593,8.8132,8.6695,8.6129,8.6095,8.5757,8.5594,8.573,8.6839,8.7245,8.738,8.8395,8.8767,8.8734,8.8395,8.8328,8.8226,8.7719,8.7245,8.6907,8.6907,8.6366,8.5817,8.5817,8.5215,8.4614,8.4614,8.4614,8.4614,8.4614,8.4614,8.4681,8.4911,8.4952,8.5019,8.5222,8.5256,8.5256,8.5256,8.5087,8.4952,8.4952,8.4952,8.5283,8.6027,8.6298,8.667,8.7177,8.7888,8.8328,8.8328,8.8829,8.9201,8.941,8.941,8.9884,9.0831,9.0865,9.1237,9.1981,9.2522,9.2759,9.2793,9.3334,9.3364,7.6995,7.9058,7.9837,7.8407,7.5767,7.1954,6.5967,6.2279,5.8863,5.4431,5.3518,5.3518,5.3518,5.3518,5.4228,5.6427,5.9302,6.3091,6.8368,7.1616,7.4617,7.7696,7.8686,8.0344,8.3253,8.7384,8.9904,8.9904,8.9904,8.9664,8.9122,8.8395,8.8231,8.8745,8.8761,8.9361,9.0629,9.0629,9.0216,8.9485,9.0252,9.0239,8.9508,9.031,8.9987,8.8811,8.8786,8.8097,8.6907,8.6907,8.6907,8.6974,8.7685,8.7955,8.7955,8.7989,8.7989,8.7989,8.7989,8.8023,8.8125,8.8835,8.91,8.91,8.91,8.8057,8.6907,8.6907,8.6366,8.5817,8.5817,8.5215,8.4614,8.4614,8.4614,8.4614,8.4614,8.4614,8.4817,8.5621,8.5784,8.5993,8.6771,8.6907,8.6907,8.6907,8.623,8.5784,8.5784,8.5784,8.6061,8.6805,8.755,8.7989,8.7989,8.8632,8.91,8.91,8.91,8.941,9.0154,9.0188,9.0899,9.2358,9.2358,9.2793,9.3601,9.3601,9.3601,9.3601,9.3601,9.2759,7.1312,7.3713,7.5158,7.3161,7.1548,6.918,6.4208,6.1535,5.8829,5.4431,5.3518,5.3518,5.3518,5.3518,5.4566,5.778,5.9081,6.14,6.6102,6.935,7.2755,7.6758,8.1934,8.5757,8.7177,8.8565,8.9349,8.9349,8.9349,8.9294,8.9128,8.9695,8.9889,8.9558,8.9063,8.942,9.0687,9.071,9.0568,9.0333,9.0604,9.1011,9.1577,9.2389,9.2963,9.3311,9.2103,9.1375,9.0857,8.8597,8.7651,8.7617,8.7347,8.7245,8.7313,8.782,8.7989,8.8057,8.8564,8.8734,8.87,8.8429,8.8666,8.9032,8.8497,8.8361,8.8294,8.7786,8.711,8.6433,8.5953,8.5587,8.5283,8.4715,8.5046,8.5418,8.5418,8.5824,8.6237,8.6501,8.6569,8.6636,8.6873,8.6907,8.6907,8.6907,8.6704,8.6569,8.6569,8.6569,8.6839,8.7583,8.7854,8.8192,8.87,8.8998,8.9309,8.9816,8.985,9.0188,9.0932,9.0966,9.1406,9.2358,9.2392,9.2793,9.3601,9.3601,9.3601,9.3601,9.3601,9.303,6.7692,7.0398,7.1943,7.0556,6.8977,6.6779,6.2888,6.0351,5.7848,5.4262,5.3518,5.3518,5.3518,5.3518,5.4363,5.6934,5.8269,6.0366,6.4309,6.7692,7.1548,7.6318,8.2205,8.6661,8.8657,8.9872,9.0526,9.0526,9.0526,9.0323,8.9826,9.0587,9.1205,9.1714,9.1304,9.1689,9.2949,9.2949,9.2553,9.1805,9.209,9.2224,9.2215,9.3026,9.3538,9.3762,9.2637,9.1915,0.0,8.9267,8.8395,8.8361,8.7922,8.7719,8.7753,8.7922,8.7989,8.8057,8.8531,8.8497,8.8226,8.8057,8.8294,8.8632,8.8463,8.8761,8.8998,8.8531,8.7888,8.7211,8.6738,8.6399,8.6095,8.5594,8.5858,8.6196,8.6196,8.6569,8.6974,8.7279,8.7313,8.7414,8.7685,8.7719,8.7719,8.7719,8.7482,8.7313,8.7313,8.7313,8.7482,8.7955,8.826,8.87,8.9444,8.9269,8.9303,8.9748,9.0053,9.0527,9.1271,9.1575,9.2083,9.2861,9.2861,9.3098,9.3601,9.3601,9.3601,9.3601,9.3601,9.3165,0.0,6.8233,6.9417,6.9304,6.7206,6.4377,6.1535,5.8727,0.0,5.3957,5.3518,5.3518,5.3585,5.3551,5.3822,5.4769,5.7306,6.0235,6.3258,6.7188,7.1672,7.6893,8.075,8.4414,8.8219,9.1185,9.2896,9.2896,9.2896,9.237,9.1194,9.1219,9.2346,9.472,9.487,9.5488,9.6685,9.6649,9.5609,9.3615,9.43,9.3563,9.1646,9.2472,9.2178,9.1047,9.1014,9.0323,8.924,8.9128,8.91,8.91,8.91,8.91,8.9032,8.8328,8.8091,8.8057,8.8023,8.755,8.711,8.7786,8.7955,8.8057,8.8863,8.9066,8.9032,8.91,8.8564,8.7989,8.7989,8.7482,8.6974,8.6913,8.6941,8.6974,8.6974,8.7042,8.7279,8.7955,8.8091,8.8294,8.8998,8.91,8.91,8.91,8.8497,8.8091,8.8091,8.8091,8.8091,8.8091,8.8666,8.9376,9.0154,8.9579,8.9207,8.9337,8.9985,9.0696,9.144,9.2116,9.2861,9.3601,9.3601,9.3601,9.3601,9.3601,9.3601,9.3601,9.3601,9.3199,5.7983,0.0,6.2076,6.0351,5.9844,5.9253,0.0,5.6477,5.5496,5.3856,5.3518,5.3687,5.4228,5.389,5.4499,5.7457,5.9539,6.1858,6.4969,7.158,7.8015,8.3087,8.6319,8.8731,9.0239,9.1923,9.2896,9.2896,9.2896,9.2778,9.2467,9.3399,9.4181,9.4784,9.5749,9.6397,9.6722,9.6098,9.5081,9.3657,9.326,9.2302,9.0948,9.1704,9.1906,9.1608,9.117,9.0815,9.0482,8.9477,8.91,8.91,8.91,8.91,8.91,8.8931,8.8835,8.8761,8.8192,8.7888,8.7753,8.7955,8.7617,8.7414,8.8728,8.87,8.8361,8.8965,8.8564,8.7989,8.7989,8.7854,8.7617,8.7042,8.7347,8.7753,8.7753,8.8158,8.8632,8.8829,8.8835,8.8897,8.9066,8.91,8.91,8.91,8.8965,8.8835,8.8835,8.8835,8.8835,8.8835,8.8998,8.9376,9.0154,9.0053,9.0425,9.1546,9.1783,9.2252,9.303,9.3233,9.3402,9.3601,9.3601,9.3601,9.3601,9.3601,9.3601,9.3601,9.3601,9.347,5.46,5.6833,5.8964,5.8457,5.8084,5.7679,5.69,5.5919,5.4871,5.3754,5.3518,5.3619,5.4025,5.4059,5.4769,5.7119,5.9727,6.3477,6.9268,7.5959,8.1598,8.5354,8.875,9.1074,9.182,9.3014,9.3787,9.3787,9.3787,9.3787,9.3787,9.4423,9.5076,9.5668,9.6358,9.6539,9.6171,9.5712,9.4696,9.3094,9.2431,9.1471,9.0309,9.0498,9.0543,9.0552,9.0257,9.0116,9.0062,8.9373,8.91,8.91,8.91,8.91,8.91,8.91,8.91,8.8998,8.826,8.7786,8.7516,8.7516,8.7448,8.7617,8.8761,8.8801,8.8564,8.8998,8.8829,8.8497,8.8497,8.8497,8.8395,8.7989,8.8192,8.8497,8.8497,8.8801,8.91,8.91,8.91,8.91,8.91,8.91,8.91,8.91,8.91,8.9207,8.9545,8.9337,8.9371,9.0047,8.9816,9.0053,9.1135,9.1208,9.1411,9.188,9.2189,9.2595,9.303,9.3402,9.3601,9.3601,9.3601,9.3601,9.3601,9.3601,9.3601,9.3601,9.3601,9.3601,5.3923,5.5919,5.8084,5.8896,5.822,5.7358,5.7257,5.5802,5.4262,5.3619,5.3518,5.3585,5.3788,5.4431,5.5243,5.6206,6.015,6.5951,7.4223,7.9838,8.3872,8.6015,8.9804,9.2491,9.3107,9.4358,9.5097,9.5097,9.4891,9.487,9.5076,9.472,9.5097,9.6377,9.6223,9.5722,9.4918,9.5302,9.4458,9.2418,9.1817,9.0875,8.9604,8.9158,8.8931,8.8965,8.9066,8.91,8.91,8.91,8.91,8.91,8.91,8.91,8.91,8.91,8.91,8.8998,8.826,8.7448,8.6771,8.7008,8.7482,8.8125,8.8897,8.91,8.91,8.91,8.91,8.91,8.91,8.91,8.91,8.91,8.91,8.91,8.91,8.91,8.91,8.91,8.9201,8.9235,8.9134,8.9303,8.9404,8.9275,8.9342,8.9647,9.029,8.9816,8.9884,9.1169,9.0729,9.0932,9.2257,9.2392,9.2189,9.1677,9.2252,9.2561,9.2561,9.3233,9.3601,9.3601,9.3601,9.3601,9.3601,9.3601,9.3601,9.3601,9.3601,9.3668,5.5784,5.707,5.7358,5.5074,5.4803,5.4938,5.4329,5.3923,5.3653,5.3518,5.3518,5.3873,5.5124,5.5987,5.7103,5.9099,6.5171,7.1492,7.6763,8.2237,8.6361,8.8137,9.1892,9.4381,9.4489,9.5668,9.6416,9.6416,9.5405,9.5265,9.6358,9.438,9.3787,9.5055,9.4034,9.3099,9.2293,9.4427,9.4477,9.2481,9.1328,9.0139,8.8943,8.8401,8.8158,8.8192,8.8829,8.91,8.91,8.91,8.91,8.91,8.91,8.91,8.91,8.91,8.91,8.8998,8.826,8.711,8.6163,8.7414,8.7922,8.8125,8.8897,8.91,8.91,8.91,8.91,8.91,8.91,8.91,8.91,8.91,8.91,8.91,8.91,8.91,8.91,8.91,8.9579,8.9816,8.9235,9.0121,9.0729,9.0121,9.056,9.1,9.1102,9.1034,9.1034,9.1271,9.1203,9.1474,9.2324,9.2392,9.2658,9.3228,9.3334,9.3402,9.3402,9.3503,9.3601,9.3601,9.3601,9.3601,9.3601,9.3601,9.3601,9.3601,9.3601,9.3909,5.4735,5.5547,5.6072,5.5919,5.6731,5.7374,5.6664,5.5852,5.5277,5.5277,5.4972,5.5124,5.663,5.8186,6.0778,6.5529,7.0531,7.5081,7.8828,8.4164,8.7942,8.8703,9.2934,9.5586,9.4848,9.5947,9.6685,9.6685,9.6163,9.5769,9.5688,9.4554,9.3877,9.3787,9.3201,9.2483,9.1717,9.3282,9.3208,9.1385,9.0575,8.9866,8.9343,8.8817,8.8564,8.8598,8.8965,8.91,8.91,8.91,8.91,8.91,8.91,8.91,8.91,8.91,8.8863,8.8463,8.8125,8.755,8.7076,8.7786,8.826,8.8632,8.8998,8.91,8.91,8.91,8.91,8.91,8.91,8.91,8.91,8.91,8.91,8.9235,8.9613,8.9376,8.9337,9.0121,9.0256,9.0222,9.0256,9.0831,9.1169,9.0865,9.1068,9.144,9.1846,9.1541,9.1609,9.2455,9.215,9.2218,9.2996,9.3064,9.3199,9.3601,9.3601,9.3601,9.3601,9.3601,9.3601,9.3601,9.3601,9.3601,9.3601,9.3601,9.3774,9.418,9.418,9.4586,5.4397,5.4803,5.5581,5.7645,5.8626,5.9201,5.9708,5.8524,5.7476,5.8017,5.7543,5.739,5.8693,6.1231,6.5134,7.1295,7.5313,7.8502,8.1009,8.6233,8.9779,8.9681,9.3575,9.5987,9.5322,9.5606,9.5947,9.6223,9.5708,9.5076,9.438,9.3787,9.3131,9.2467,9.2151,9.1698,9.1113,9.1698,9.1605,9.0786,9.0319,9.007,9.0054,8.9397,8.91,8.91,8.91,8.91,8.91,8.91,8.91,8.91,8.91,8.91,8.91,8.91,8.8632,8.8023,8.8192,8.8125,8.8023,8.8192,8.8632,8.91,8.91,8.91,8.91,8.91,8.91,8.91,8.91,8.91,8.91,8.91,8.9235,8.9512,9.0087,8.9884,8.9951,9.1068,9.1,9.0865,9.1237,9.1609,9.1778,9.1575,9.1711,9.2049,9.2624,9.2184,9.2286,9.3499,9.3064,9.2928,9.3567,9.3601,9.3601,9.3601,9.3601,9.3601,9.3601,9.3601,9.3601,9.3601,9.3774,9.3842,9.3842,9.4011,9.4417,9.4958,9.4958,9.5364,5.702,5.7103,5.7002,5.854,5.7457,5.7085,6.1197,6.0452,0.0,6.1569,0.0,6.1129,6.1927,6.5628,6.9811,7.3738,7.8742,8.2564,8.3785,8.9049,9.2652,9.2289,9.381,9.5363,9.6455,9.4511,9.3638,9.4848,9.273,9.189,9.2991,9.0815,8.9982,9.1091,9.0016,8.9339,8.9305,8.9339,9.0147,9.1623,9.1146,9.0893,9.0867,8.9662,8.91,8.91,8.91,8.91,8.91,8.91,8.91,8.91,8.91,8.91,8.91,8.91,8.8632,8.8091,8.8767,8.8564,8.8091,8.8801,8.9066,8.91,8.91,8.91,8.91,8.91,8.91,8.91,8.91,8.91,8.91,8.91,8.9613,9.0154,9.0188,9.0696,9.1169,9.1271,9.1812,9.202,9.1406,9.2489,9.3165,9.2426,9.2962,9.3436,9.3533,9.3499,9.3499,9.3601,9.3567,9.3567,9.3601,9.3601,9.3601,9.3601,9.3601,9.3601,9.3601,9.3601,9.3601,9.3601,9.4282,9.462,9.462,9.5296,9.5669,9.5702,9.5702,9.6108,5.5632,5.5987,5.6815,5.9708,5.9791,0.0,0.0,6.3477,6.4356,6.6203,6.5933,0.0,6.6406,6.9451,7.2994,7.6564,8.0763,8.4141,8.5782,8.9182,9.1769,9.2424,9.3169,9.4101,9.5405,9.3922,9.3108,9.357,9.273,9.2063,9.1741,9.0815,9.0143,8.9826,8.9345,8.91,8.91,8.91,8.9423,9.006,8.9899,8.9799,8.9799,8.9317,8.91,8.91,8.91,8.91,8.91,8.91,8.91,8.91,8.91,8.91,8.91,8.91,8.8931,8.8728,8.8998,8.8931,8.8734,8.9032,8.91,8.91,8.91,8.91,8.91,8.91,8.91,8.91,8.91,8.91,8.9235,8.9681,9.0019,9.0459,9.1343,9.144,9.1575,9.2522,9.2556,9.2489,9.2692,9.3228,9.347,9.3199,9.3402,9.3601,9.3601,9.3601,9.3601,9.3601,9.3601,9.3601,9.3601,9.3601,9.3601,9.3601,9.3601,9.3601,9.3601,9.3601,9.3808,9.4282,9.4552,9.4924,9.5364,9.5669,9.6041,9.648,9.648,9.6886,5.4668,5.4803,5.58,5.9066,6.0419,0.0,6.4255,6.6718,6.8858,7.0521,7.0026,6.9594,7.046,7.2695,7.5501,7.8951,8.2769,8.5966,8.7749,9.0158,9.2072,9.2949,9.3322,9.399,9.5301,9.3663,9.2813,9.3455,9.2295,9.1414,9.1014,9.0398,8.9776,8.9128,8.91,8.91,8.91,8.91,8.91,8.91,8.91,8.91,8.91,8.91,8.91,8.91,8.91,8.91,8.91,8.91,8.91,8.91,8.91,8.91,8.91,8.91,8.91,8.91,8.91,8.91,8.91,8.91,8.91,8.91,8.91,8.91,8.91,8.91,8.91,8.9168,8.9376,8.9444,8.9613,9.0357,9.0729,9.1169,9.2189,9.2218,9.2319,9.3398,9.3165,9.2962,9.3533,9.3601,9.3601,9.3601,9.3601,9.3601,9.3601,9.3601,9.3601,9.3601,9.3601,9.3601,9.3601,9.3601,9.3601,9.3601,9.3808,9.3842,9.3634,9.3808,9.418,9.4687,9.5161,9.5635,9.6142,9.6379,9.6751,9.7225,9.7225,9.7529,5.4803,5.4093,5.4059,5.6292,5.8524,6.1535,6.6745,7.001,7.2424,7.4273,7.3477,7.2756,7.3743,7.5252,7.7417,8.0765,8.4915,8.8241,8.981,9.25,9.4299,9.4299,9.4604,9.5265,9.6533,9.3661,9.2545,9.459,9.1009,8.9343,9.0893,8.9089,8.8328,8.9066,8.91,8.91,8.91,8.91,8.91,8.91,8.91,8.91,8.91,8.91,8.91,8.91,8.91,8.91,8.91,8.91,8.91,8.91,8.91,8.91,8.91,8.91,8.91,8.91,8.91,8.91,8.91,8.91,8.91,8.91,8.91,8.91,8.91,8.91,8.9134,8.9303,9.0019,9.0222,9.0425,9.1135,9.188,9.2392,9.2392,9.303,9.3601,9.3601,9.3601,9.3601,9.3601,9.3601,9.3601,9.3601,9.3601,9.3601,9.3601,9.3601,9.3601,9.3601,9.3601,9.3601,9.3601,9.3601,9.3601,9.3634,9.4282,9.4383,9.3639,9.4315,9.4721,9.4721,9.6142,9.6917,9.6917,9.7631,9.8003,9.8003,9.8003,9.8003,5.4803,5.5209,5.6494,5.9268,6.2415,6.6068,7.077,7.2439,7.3924,7.7101,7.6995,7.6099,7.5297,7.7123,7.9553,8.1886,8.5805,8.9169,9.1008,9.2268,9.3287,9.4188,9.381,9.3752,9.4426,9.2796,9.1715,9.1785,8.9884,8.9135,9.0105,8.8277,8.755,8.8294,8.782,8.7786,8.8328,8.8328,8.8564,8.91,8.91,8.91,8.91,8.91,8.91,8.91,8.91,8.91,8.91,8.91,8.91,8.91,8.91,8.91,8.91,8.91,8.91,8.91,8.91,8.91,8.91,8.91,8.91,8.91,8.91,8.91,8.91,8.91,8.9478,9.0053,9.0763,9.1372,9.1783,9.2049,9.2223,9.2561,9.3131,9.3436,9.3601,9.3601,9.3601,9.3601,9.3601,9.3601,9.3601,9.3601,9.3601,9.3601,9.3601,9.3601,9.3601,9.3601,9.3601,9.3601,9.3601,9.3601,9.3808,9.4349,9.4586,9.462,9.4383,9.5093,9.5702,9.6244,9.668,9.7188,9.7664,9.7901,9.8003,9.8003,9.8003,9.8003,5.5446,5.6562,5.8389,6.1434,6.4749,6.879,7.4662,7.645,7.7693,8.0492,8.0277,7.9419,7.889,8.0215,8.2128,8.4493,8.7503,9.0092,9.1584,9.2322,9.2968,9.3711,9.3602,9.3566,9.3833,9.2878,9.231,9.2475,9.0304,8.9444,9.0552,8.8255,8.711,8.755,8.7144,8.711,8.755,8.7854,8.8226,8.8694,8.8965,8.91,8.91,8.91,8.91,8.91,8.91,8.91,8.91,8.91,8.91,8.91,8.91,8.91,8.91,8.91,8.91,8.91,8.91,8.91,8.91,8.91,8.91,8.91,8.91,8.91,8.91,8.91,8.9613,9.0391,9.1102,9.1846,9.2459,9.2793,9.2895,9.2996,9.347,9.3601,9.3601,9.3601,9.3601,9.3601,9.3601,9.3601,9.3601,9.3601,9.3601,9.3601,9.3601,9.3601,9.3601,9.3601,9.3601,9.3601,9.3601,9.3601,9.3909,9.4654,9.4992,9.5263,9.5567,9.6007,9.6477,9.6917,9.7191,9.7563,9.8003,9.8003,9.8003,9.8003,9.8003,9.8003,5.6528,5.8051,5.996,6.3207,6.6508,7.0874,7.838,8.1228,8.2638,8.3861,8.3075,8.2384,8.3249,8.3633,8.4762,8.7651,8.9477,9.085,9.1675,9.2537,9.3088,9.3088,9.3822,9.4263,9.4189,9.3529,9.3638,9.4901,9.1455,8.9925,9.134,8.8399,8.671,8.6805,8.6738,8.6738,8.6805,8.7448,8.7903,8.8081,8.8648,8.8987,8.9166,8.9122,8.91,8.91,8.91,8.91,8.91,8.91,8.91,8.91,8.91,8.91,8.91,8.91,8.91,8.91,8.91,8.91,8.91,8.91,8.91,8.91,8.91,8.91,8.9134,8.9201,8.9715,9.0493,9.1203,9.1947,9.2662,9.3402,9.3601,9.3601,9.3601,9.3601,9.3601,9.3601,9.3601,9.3601,9.3601,9.3601,9.3601,9.3601,9.3601,9.3601,9.3601,9.3601,9.3601,9.3601,9.3601,9.3634,9.3673,9.3702,9.4045,9.4857,9.5533,9.621,9.6985,9.7018,9.7018,9.7018,9.7664,9.8003,9.8003,9.8003,9.8003,9.8003,9.8003,9.8003,5.7426,5.9201,6.1941,6.6711,7.2326,7.7696,8.1527,8.3516,8.4498,8.422,8.3634,8.3083,8.2697,8.3908,8.5495,8.7066,8.8901,9.0534,9.162,9.2537,9.3088,9.3088,9.3822,9.4042,9.3418,9.3198,9.2568,9.1277,8.9478,8.8474,8.8513,8.6344,8.5384,8.5993,8.5418,8.5418,8.6027,8.6196,8.7033,8.8562,8.7728,8.8157,8.9613,8.926,8.91,8.91,8.91,8.91,8.91,8.91,8.91,8.91,8.91,8.91,8.91,8.91,8.91,8.91,8.91,8.91,8.91,8.91,8.91,8.91,8.91,8.91,8.9207,8.9816,9.0493,9.1237,9.1981,9.2759,9.3368,9.3567,9.3601,9.3601,9.3601,9.3601,9.3601,9.3601,9.3601,9.3601,9.3601,9.3601,9.3601,9.3601,9.3601,9.3601,9.3601,9.3601,9.3601,9.3601,9.3601,9.3808,9.4417,9.4451,9.5026,9.6345,9.6578,9.6988,9.7732,9.7766,9.7766,9.7766,9.7935,9.8003,9.8003,9.8003,9.8003,9.8003,9.8003,9.8003,5.8829,6.1434,6.4918,7.1244,7.6251,8.0347,8.3023,8.4498,8.5271,8.526,8.5042,8.4745,8.4368,8.5631,8.7079,8.83,8.9834,9.1097,9.1694,9.217,9.2464,9.2464,9.2831,9.2941,9.2501,9.1962,9.133,9.0681,8.896,8.7824,8.7676,8.6427,8.5561,8.5249,8.5182,8.5182,8.5215,8.5587,8.6302,8.7322,8.7023,8.7627,8.8913,8.9061,8.91,8.91,8.91,8.91,8.91,8.91,8.91,8.91,8.91,8.91,8.91,8.91,8.91,8.91,8.91,8.91,8.91,8.91,8.91,8.91,8.91,8.9342,8.9715,9.0087,9.1,9.1913,9.229,9.2996,9.3601,9.3601,9.3601,9.3601,9.3601,9.3601,9.3601,9.3601,9.3601,9.3601,9.3601,9.3601,9.3601,9.3601,9.3601,9.3601,9.3601,9.3909,9.4112,9.4112,9.4417,9.4789,9.5195,9.5229,9.5702,9.6849,9.6917,9.7225,9.7969,9.8003,9.8003,9.8003,9.8003,9.8003,9.8003,9.8003,9.8003,9.8003,9.8003,9.8003,5.981,6.3802,6.847,7.5202,7.8754,8.1231,8.3645,8.4879,8.5652,8.6275,8.6414,8.634,8.6127,8.708,8.829,8.9495,9.0696,9.1583,9.1785,9.1803,9.1803,9.1803,9.1803,9.1712,9.1491,9.0598,9.0151,9.0443,8.8557,8.7354,8.7179,8.6738,8.5899,8.4647,8.5249,8.5283,8.4614,8.5249,8.5688,8.5894,8.6649,8.7227,8.7651,8.8497,8.8998,8.91,8.91,8.91,8.91,8.91,8.91,8.91,8.91,8.91,8.91,8.91,8.91,8.91,8.91,8.91,8.91,8.91,8.91,8.91,8.91,8.9613,9.0222,9.0357,9.1343,9.2426,9.2561,9.3098,9.3601,9.3601,9.3601,9.3601,9.3601,9.3601,9.3601,9.3601,9.3601,9.3601,9.3601,9.3601,9.3601,9.3601,9.3706,9.3774,9.3774,9.4417,9.489,9.489,9.5432,9.5838,9.5973,9.5973,9.6277,9.7052,9.7089,9.736,9.7969,9.8003,9.8003,9.8003,9.8003,9.8003,9.8003,9.8003,9.8003,9.8003,9.8003,9.8003,5.8607,6.529,7.236,7.6014,7.9532,8.2463,8.3887,8.526,8.6275,8.6379,8.6414,8.6078,8.5014,8.5836,8.7056,8.8246,8.9453,9.0618,9.1657,9.1803,9.1803,9.1803,9.1803,9.1398,9.0344,9.0087,8.9193,8.7196,8.6748,8.61,8.5087,8.4957,8.4817,8.4614,8.4681,8.4715,8.4614,8.4715,8.5281,8.635,8.7119,8.7023,8.6156,8.7516,8.8497,8.91,8.91,8.91,8.91,8.91,8.91,8.91,8.91,8.91,8.91,8.91,8.91,8.91,8.91,8.91,8.91,8.91,8.91,8.91,8.91,8.9613,9.0324,9.0966,9.1778,9.2561,9.3267,9.3503,9.3601,9.3601,9.3601,9.3601,9.3601,9.3601,9.3601,9.3601,9.3601,9.3601,9.3601,9.3601,9.3601,9.3601,9.4146,9.4552,9.4552,9.5195,9.5635,9.5635,9.5736,9.6041,9.6714,9.6748,9.7056,9.78,9.7867,9.7901,9.8003,9.8003,9.8003,9.8003,9.8003,9.8003,9.8003,9.8003,9.8003,9.8003,9.8003,9.8003,6.1752,6.8098,7.3849,7.7299,8.0808,8.3354,8.3214,8.5892,8.7861,8.5811,8.6463,8.6817,8.4969,8.5592,8.6793,8.7998,8.9221,9.0404,9.1638,9.1803,9.1803,9.1803,9.1211,9.0598,9.0046,8.8776,8.7538,8.6488,8.576,8.517,8.4606,8.5046,8.508,8.4614,8.5046,8.508,8.4614,8.4614,8.4864,8.5395,8.5737,8.5868,8.5851,8.6907,8.7786,8.8497,8.8931,8.91,8.91,8.91,8.91,8.91,8.91,8.91,8.91,8.91,8.91,8.91,8.91,8.91,8.91,8.91,8.91,8.91,8.91,8.9884,9.0865,9.1203,9.215,9.3165,9.3533,9.3601,9.3601,9.3601,9.3601,9.3601,9.3601,9.3601,9.3601,9.3601,9.3601,9.3601,9.3601,9.3943,9.4214,9.4214,9.4857,9.533,9.533,9.5939,9.6413,9.6413,9.6785,9.7157,9.7495,9.7529,9.7664,9.8003,9.8003,9.8003,9.8003,9.8003,9.8003,9.8003,9.8003,9.8003,9.8003,9.8003,9.8003,9.8003,9.8003,9.8003,6.255,6.7827,7.2157,7.6149,7.9877,8.2531,8.2199,8.5589,8.7998,8.518,8.6276,8.7104,8.4995,8.5592,8.6793,8.7998,8.9221,9.046,9.1638,9.1803,9.1803,9.1803,9.0735,8.9883,8.9558,8.7654,8.6266,8.5953,8.5118,8.4614,8.4614,8.5182,8.5215,8.4614,8.5182,8.5215,8.4614,8.4614,8.4614,8.4614,8.4614,8.4884,8.552,8.6298,8.7008,8.7786,8.87,8.91,8.91,8.91,8.91,8.91,8.91,8.91,8.91,8.91,8.91,8.91,8.91,8.91,8.91,8.91,8.91,8.9134,8.9309,9.0256,9.1338,9.1541,9.2556,9.3601,9.3601,9.3601,9.3601,9.3601,9.3601,9.3601,9.3601,9.3601,9.3601,9.3601,9.3601,9.3668,9.3842,9.4349,9.4755,9.4958,9.5601,9.6074,9.6074,9.6717,9.7157,9.7157,9.7664,9.8003,9.8003,9.8003,9.8003,9.8003,9.8003,9.8003,9.8003,9.8003,9.8003,9.8003,9.8003,9.8003,9.8003,9.8003,9.8003,9.8003,9.8003,9.8003,5.7476,6.1637,6.6136,7.0579,7.5046,7.8853,8.0877,8.3531,8.5363,8.4728,8.5617,8.6103,8.4838,8.5592,8.6793,8.7998,8.9278,9.0496,9.1638,9.1803,9.1803,9.1803,9.0735,8.9558,8.8402,8.7175,8.5937,8.4792,8.4633,8.4614,8.4614,8.4647,8.4647,8.4614,8.4647,8.4647,8.4614,8.4614,8.4614,8.4614,8.4614,8.4614,8.4681,8.5486,8.6264,8.7042,8.8463,8.91,8.91,8.91,8.91,8.91,8.91,8.91,8.91,8.91,8.91,8.91,8.91,8.91,8.91,8.91,8.91,8.9235,8.9918,9.0696,9.144,9.2121,9.2962,9.3601,9.3601,9.3601,9.3601,9.3601,9.3601,9.3601,9.3601,9.3601,9.3601,9.3601,9.3601,9.3808,9.4518,9.4687,9.4958,9.5635,9.6345,9.6849,9.6849,9.7495,9.7935,9.7935,9.8003,9.8003,9.8003,9.8003,9.8003,9.8003,9.8003,9.8003,9.8003,9.8003,9.8003,9.8003,9.8003,9.8003,9.8003,9.8003,9.8003,9.8003,9.8003,9.8003,5.7814,6.1197,6.4986,6.9485,7.3819,7.7354,7.8841,8.2598,8.5415,8.4163,8.5223,8.6028,8.4811,8.4969,8.5668,8.6841,8.8065,8.9284,9.0463,9.1286,9.1546,9.0808,8.9615,8.838,8.714,8.5928,8.5066,8.4633,8.4614,8.4614,8.4614,8.4614,8.4614,8.4614,8.4614,8.4614,8.4614,8.4614,8.4614,8.4614,8.4614,8.4614,8.4614,8.5418,8.6196,8.6974,8.7955,8.8632,8.91,8.91,8.91,8.91,8.91,8.91,8.91,8.91,8.91,8.91,8.91,8.91,8.9201,8.9647,8.9816,8.9951,9.0696,9.144,9.2083,9.2324,9.2996,9.3601,9.3601,9.3601,9.3601,9.3601,9.3601,9.3601,9.3601,9.3601,9.3601,9.3601,9.3977,9.4383,9.4654,9.5499,9.6041,9.5838,9.6819,9.7428,9.6985,9.7529,9.8003,9.8003,9.8003,9.8003,9.8003,9.8003,9.8003,9.8003,9.8003,9.8003,9.8003,9.8003,9.8003,9.8003,9.8003,9.8003,9.8003,9.8003,9.8003,9.8003,9.8003,9.8003,5.5834,5.8743,6.2415,6.7151,7.0401,7.346,7.745,8.0531,8.2732,8.3372,8.4524,8.5258,8.4698,8.4614,8.4988,8.6192,8.7398,8.8623,8.9842,9.1022,9.1528,9.0732,8.9573,8.8491,8.77,8.6512,8.5643,8.5274,8.5222,8.5014,8.4606,8.4614,8.4614,8.4614,8.4614,8.4614,8.4614,8.4614,8.4614,8.4614,8.4614,8.4614,8.4614,8.5418,8.6196,8.6941,8.7685,8.8395,8.91,8.91,8.91,8.91,8.91,8.91,8.91,8.91,8.91,8.91,8.91,8.91,8.9207,8.9951,9.0222,9.0391,9.1372,9.2015,9.2459,9.2725,9.3199,9.3601,9.3601,9.3601,9.3601,9.3601,9.3601,9.3601,9.3601,9.3601,9.3673,9.3909,9.4349,9.4857,9.5364,9.6244,9.6849,9.6582,9.736,9.7834,9.7326,9.7698,9.8003,9.8003,9.8003,9.8003,9.8003,9.8003,9.8003,9.8003,9.8003,9.8003,9.8003,9.8003,9.8003,9.8003,9.8003,9.8003,9.8003,9.8003,9.8003,9.8003,9.8003,9.8003,0.0,0.0,0.0,6.3091,6.441,6.6981,7.6555,7.7029,7.6961,8.2205,8.3347,8.3644,8.4437,8.4606,8.5014,8.6177,8.7352,8.8557,8.9801,9.0984,9.1767,9.1767,9.0716,8.9986,8.9945,8.8884,8.7735,8.6581,8.6449,8.5887,8.466,8.4614,8.4614,8.4614,8.4614,8.4614,8.4614,8.4614,8.4614,8.4614,8.4614,8.4614,8.4647,8.5452,8.6196,8.6974,8.7685,8.8395,8.91,8.91,8.91,8.91,8.91,8.91,8.91,8.91,8.91,8.91,8.91,8.9134,8.9241,8.9985,9.0256,9.056,9.1986,9.2426,9.2595,9.3368,9.3601,9.3601,9.3601,9.3601,9.3634,9.3634,9.3634,9.3634,9.3668,9.3668,9.3842,9.4586,9.4755,9.5229,9.665,9.6917,9.7157,9.7867,9.7969,9.7969,9.7969,9.7969,9.7969,9.8003,9.8003,9.8003,9.8003,9.8003,9.8003,9.8003,9.8003,9.8037,9.8037,9.8037,9.8037,9.8037,9.8037,9.8037,9.8003,9.8003,9.8003,9.8003,9.8003,9.8037,5.1201,0.0,0.0,0.0,0.0,0.0,6.8166,6.9722,7.1718,7.7536,7.9833,8.1428,8.3436,8.4942,8.571,8.5196,8.6103,8.7305,8.8535,8.976,9.0483,9.0483,9.0188,8.9641,8.8776,8.8402,8.77,8.6512,8.6414,8.5887,8.466,8.4614,8.4614,8.4614,8.4614,8.4614,8.4614,8.4614,8.4614,8.4614,8.4614,8.4884,8.5486,8.5689,8.6467,8.7719,8.7922,8.8395,8.91,8.91,8.91,8.91,8.91,8.91,8.91,8.91,8.91,8.91,8.91,8.9444,9.0019,9.0763,9.1372,9.1952,9.2962,9.3267,9.33,9.3567,9.3601,9.3601,9.3601,9.3601,9.3706,9.4282,9.4417,9.4552,9.506,9.5195,9.5093,9.4755,9.5567,9.6413,9.6849,9.7326,9.7597,9.7258,9.7191,9.7191,9.7191,9.7191,9.7394,9.7935,9.8003,9.8003,9.8003,9.8003,9.8003,9.8003,9.8003,9.824,9.8781,9.8781,9.8781,9.8781,9.8781,9.8544,9.8003,9.8003,9.8003,9.8003,9.8003,9.8307,0.0,0.0,0.0,0.0,0.0,0.0,6.6068,6.7523,6.9417,7.6386,7.846,7.9864,8.2563,8.3449,8.3898,8.4129,8.4745,8.5698,8.7223,8.8491,8.9263,8.9263,8.9263,8.8949,8.8268,8.8201,8.77,8.6512,8.6414,8.5887,8.466,8.4614,8.4614,8.4614,8.4614,8.4614,8.4614,8.4614,8.4614,8.4614,8.4945,8.5351,8.5817,8.6433,8.7177,8.8023,8.8328,8.87,8.91,8.91,8.91,8.91,8.91,8.91,8.91,8.91,8.91,8.91,8.91,8.9579,9.0324,9.1068,9.1812,9.2527,9.3334,9.3601,9.3601,9.3601,9.3601,9.3601,9.3601,9.3601,9.3706,9.4146,9.4485,9.4823,9.5263,9.5804,9.6108,9.5702,9.6311,9.7018,9.7292,9.7732,9.7867,9.7428,9.736,9.736,9.736,9.736,9.7529,9.7969,9.8003,9.8003,9.8003,9.8003,9.8138,9.8442,9.8476,9.8781,9.9525,9.9559,9.9559,9.9559,9.9254,9.8747,9.8003,9.8003,9.8003,9.8003,9.8307,9.8679,5.2469,0.0,0.0,0.0,5.6867,0.0,6.6542,6.7354,6.8347,7.5922,7.7217,7.7866,8.0877,8.0572,8.0453,8.223,8.2915,8.4037,8.6275,8.7398,8.8088,8.8357,8.8268,8.8201,8.8201,8.8201,8.77,8.6512,8.6266,8.5735,8.466,8.4614,8.4614,8.4614,8.4614,8.4614,8.4614,8.4614,8.4614,8.4614,8.5418,8.5824,8.596,8.7347,8.8023,8.8158,8.8829,8.91,8.91,8.91,8.91,8.91,8.91,8.91,8.91,8.91,8.91,8.9134,8.9201,8.9715,9.0459,9.1169,9.1947,9.2692,9.3368,9.3601,9.3601,9.3601,9.3601,9.3601,9.3601,9.3601,9.3634,9.3673,9.4282,9.4857,9.4924,9.6041,9.7022,9.7022,9.7022,9.7225,9.7901,9.8003,9.8003,9.8003,9.7935,9.7901,9.8003,9.7935,9.7901,9.8003,9.8003,9.8003,9.8003,9.8003,9.8273,9.895,9.9051,9.9424,10.0202,10.0303,10.0305,10.0305,9.9593,9.8916,9.824,9.8172,9.8138,9.8138,9.8882,9.9254,5.3416,5.4668,5.6055,5.5581,0.0,0.0,5.8607,6.052,6.3328,6.6745,6.9015,7.1422,7.4634,7.6759,7.7674,7.652,7.9363,8.3164,8.7339,8.7246,8.7468,8.9432,8.8776,8.8201,8.8201,8.8201,8.77,8.6512,8.5489,8.4838,8.4606,8.4614,8.4614,8.4614,8.4614,8.4614,8.4614,8.4614,8.4614,8.4614,8.5418,8.6095,8.6738,8.7583,8.8328,8.8869,8.9066,8.91,8.91,8.91,8.91,8.91,8.91,8.91,8.91,8.91,8.91,8.9201,8.9782,9.0459,9.1203,9.1947,9.2725,9.3402,9.3537,9.3601,9.3601,9.3601,9.3601,9.3601,9.3601,9.3601,9.374,9.4349,9.506,9.5736,9.6345,9.7157,9.78,9.78,9.78,9.7834,9.7969,9.8003,9.8003,9.8003,9.7495,9.7326,9.7935,9.7461,9.7326,9.7935,9.8003,9.8003,9.8003,9.8003,9.807,9.8206,9.8781,9.9424,10.0202,10.0811,10.1214,10.1214,10.0405,9.9899,9.9764,9.9187,9.8882,9.8882,9.966,10.0303,5.4329,5.4871,5.5886,5.6596,0.0,0.0,0.0,5.9641,6.1231,6.4952,6.5872,6.7124,7.0666,7.1479,7.2025,7.3287,7.6657,8.0375,8.4098,8.5296,8.6019,8.6674,8.6721,8.6497,8.5933,8.6182,8.6152,8.554,8.4943,8.4614,8.4614,8.4614,8.4614,8.4614,8.4614,8.4614,8.4614,8.4614,8.4614,8.4614,8.579,8.6535,8.6941,8.8023,8.8734,8.91,8.91,8.91,8.91,8.91,8.9309,8.9613,8.9269,8.91,8.91,8.91,8.91,8.9235,8.9951,9.0696,9.1406,9.2155,9.2928,9.3601,9.3601,9.3601,9.3601,9.3601,9.3601,9.3601,9.3601,9.3601,9.3774,9.4518,9.5263,9.6007,9.6748,9.7461,9.8003,9.8003,9.8003,9.8003,9.8003,9.8003,9.8003,9.8003,9.7698,9.7563,9.7969,9.7664,9.7597,9.7969,9.8003,9.8003,9.8003,9.8003,9.8307,9.9051,9.9457,10.0202,10.1318,10.1724,10.1792,10.1418,10.098,10.0608,10.0204,10.0202,9.9999,9.966,10.0405,10.1014,0.0,0.0,0.0,0.0,0.0,5.7239,0.0,0.0,0.0,6.3917,6.3477,6.3396,6.6576,6.5764,6.5818,6.9451,7.3037,7.6145,7.8327,8.1309,8.3245,8.3219,8.4083,8.4236,8.3189,8.349,8.3937,8.4343,8.4106,8.4072,8.4377,8.4512,8.4614,8.4614,8.4614,8.4614,8.4614,8.4614,8.4681,8.485,8.6264,8.6974,8.7177,8.8497,8.91,8.91,8.91,8.9201,8.9337,8.9337,8.9748,9.0324,8.9444,8.9201,8.9337,8.9337,8.9337,8.9444,9.0324,9.1,9.1643,9.2387,9.3064,9.3601,9.3601,9.3601,9.3601,9.3601,9.3601,9.3601,9.3601,9.3601,9.374,9.4349,9.5161,9.5939,9.6578,9.736,9.8003,9.8003,9.8003,9.8003,9.8003,9.8003,9.8003,9.8003,9.8003,9.8003,9.8003,9.8003,9.8003,9.8003,9.8003,9.8003,9.8003,9.8138,9.8747,9.9899,10.0303,10.1014,10.2231,10.2401,10.2198,10.1589,10.1589,10.1284,10.061,10.1284,10.1183,10.0506,10.1216,10.1589,0.0,0.0,0.0,0.0,6.1264,0.0,0.0,0.0,5.9404,5.739,0.0,5.8863,5.9926,0.0,0.0,6.14,6.6271,7.007,7.0415,7.3856,7.7783,8.1713,8.248,8.2393,8.1621,8.1021,8.1494,8.349,8.2408,8.2238,8.3558,8.4242,8.4614,8.4614,8.4614,8.4614,8.4614,8.4614,8.4979,8.5655,8.6501,8.7245,8.7888,8.8734,8.91,8.91,8.91,8.9478,9.0087,9.0087,9.0527,9.1034,8.9641,8.9478,9.0087,9.0087,9.0087,9.029,9.1648,9.2189,9.2392,9.3199,9.3533,9.3601,9.3601,9.3601,9.3601,9.3601,9.3601,9.3601,9.3601,9.3601,9.3634,9.3706,9.4789,9.5804,9.5905,9.7022,9.8003,9.8003,9.8003,9.8003,9.8003,9.8003,9.8003,9.8003,9.8003,9.8003,9.8003,9.8003,9.8003,9.8003,9.8003,9.8003,9.8003,9.8612,9.9051,9.9221,10.0506,10.1284,10.1487,10.2198,10.2502,10.2401,10.2401,10.2299,10.2199,10.2299,10.1995,10.1316,10.1995,10.2401,0.0,0.0,0.0,0.0,0.0,0.0,5.6968,0.0,5.6156,0.0,0.0,0.0,0.0,0.0,0.0,0.0,6.2787,6.6,6.644,6.9825,7.3633,7.7295,7.7251,7.7237,7.7982,7.8957,8.0141,8.1494,8.1021,8.1291,8.278,8.3558,8.4167,8.458,8.4614,8.4614,8.4614,8.508,8.5452,8.5817,8.6974,8.7719,8.8023,8.8734,8.91,8.91,8.91,8.9303,8.9579,9.0019,9.0628,9.1237,9.0628,9.056,9.0831,9.0831,9.0831,9.1,9.202,9.2392,9.2527,9.3334,9.3601,9.3601,9.3601,9.3601,9.3601,9.3601,9.3601,9.3601,9.3601,9.3601,9.3837,9.4654,9.533,9.6041,9.6886,9.7563,9.8003,9.8003,9.8003,9.8003,9.8003,9.8003,9.8003,9.8003,9.8003,9.8003,9.8003,9.8003,9.8003,9.8003,9.8003,9.8172,9.8612,9.8916,9.9457,10.0402,10.1419,10.1995,10.1995,10.2299,10.2502,10.2502,10.2502,10.2502,10.2502,10.2502,10.2299,10.1995,10.2401,10.2502,6.5087,0.0,0.0,0.0,0.0,0.0,0.0,0.0,0.0,0.0,0.0,0.0,0.0,0.0,0.0,0.0,0.0,6.3024,6.3328,6.5527,6.847,7.2033,7.2492,7.3373,7.55,7.6657,7.7908,7.9464,7.9025,7.96,8.1697,8.2678,8.3558,8.4275,8.4478,8.4614,8.4614,8.5384,8.5919,8.6095,8.738,8.8091,8.8294,8.8863,8.91,8.91,8.91,8.9337,8.9715,9.029,9.1068,9.1913,9.1913,9.1913,9.188,9.1677,9.1609,9.1711,9.2489,9.2725,9.2827,9.3402,9.3601,9.3601,9.3601,9.3601,9.3601,9.3601,9.3601,9.3601,9.3601,9.3601,9.3939,9.5195,9.5635,9.6142,9.7428,9.7867,9.8003,9.8003,9.8003,9.8003,9.8003,9.8003,9.8003,9.8003,9.8003,9.8003,9.8003,9.8003,9.8003,9.8003,9.8172,9.851,9.9051,9.9491,10.0303,10.1589,10.2198,10.2502,10.2502,10.2502,10.2502,10.2502,10.2502,10.2502,10.2502,10.2502,10.2502,10.2502,10.2502,10.2502,0.0,0.0,0.0,6.4059,0.0,0.0,0.0,0.0,5.7764,0.0,0.0,0.0,0.0,0.0,0.0,0.0,0.0,0.0,0.0,5.9723,6.1279,6.6419,6.9608,7.2507,7.5405,7.3815,7.4119,7.7797,7.6048,7.6386,8.0073,8.1663,8.278,8.3524,8.4234,8.4614,8.4614,8.5384,8.6163,8.6873,8.7651,8.8361,8.9066,8.91,8.91,8.91,8.91,8.9884,9.1237,9.1237,9.215,9.3533,9.3533,9.3533,9.3402,9.2658,9.2358,9.2459,9.3267,9.3567,9.3567,9.3601,9.3601,9.3601,9.3601,9.3601,9.3601,9.3601,9.3601,9.3601,9.3601,9.3601,9.3774,9.4552,9.5296,9.6007,9.6781,9.7495,9.8003,9.8003,9.8003,9.8003,9.8003,9.8003,9.8003,9.8003,9.8003,9.8003,9.8003,9.8003,9.8003,9.8003,9.8645,9.9051,9.9085,10.0504,10.1722,10.2401,10.2502,10.2502,10.2502,10.2502,10.2502,10.2502,10.2502,10.2502,10.2502,10.2502,10.2502,10.2502,10.2502,10.2502,7.3375,7.4018,7.3443,6.8762,6.6055,6.3145,0.0,0.0,0.0,0.0,0.0,0.0,0.0,0.0,0.0,0.0,0.0,0.0,0.0,5.7288,5.8201,6.1941,6.5459,6.7793,6.8301,7.0804,7.2732,7.351,7.3747,7.5303,7.8551,8.0141,8.1731,8.3456,8.4208,8.485,8.5384,8.6163,8.6907,8.7651,8.8361,8.8863,8.91,8.91,8.91,8.9134,8.9613,9.0121,9.0662,9.1643,9.2353,9.2861,9.3368,9.3601,9.3567,9.33,9.3199,9.3233,9.3533,9.3601,9.3601,9.3601,9.3601,9.3601,9.3601,9.3601,9.3601,9.3601,9.3601,9.3601,9.3601,9.3601,9.3909,9.5127,9.5601,9.6142,9.736,9.7834,9.8003,9.8003,9.8003,9.8003,9.8003,9.8003,9.8003,9.8003,9.8003,9.8003,9.8003,9.8003,9.8206,9.8679,9.895,9.9491,10.0506,10.1521,10.2198,10.2502,10.2502,10.2502,10.2502,10.2502,10.2502,10.2502,10.2502,10.2502,10.2502,10.2502,10.2502,10.2502,10.2502,10.2502,7.5371,7.6352,7.6352,7.2383,6.9913,6.7172,6.2212,0.0,6.3308,0.0,0.0,0.0,0.0,0.0,0.0,0.0,0.0,0.0,0.0,5.6055,5.6883,5.9066,6.2178,6.4681,6.6068,6.803,6.9925,7.1582,7.1345,7.2766,7.6589,7.872,8.0581,8.2272,8.3802,8.5012,8.579,8.6535,8.7279,8.7989,8.8734,8.91,8.91,8.91,8.9269,8.9512,8.9985,9.0527,9.1039,9.1986,9.2561,9.2895,9.3402,9.3601,9.3601,9.3601,9.3601,9.3601,9.3601,9.3601,9.3601,9.3601,9.3601,9.3601,9.3601,9.3601,9.3601,9.3601,9.3601,9.3601,9.3601,9.3774,9.4282,9.5499,9.6007,9.6514,9.7732,9.8003,9.8003,9.8003,9.8003,9.8003,9.8003,9.8003,9.8003,9.8003,9.8003,9.8104,9.8375,9.8375,9.8679,9.9424,9.9762,10.0405,10.169,10.2198,10.2502,10.2502,10.2502,10.2502,10.2502,10.2502,10.2502,10.2502,10.2502,10.2502,10.2502,10.2502,10.2502,10.2502,10.2502,10.2502]}]]